Wetterdaten: Sonntag, 24.03.2019
Datum Zeit Temp. A. Pool Temp. Temp. 5cm Feuchte A. Luftdruck Regen Wind Richtung Richtung Sonnenschein ET UV Solar Taupunkt Windchill Windben Empfang
24.03.2019 00:00 7,5 C 7,8 C 5,6 C 78 % 1024,8 hPa 0,0 l/m 7,7 km/h (2 Bft) S-SW 207 0 min 0,000 mm 0,0 UV-I 0 W/m 3,9 C 6,5 C 9,7 km/h (2 Bft) 100,00 %
24.03.2019 00:02 7,5 C 7,8 C 5,6 C 78 % 1024,7 hPa 0,0 l/m 7,3 km/h (2 Bft) S-SW 196 0 min 0,000 mm 0,0 UV-I 0 W/m 3,9 C 6,8 C 8,0 km/h (2 Bft) 97,06 %
24.03.2019 00:04 7,5 C 7,8 C 5,6 C 78 % 1024,7 hPa 0,0 l/m 7,3 km/h (2 Bft) S-SW 198 0 min 0,000 mm 0,0 UV-I 0 W/m 3,9 C 6,8 C 9,7 km/h (2 Bft) 98,00 %
24.03.2019 00:06 7,6 C 7,8 C 5,6 C 78 % 1024,7 hPa 0,0 l/m 7,0 km/h (2 Bft) S-SW 200 0 min 0,000 mm 0,0 UV-I 0 W/m 4,0 C 7,1 C 9,7 km/h (2 Bft) 98,21 %
24.03.2019 00:08 7,6 C 7,8 C 5,6 C 78 % 1024,7 hPa 0,0 l/m 7,6 km/h (2 Bft) SW 215 0 min 0,000 mm 0,0 UV-I 0 W/m 4,0 C 6,6 C 9,7 km/h (2 Bft) 97,14 %
24.03.2019 00:10 7,6 C 7,8 C 5,6 C 77 % 1024,8 hPa 0,0 l/m 8,6 km/h (2 Bft) S-SW 209 0 min 0,000 mm 0,0 UV-I 0 W/m 3,8 C 5,9 C 11,3 km/h (2 Bft) 98,21 %
24.03.2019 00:12 7,7 C 7,8 C 5,6 C 77 % 1024,7 hPa 0,0 l/m 8,3 km/h (2 Bft) S-SW 209 0 min 0,000 mm 0,0 UV-I 0 W/m 3,9 C 6,2 C 11,3 km/h (2 Bft) 95,74 %
24.03.2019 00:14 7,7 C 7,8 C 5,6 C 77 % 1024,7 hPa 0,0 l/m 8,3 km/h (2 Bft) S-SW 202 0 min 0,000 mm 0,0 UV-I 0 W/m 3,9 C 6,2 C 11,3 km/h (2 Bft) 97,87 %
24.03.2019 00:16 7,7 C 7,8 C 5,6 C 77 % 1024,6 hPa 0,0 l/m 8,2 km/h (2 Bft) S-SW 207 0 min 0,000 mm 0,0 UV-I 0 W/m 3,9 C 6,3 C 9,7 km/h (2 Bft) 98,00 %
24.03.2019 00:18 7,6 C 7,8 C 5,6 C 77 % 1024,6 hPa 0,0 l/m 8,3 km/h (2 Bft) S-SW 200 0 min 0,000 mm 0,0 UV-I 0 W/m 3,8 C 6,1 C 9,7 km/h (2 Bft) 97,62 %
24.03.2019 00:20 7,6 C 7,8 C 5,6 C 77 % 1024,6 hPa 0,0 l/m 8,1 km/h (2 Bft) S-SW 205 0 min 0,000 mm 0,0 UV-I 0 W/m 3,8 C 6,3 C 9,7 km/h (2 Bft) 96,15 %
24.03.2019 00:22 7,5 C 7,8 C 5,6 C 77 % 1024,6 hPa 0,0 l/m 7,5 km/h (2 Bft) S-SW 208 0 min 0,000 mm 0,0 UV-I 0 W/m 3,7 C 6,6 C 9,7 km/h (2 Bft) 97,62 %
24.03.2019 00:24 7,4 C 7,8 C 5,6 C 77 % 1024,6 hPa 0,0 l/m 7,3 km/h (2 Bft) SW 214 0 min 0,000 mm 0,0 UV-I 0 W/m 3,6 C 6,7 C 8,0 km/h (2 Bft) 100,00 %
24.03.2019 00:26 7,4 C 7,8 C 5,6 C 78 % 1024,6 hPa 0,0 l/m 8,7 km/h (2 Bft) SW 215 0 min 0,000 mm 0,0 UV-I 0 W/m 3,8 C 5,6 C 11,3 km/h (2 Bft) 100,00 %
24.03.2019 00:28 7,4 C 7,8 C 5,6 C 78 % 1024,6 hPa 0,0 l/m 8,3 km/h (2 Bft) S-SW 200 0 min 0,000 mm 0,0 UV-I 0 W/m 3,8 C 5,9 C 12,9 km/h (3 Bft) 100,00 %
24.03.2019 00:30 7,4 C 7,8 C 5,6 C 78 % 1024,6 hPa 0,0 l/m 8,4 km/h (2 Bft) S-SW 196 0 min 0,000 mm 0,0 UV-I 0 W/m 3,8 C 5,8 C 12,9 km/h (3 Bft) 100,00 %
24.03.2019 00:32 7,4 C 7,8 C 5,6 C 77 % 1024,6 hPa 0,0 l/m 9,3 km/h (2 Bft) S-SW 209 0 min 0,000 mm 0,0 UV-I 0 W/m 3,6 C 5,2 C 12,9 km/h (3 Bft) 100,00 %
24.03.2019 00:34 7,4 C 7,8 C 5,6 C 77 % 1024,6 hPa 0,0 l/m 9,1 km/h (2 Bft) S-SW 207 0 min 0,000 mm 0,0 UV-I 0 W/m 3,6 C 5,3 C 11,3 km/h (2 Bft) 100,00 %
24.03.2019 00:36 7,3 C 7,8 C 5,0 C 78 % 1024,6 hPa 0,0 l/m 7,7 km/h (2 Bft) S-SW 207 0 min 0,000 mm 0,0 UV-I 0 W/m 3,7 C 6,2 C 11,3 km/h (2 Bft) 98,00 %
24.03.2019 00:38 7,3 C 7,8 C 5,0 C 78 % 1024,6 hPa 0,0 l/m 7,2 km/h (2 Bft) S-SW 205 0 min 0,000 mm 0,0 UV-I 0 W/m 3,7 C 6,7 C 9,7 km/h (2 Bft) 98,21 %
24.03.2019 00:40 7,3 C 7,8 C 5,0 C 77 % 1024,5 hPa 0,0 l/m 7,5 km/h (2 Bft) S-SW 206 0 min 0,000 mm 0,0 UV-I 0 W/m 3,5 C 6,4 C 9,7 km/h (2 Bft) 100,00 %
24.03.2019 00:42 7,3 C 7,8 C 5,0 C 78 % 1024,5 hPa 0,0 l/m 7,6 km/h (2 Bft) S-SW 203 0 min 0,000 mm 0,0 UV-I 0 W/m 3,7 C 6,3 C 9,7 km/h (2 Bft) 100,00 %
24.03.2019 00:44 7,3 C 7,8 C 5,0 C 78 % 1024,5 hPa 0,0 l/m 7,8 km/h (2 Bft) S-SW 212 0 min 0,000 mm 0,0 UV-I 0 W/m 3,7 C 6,2 C 9,7 km/h (2 Bft) 97,37 %
24.03.2019 00:46 7,2 C 7,8 C 5,0 C 78 % 1024,5 hPa 0,0 l/m 7,5 km/h (2 Bft) S-SW 205 0 min 0,000 mm 0,0 UV-I 0 W/m 3,6 C 6,3 C 8,0 km/h (2 Bft) 100,00 %
24.03.2019 00:48 7,2 C 7,8 C 5,0 C 78 % 1024,5 hPa 0,0 l/m 7,4 km/h (2 Bft) S-SW 205 0 min 0,000 mm 0,0 UV-I 0 W/m 3,6 C 6,4 C 8,0 km/h (2 Bft) 100,00 %
24.03.2019 00:50 7,2 C 7,8 C 5,0 C 78 % 1024,5 hPa 0,0 l/m 7,3 km/h (2 Bft) S-SW 209 0 min 0,000 mm 0,0 UV-I 0 W/m 3,6 C 6,5 C 8,0 km/h (2 Bft) 100,00 %
24.03.2019 00:52 7,2 C 7,8 C 5,0 C 78 % 1024,5 hPa 0,0 l/m 7,6 km/h (2 Bft) S-SW 207 0 min 0,000 mm 0,0 UV-I 0 W/m 3,6 C 6,2 C 9,7 km/h (2 Bft) 100,00 %
24.03.2019 00:54 7,2 C 7,8 C 5,0 C 78 % 1024,5 hPa 0,0 l/m 7,4 km/h (2 Bft) S-SW 208 0 min 0,000 mm 0,0 UV-I 0 W/m 3,6 C 6,4 C 9,7 km/h (2 Bft) 100,00 %
24.03.2019 00:56 7,2 C 7,8 C 5,0 C 78 % 1024,5 hPa 0,0 l/m 7,5 km/h (2 Bft) S-SW 205 0 min 0,000 mm 0,0 UV-I 0 W/m 3,6 C 6,3 C 9,7 km/h (2 Bft) 100,00 %
24.03.2019 00:58 7,2 C 7,8 C 5,0 C 78 % 1024,4 hPa 0,0 l/m 7,9 km/h (2 Bft) S-SW 202 0 min 0,000 mm 0,0 UV-I 0 W/m 3,6 C 6,0 C 9,7 km/h (2 Bft) 100,00 %
24.03.2019 01:00 7,2 C 7,8 C 5,0 C 78 % 1024,4 hPa 0,0 l/m 7,4 km/h (2 Bft) S-SW 205 0 min 0,000 mm 0,0 UV-I 0 W/m 3,6 C 6,4 C 8,0 km/h (2 Bft) 100,00 %
24.03.2019 01:01 7,1 C 7,8 C 5,0 C 78 % 1024,4 hPa 0,0 l/m 7,6 km/h (2 Bft) S-SW 200 0 min 0,025 mm 0,0 UV-I 0 W/m 3,5 C 6,1 C 9,7 km/h (2 Bft) 100,00 %
24.03.2019 01:04 7,1 C 7,8 C 5,0 C 78 % 1024,4 hPa 0,0 l/m 6,6 km/h (2 Bft) S-SW 207 0 min 0,000 mm 0,0 UV-I 0 W/m 3,5 C 7,0 C 8,0 km/h (2 Bft) 100,00 %
24.03.2019 01:06 7,1 C 7,8 C 5,0 C 78 % 1024,4 hPa 0,0 l/m 6,8 km/h (2 Bft) S-SW 203 0 min 0,000 mm 0,0 UV-I 0 W/m 3,5 C 6,8 C 8,0 km/h (2 Bft) 100,00 %
24.03.2019 01:08 7,1 C 7,8 C 5,0 C 78 % 1024,3 hPa 0,0 l/m 7,7 km/h (2 Bft) S-SW 203 0 min 0,000 mm 0,0 UV-I 0 W/m 3,5 C 6,0 C 9,7 km/h (2 Bft) 98,11 %
24.03.2019 01:10 7,0 C 7,8 C 5,0 C 78 % 1024,3 hPa 0,0 l/m 7,9 km/h (2 Bft) S-SW 206 0 min 0,000 mm 0,0 UV-I 0 W/m 3,4 C 5,8 C 9,7 km/h (2 Bft) 100,00 %
24.03.2019 01:12 7,0 C 7,8 C 5,0 C 78 % 1024,3 hPa 0,0 l/m 7,0 km/h (2 Bft) SW 218 0 min 0,000 mm 0,0 UV-I 0 W/m 3,4 C 6,5 C 9,7 km/h (2 Bft) 100,00 %
24.03.2019 01:14 6,9 C 7,8 C 5,0 C 78 % 1024,3 hPa 0,0 l/m 6,7 km/h (2 Bft) S-SW 211 0 min 0,000 mm 0,0 UV-I 0 W/m 3,3 C 6,7 C 8,0 km/h (2 Bft) 98,00 %
24.03.2019 01:16 6,8 C 7,8 C 4,4 C 78 % 1024,3 hPa 0,0 l/m 6,2 km/h (2 Bft) S-SW 212 0 min 0,000 mm 0,0 UV-I 0 W/m 3,2 C 6,8 C 9,7 km/h (2 Bft) 95,12 %
24.03.2019 01:18 6,8 C 7,8 C 4,4 C 79 % 1024,3 hPa 0,0 l/m 6,3 km/h (2 Bft) S-SW 207 0 min 0,000 mm 0,0 UV-I 0 W/m 3,4 C 6,8 C 8,0 km/h (2 Bft) 98,00 %
24.03.2019 01:20 6,7 C 7,8 C 4,4 C 79 % 1024,3 hPa 0,0 l/m 6,4 km/h (2 Bft) S-SW 207 0 min 0,000 mm 0,0 UV-I 0 W/m 3,3 C 6,7 C 8,0 km/h (2 Bft) 96,23 %
24.03.2019 01:22 6,8 C 7,8 C 4,4 C 79 % 1024,3 hPa 0,0 l/m 6,1 km/h (2 Bft) S-SW 210 0 min 0,000 mm 0,0 UV-I 0 W/m 3,4 C 6,8 C 8,0 km/h (2 Bft) 95,45 %
24.03.2019 01:24 6,8 C 7,8 C 4,4 C 79 % 1024,3 hPa 0,0 l/m 6,5 km/h (2 Bft) S-SW 205 0 min 0,000 mm 0,0 UV-I 0 W/m 3,4 C 6,7 C 8,0 km/h (2 Bft) 95,74 %
24.03.2019 01:26 6,8 C 7,8 C 4,4 C 79 % 1024,3 hPa 0,0 l/m 5,8 km/h (2 Bft) S-SW 210 0 min 0,000 mm 0,0 UV-I 0 W/m 3,4 C 6,8 C 8,0 km/h (2 Bft) 94,00 %
24.03.2019 01:28 6,8 C 7,8 C 4,4 C 79 % 1024,3 hPa 0,0 l/m 6,2 km/h (2 Bft) SW 222 0 min 0,000 mm 0,0 UV-I 0 W/m 3,4 C 6,8 C 8,0 km/h (2 Bft) 94,74 %
24.03.2019 01:30 6,7 C 7,8 C 4,4 C 79 % 1024,3 hPa 0,0 l/m 7,6 km/h (2 Bft) SW 216 0 min 0,000 mm 0,0 UV-I 0 W/m 3,3 C 5,7 C 11,3 km/h (2 Bft) 94,64 %
24.03.2019 01:32 6,7 C 7,8 C 3,9 C 79 % 1024,2 hPa 0,0 l/m 5,9 km/h (2 Bft) SW 229 0 min 0,000 mm 0,0 UV-I 0 W/m 3,3 C 6,7 C 9,7 km/h (2 Bft) 97,37 %
24.03.2019 01:34 6,6 C 7,8 C 3,9 C 79 % 1024,2 hPa 0,0 l/m 5,7 km/h (1 Bft) SW 225 0 min 0,000 mm 0,0 UV-I 0 W/m 3,2 C 6,6 C 8,0 km/h (2 Bft) 94,00 %
24.03.2019 01:36 6,5 C 7,8 C 3,9 C 79 % 1024,2 hPa 0,0 l/m 5,6 km/h (1 Bft) SW 224 0 min 0,000 mm 0,0 UV-I 0 W/m 3,1 C 6,5 C 8,0 km/h (2 Bft) 94,00 %
24.03.2019 01:38 6,4 C 7,8 C 3,9 C 80 % 1024,2 hPa 0,0 l/m 6,6 km/h (2 Bft) S-SW 211 0 min 0,000 mm 0,0 UV-I 0 W/m 3,2 C 6,3 C 8,0 km/h (2 Bft) 98,00 %
24.03.2019 01:40 6,4 C 7,8 C 3,9 C 79 % 1024,3 hPa 0,0 l/m 5,5 km/h (1 Bft) SW 225 0 min 0,000 mm 0,0 UV-I 0 W/m 3,0 C 6,4 C 8,0 km/h (2 Bft) 97,22 %
24.03.2019 01:42 6,2 C 7,8 C 3,9 C 80 % 1024,2 hPa 0,0 l/m 6,5 km/h (2 Bft) SW 217 0 min 0,000 mm 0,0 UV-I 0 W/m 3,0 C 6,1 C 8,0 km/h (2 Bft) 98,00 %
24.03.2019 01:44 6,2 C 7,8 C 3,9 C 80 % 1024,2 hPa 0,0 l/m 6,7 km/h (2 Bft) SW 223 0 min 0,000 mm 0,0 UV-I 0 W/m 3,0 C 6,0 C 9,7 km/h (2 Bft) 95,74 %
24.03.2019 01:46 6,1 C 7,8 C 3,9 C 81 % 1024,2 hPa 0,0 l/m 6,3 km/h (2 Bft) S-SW 202 0 min 0,000 mm 0,0 UV-I 0 W/m 3,1 C 6,1 C 8,0 km/h (2 Bft) 97,87 %
24.03.2019 01:48 6,2 C 7,8 C 3,9 C 81 % 1024,1 hPa 0,0 l/m 5,4 km/h (1 Bft) S-SW 206 0 min 0,000 mm 0,0 UV-I 0 W/m 3,2 C 6,2 C 6,4 km/h (2 Bft) 98,11 %
24.03.2019 01:50 6,2 C 7,8 C 3,9 C 81 % 1024,1 hPa 0,0 l/m 5,5 km/h (1 Bft) S-SW 202 0 min 0,000 mm 0,0 UV-I 0 W/m 3,2 C 6,2 C 6,4 km/h (2 Bft) 93,62 %
24.03.2019 01:52 6,2 C 7,8 C 3,9 C 80 % 1024,1 hPa 0,0 l/m 4,4 km/h (1 Bft) S-SW 202 0 min 0,000 mm 0,0 UV-I 0 W/m 3,0 C 6,2 C 6,4 km/h (2 Bft) 95,74 %
24.03.2019 01:54 6,1 C 7,8 C 3,3 C 80 % 1024,1 hPa 0,0 l/m 5,3 km/h (1 Bft) S-SW 202 0 min 0,000 mm 0,0 UV-I 0 W/m 2,9 C 6,1 C 6,4 km/h (2 Bft) 97,37 %
24.03.2019 01:56 6,1 C 7,8 C 3,3 C 81 % 1024,1 hPa 0,0 l/m 5,2 km/h (1 Bft) S-SW 202 0 min 0,000 mm 0,0 UV-I 0 W/m 3,1 C 6,1 C 6,4 km/h (2 Bft) 96,00 %
24.03.2019 01:58 6,1 C 7,8 C 3,3 C 81 % 1024,1 hPa 0,0 l/m 5,1 km/h (1 Bft) S-SW 202 0 min 0,000 mm 0,0 UV-I 0 W/m 3,1 C 6,1 C 6,4 km/h (2 Bft) 100,00 %
24.03.2019 02:00 6,1 C 7,8 C 3,3 C 81 % 1024,1 hPa 0,0 l/m 5,1 km/h (1 Bft) S-SW 202 0 min 0,026 mm 0,0 UV-I 0 W/m 3,1 C 6,1 C 6,4 km/h (2 Bft) 100,00 %
24.03.2019 02:02 6,1 C 7,8 C 3,3 C 81 % 1024,1 hPa 0,0 l/m 5,4 km/h (1 Bft) SW 216 0 min 0,000 mm 0,0 UV-I 0 W/m 3,1 C 6,1 C 6,4 km/h (2 Bft) 100,00 %
24.03.2019 02:04 6,2 C 7,8 C 3,3 C 80 % 1024,1 hPa 0,0 l/m 5,1 km/h (1 Bft) SW 215 0 min 0,000 mm 0,0 UV-I 0 W/m 3,0 C 6,2 C 6,4 km/h (2 Bft) 100,00 %
24.03.2019 02:06 6,2 C 7,8 C 3,3 C 80 % 1024,1 hPa 0,0 l/m 5,0 km/h (1 Bft) S-SW 211 0 min 0,000 mm 0,0 UV-I 0 W/m 3,0 C 6,2 C 6,4 km/h (2 Bft) 98,11 %
24.03.2019 02:08 6,2 C 7,8 C 3,9 C 80 % 1024,1 hPa 0,0 l/m 4,4 km/h (1 Bft) S-SW 209 0 min 0,000 mm 0,0 UV-I 0 W/m 3,0 C 6,2 C 6,4 km/h (2 Bft) 97,87 %
24.03.2019 02:10 6,1 C 7,8 C 3,3 C 80 % 1024,1 hPa 0,0 l/m 3,9 km/h (1 Bft) S-SW 209 0 min 0,000 mm 0,0 UV-I 0 W/m 2,9 C 6,1 C 6,4 km/h (2 Bft) 100,00 %
24.03.2019 02:12 6,1 C 7,8 C 2,8 C 80 % 1024,1 hPa 0,0 l/m 2,7 km/h (1 Bft) S-SW 210 0 min 0,000 mm 0,0 UV-I 0 W/m 2,9 C 6,1 C 4,8 km/h (1 Bft) 100,00 %
24.03.2019 02:14 6,0 C 7,8 C 2,2 C 81 % 1024,0 hPa 0,0 l/m 3,7 km/h (1 Bft) S-SW 210 0 min 0,000 mm 0,0 UV-I 0 W/m 3,0 C 6,0 C 4,8 km/h (1 Bft) 100,00 %
24.03.2019 02:16 6,0 C 7,8 C 1,7 C 81 % 1024,1 hPa 0,0 l/m 4,3 km/h (1 Bft) S-SW 211 0 min 0,000 mm 0,0 UV-I 0 W/m 3,0 C 6,0 C 6,4 km/h (2 Bft) 100,00 %
24.03.2019 02:18 5,9 C 7,8 C 1,1 C 80 % 1024,0 hPa 0,0 l/m 4,5 km/h (1 Bft) SW 219 0 min 0,000 mm 0,0 UV-I 0 W/m 2,7 C 5,9 C 6,4 km/h (2 Bft) 97,87 %
24.03.2019 02:20 5,9 C 7,8 C 1,1 C 81 % 1024,0 hPa 0,0 l/m 5,5 km/h (1 Bft) SW 217 0 min 0,000 mm 0,0 UV-I 0 W/m 2,9 C 5,9 C 6,4 km/h (2 Bft) 98,00 %
24.03.2019 02:22 5,8 C 7,8 C 1,7 C 81 % 1024,0 hPa 0,0 l/m 4,7 km/h (1 Bft) S-SW 213 0 min 0,000 mm 0,0 UV-I 0 W/m 2,8 C 5,8 C 6,4 km/h (2 Bft) 98,00 %
24.03.2019 02:24 5,7 C 7,8 C 2,2 C 81 % 1024,0 hPa 0,0 l/m 5,3 km/h (1 Bft) S-SW 213 0 min 0,000 mm 0,0 UV-I 0 W/m 2,7 C 5,7 C 6,4 km/h (2 Bft) 100,00 %
24.03.2019 02:26 5,6 C 7,8 C 2,2 C 81 % 1024,0 hPa 0,0 l/m 4,8 km/h (1 Bft) S-SW 211 0 min 0,000 mm 0,0 UV-I 0 W/m 2,6 C 5,6 C 6,4 km/h (2 Bft) 100,00 %
24.03.2019 02:28 5,5 C 7,8 C 2,8 C 82 % 1023,9 hPa 0,0 l/m 4,9 km/h (1 Bft) S-SW 206 0 min 0,000 mm 0,0 UV-I 0 W/m 2,7 C 5,5 C 6,4 km/h (2 Bft) 97,73 %
24.03.2019 02:30 5,4 C 7,8 C 2,2 C 82 % 1023,9 hPa 0,0 l/m 4,6 km/h (1 Bft) S-SW 205 0 min 0,000 mm 0,0 UV-I 0 W/m 2,6 C 5,4 C 6,4 km/h (2 Bft) 94,00 %
24.03.2019 02:32 5,3 C 7,8 C 1,7 C 82 % 1023,9 hPa 0,0 l/m 4,1 km/h (1 Bft) S-SW 205 0 min 0,000 mm 0,0 UV-I 0 W/m 2,5 C 5,3 C 4,8 km/h (1 Bft) 94,29 %
24.03.2019 02:34 5,3 C 7,8 C 1,7 C 82 % 1023,8 hPa 0,0 l/m 4,4 km/h (1 Bft) S-SW 205 0 min 0,000 mm 0,0 UV-I 0 W/m 2,5 C 5,3 C 6,4 km/h (2 Bft) 93,62 %
24.03.2019 02:36 5,2 C 7,8 C 1,1 C 82 % 1023,8 hPa 0,0 l/m 4,4 km/h (1 Bft) S-SW 202 0 min 0,000 mm 0,0 UV-I 0 W/m 2,4 C 5,2 C 6,4 km/h (2 Bft) 96,00 %
24.03.2019 02:38 5,2 C 7,8 C 1,1 C 83 % 1023,8 hPa 0,0 l/m 4,0 km/h (1 Bft) S-SW 201 0 min 0,000 mm 0,0 UV-I 0 W/m 2,6 C 5,2 C 4,8 km/h (1 Bft) 96,23 %
24.03.2019 02:40 5,2 C 7,8 C 1,1 C 83 % 1023,7 hPa 0,0 l/m 2,5 km/h (1 Bft) S-SW 201 0 min 0,000 mm 0,0 UV-I 0 W/m 2,6 C 5,2 C 3,2 km/h (1 Bft) 95,74 %
24.03.2019 02:42 5,2 C 7,8 C 0,6 C 83 % 1023,7 hPa 0,0 l/m 2,2 km/h (1 Bft) S-SW 201 0 min 0,000 mm 0,0 UV-I 0 W/m 2,6 C 5,2 C 3,2 km/h (1 Bft) 94,29 %
24.03.2019 02:44 5,1 C 7,8 C 0,0 C 83 % 1023,6 hPa 0,0 l/m 3,2 km/h (1 Bft) S-SW 201 0 min 0,000 mm 0,0 UV-I 0 W/m 2,5 C 5,1 C 4,8 km/h (1 Bft) 94,34 %
24.03.2019 02:46 5,2 C 7,8 C 0,0 C 83 % 1023,6 hPa 0,0 l/m 3,6 km/h (1 Bft) S-SW 201 0 min 0,000 mm 0,0 UV-I 0 W/m 2,6 C 5,2 C 4,8 km/h (1 Bft) 95,74 %
24.03.2019 02:48 5,2 C 7,8 C 0,0 C 83 % 1023,6 hPa 0,0 l/m 2,7 km/h (1 Bft) S-SW 201 0 min 0,000 mm 0,0 UV-I 0 W/m 2,6 C 5,2 C 3,2 km/h (1 Bft) 94,00 %
24.03.2019 02:50 5,1 C 7,8 C -0,6 C 83 % 1023,6 hPa 0,0 l/m 3,2 km/h (1 Bft) S-SW 201 0 min 0,000 mm 0,0 UV-I 0 W/m 2,5 C 5,1 C 4,8 km/h (1 Bft) 95,74 %
24.03.2019 02:52 4,9 C 7,8 C -0,6 C 83 % 1023,6 hPa 0,0 l/m 3,6 km/h (1 Bft) S-SW 200 0 min 0,000 mm 0,0 UV-I 0 W/m 2,3 C 4,9 C 4,8 km/h (1 Bft) 97,87 %
24.03.2019 02:54 4,8 C 7,8 C -0,6 C 84 % 1023,6 hPa 0,0 l/m 4,0 km/h (1 Bft) S-SW 200 0 min 0,000 mm 0,0 UV-I 0 W/m 2,3 C 4,8 C 6,4 km/h (2 Bft) 97,92 %
24.03.2019 02:56 4,8 C 7,8 C -0,6 C 84 % 1023,6 hPa 0,0 l/m 4,0 km/h (1 Bft) S-SW 200 0 min 0,000 mm 0,0 UV-I 0 W/m 2,3 C 4,8 C 4,8 km/h (1 Bft) 97,56 %
24.03.2019 02:58 4,8 C 7,8 C -0,6 C 84 % 1023,6 hPa 0,0 l/m 4,2 km/h (1 Bft) S-SW 200 0 min 0,000 mm 0,0 UV-I 0 W/m 2,3 C 4,8 C 4,8 km/h (1 Bft) 96,43 %
24.03.2019 03:00 4,7 C 7,8 C 0,0 C 84 % 1023,6 hPa 0,0 l/m 4,5 km/h (1 Bft) S-SW 200 0 min 0,000 mm 0,0 UV-I 0 W/m 2,2 C 4,7 C 6,4 km/h (2 Bft) 97,37 %
24.03.2019 03:02 4,7 C 7,8 C 0,0 C 84 % 1023,6 hPa 0,0 l/m 4,8 km/h (1 Bft) S-SW 200 0 min 0,000 mm 0,0 UV-I 0 W/m 2,2 C 4,7 C 6,4 km/h (2 Bft) 95,74 %
24.03.2019 03:04 4,7 C 7,8 C 0,6 C 85 % 1023,5 hPa 0,0 l/m 4,8 km/h (1 Bft) S-SW 200 0 min 0,000 mm 0,0 UV-I 0 W/m 2,4 C 4,7 C 6,4 km/h (2 Bft) 98,00 %
24.03.2019 03:06 4,7 C 7,8 C 1,1 C 85 % 1023,5 hPa 0,0 l/m 5,4 km/h (1 Bft) S-SW 198 0 min 0,000 mm 0,0 UV-I 0 W/m 2,4 C 4,7 C 6,4 km/h (2 Bft) 94,00 %
24.03.2019 03:08 4,8 C 7,8 C 1,7 C 85 % 1023,4 hPa 0,0 l/m 5,8 km/h (2 Bft) S-SW 197 0 min 0,000 mm 0,0 UV-I 0 W/m 2,5 C 4,8 C 8,0 km/h (2 Bft) 91,49 %
24.03.2019 03:10 4,9 C 7,8 C 1,7 C 84 % 1023,5 hPa 0,0 l/m 6,0 km/h (2 Bft) S-SW 201 0 min 0,000 mm 0,0 UV-I 0 W/m 2,4 C 4,9 C 8,0 km/h (2 Bft) 100,00 %
24.03.2019 03:12 5,0 C 7,8 C 2,2 C 84 % 1023,5 hPa 0,0 l/m 6,0 km/h (2 Bft) S-SW 207 0 min 0,000 mm 0,0 UV-I 0 W/m 2,5 C 5,0 C 6,4 km/h (2 Bft) 96,00 %
24.03.2019 03:14 5,0 C 7,8 C 2,2 C 83 % 1023,4 hPa 0,0 l/m 4,6 km/h (1 Bft) S-SW 202 0 min 0,000 mm 0,0 UV-I 0 W/m 2,4 C 5,0 C 6,4 km/h (2 Bft) 96,00 %
24.03.2019 03:16 4,8 C 7,8 C 2,2 C 83 % 1023,4 hPa 0,0 l/m 4,4 km/h (1 Bft) S-SW 203 0 min 0,000 mm 0,0 UV-I 0 W/m 2,2 C 4,8 C 6,4 km/h (2 Bft) 97,87 %
24.03.2019 03:18 4,8 C 7,8 C 1,7 C 84 % 1023,4 hPa 0,0 l/m 3,8 km/h (1 Bft) S-SW 195 0 min 0,000 mm 0,0 UV-I 0 W/m 2,3 C 4,8 C 4,8 km/h (1 Bft) 97,87 %
24.03.2019 03:20 4,7 C 7,8 C 1,1 C 84 % 1023,5 hPa 0,0 l/m 0,5 km/h (0 Bft) S-SW 195 0 min 0,000 mm 0,0 UV-I 0 W/m 2,2 C 4,7 C 1,6 km/h (1 Bft) 95,74 %
24.03.2019 03:22 4,7 C 7,8 C 0,6 C 85 % 1023,4 hPa 0,0 l/m 0,6 km/h (0 Bft) S-SW 195 0 min 0,000 mm 0,0 UV-I 0 W/m 2,4 C 4,7 C 1,6 km/h (1 Bft) 97,87 %
24.03.2019 03:24 4,7 C 7,8 C 0,0 C 85 % 1023,5 hPa 0,0 l/m 1,2 km/h (1 Bft) S-SW 195 0 min 0,000 mm 0,0 UV-I 0 W/m 2,4 C 4,7 C 1,6 km/h (1 Bft) 98,00 %
24.03.2019 03:26 4,8 C 7,8 C -0,6 C 85 % 1023,5 hPa 0,0 l/m 1,5 km/h (1 Bft) S-SW 195 0 min 0,000 mm 0,0 UV-I 0 W/m 2,5 C 4,8 C 3,2 km/h (1 Bft) 97,87 %
24.03.2019 03:28 4,9 C 7,8 C -0,6 C 84 % 1023,5 hPa 0,0 l/m 0,3 km/h (0 Bft) S-SW 195 0 min 0,000 mm 0,0 UV-I 0 W/m 2,4 C 4,9 C 1,6 km/h (1 Bft) 97,44 %
24.03.2019 03:30 4,9 C 7,8 C -1,1 C 84 % 1023,5 hPa 0,0 l/m 0,0 km/h (0 Bft) S-SW 195 0 min 0,000 mm 0,0 UV-I 0 W/m 2,4 C 4,9 C 0,0 km/h (0 Bft) 97,87 %
24.03.2019 03:32 4,9 C 7,8 C -1,1 C 84 % 1023,5 hPa 0,0 l/m 0,0 km/h (0 Bft) S-SW 195 0 min 0,000 mm 0,0 UV-I 0 W/m 2,4 C 4,9 C 0,0 km/h (0 Bft) 95,74 %
24.03.2019 03:34 4,9 C 7,8 C -1,1 C 84 % 1023,5 hPa 0,0 l/m 0,0 km/h (0 Bft) S-SW 195 0 min 0,000 mm 0,0 UV-I 0 W/m 2,4 C 4,9 C 0,0 km/h (0 Bft) 96,00 %
24.03.2019 03:36 4,8 C 7,8 C -1,1 C 83 % 1023,4 hPa 0,0 l/m 0,0 km/h (0 Bft) S-SW 195 0 min 0,000 mm 0,0 UV-I 0 W/m 2,2 C 4,8 C 0,0 km/h (0 Bft) 96,00 %
24.03.2019 03:38 4,5 C 7,8 C -1,1 C 83 % 1023,4 hPa 0,0 l/m 0,0 km/h (0 Bft) S-SW 195 0 min 0,000 mm 0,0 UV-I 0 W/m 1,9 C 4,5 C 0,0 km/h (0 Bft) 100,00 %
24.03.2019 03:40 4,2 C 7,8 C -0,6 C 83 % 1023,4 hPa 0,0 l/m 1,0 km/h (0 Bft) S-SW 195 0 min 0,000 mm 0,0 UV-I 0 W/m 1,6 C 4,2 C 3,2 km/h (1 Bft) 100,00 %
24.03.2019 03:42 3,8 C 7,8 C -0,6 C 84 % 1023,4 hPa 0,0 l/m 3,4 km/h (1 Bft) S-SW 194 0 min 0,000 mm 0,0 UV-I 0 W/m 1,4 C 3,8 C 6,4 km/h (2 Bft) 95,74 %
24.03.2019 03:44 3,8 C 7,8 C 0,0 C 86 % 1023,4 hPa 0,0 l/m 5,5 km/h (1 Bft) S 174 0 min 0,000 mm 0,0 UV-I 0 W/m 1,7 C 3,8 C 8,0 km/h (2 Bft) 94,74 %
24.03.2019 03:46 3,8 C 7,8 C 0,6 C 86 % 1023,3 hPa 0,0 l/m 4,4 km/h (1 Bft) S 173 0 min 0,000 mm 0,0 UV-I 0 W/m 1,7 C 3,8 C 4,8 km/h (1 Bft) 95,45 %
24.03.2019 03:48 3,7 C 7,8 C 0,6 C 86 % 1023,3 hPa 0,0 l/m 3,8 km/h (1 Bft) S 173 0 min 0,000 mm 0,0 UV-I 0 W/m 1,6 C 3,7 C 4,8 km/h (1 Bft) 96,23 %
24.03.2019 03:50 3,4 C 7,8 C 0,0 C 86 % 1023,3 hPa 0,0 l/m 4,1 km/h (1 Bft) S 174 0 min 0,000 mm 0,0 UV-I 0 W/m 1,3 C 3,4 C 8,0 km/h (2 Bft) 94,34 %
24.03.2019 03:52 3,2 C 7,8 C 0,0 C 86 % 1023,3 hPa 0,0 l/m 6,0 km/h (2 Bft) S 174 0 min 0,000 mm 0,0 UV-I 0 W/m 1,1 C 3,2 C 8,0 km/h (2 Bft) 95,12 %
24.03.2019 03:54 3,2 C 7,8 C 0,0 C 87 % 1023,3 hPa 0,0 l/m 4,8 km/h (1 Bft) S 174 0 min 0,000 mm 0,0 UV-I 0 W/m 1,2 C 3,2 C 8,0 km/h (2 Bft) 94,00 %
24.03.2019 03:56 3,3 C 7,8 C 0,0 C 89 % 1023,3 hPa 0,0 l/m 5,8 km/h (2 Bft) S 174 0 min 0,000 mm 0,0 UV-I 0 W/m 1,7 C 3,3 C 8,0 km/h (2 Bft) 94,29 %
24.03.2019 03:58 3,5 C 7,8 C 0,6 C 88 % 1023,3 hPa 0,0 l/m 4,1 km/h (1 Bft) S-SO 168 0 min 0,000 mm 0,0 UV-I 0 W/m 1,7 C 3,5 C 6,4 km/h (2 Bft) 94,64 %
24.03.2019 04:00 3,6 C 7,8 C 0,6 C 88 % 1023,4 hPa 0,0 l/m 4,1 km/h (1 Bft) S-SO 168 0 min 0,000 mm 0,0 UV-I 0 W/m 1,8 C 3,6 C 6,4 km/h (2 Bft) 95,12 %
24.03.2019 04:02 3,7 C 7,8 C 0,6 C 87 % 1023,4 hPa 0,0 l/m 3,2 km/h (1 Bft) S-SO 168 0 min 0,000 mm 0,0 UV-I 0 W/m 1,7 C 3,7 C 3,2 km/h (1 Bft) 100,00 %
24.03.2019 04:04 3,6 C 7,8 C 0,0 C 87 % 1023,4 hPa 0,0 l/m 2,6 km/h (1 Bft) S-SO 168 0 min 0,000 mm 0,0 UV-I 0 W/m 1,6 C 3,6 C 3,2 km/h (1 Bft) 94,34 %
24.03.2019 04:06 3,7 C 7,8 C -0,6 C 88 % 1023,4 hPa 0,0 l/m 0,6 km/h (0 Bft) S-SO 168 0 min 0,000 mm 0,0 UV-I 0 W/m 1,9 C 3,7 C 3,2 km/h (1 Bft) 97,44 %
24.03.2019 04:08 3,3 C 7,8 C -0,6 C 86 % 1023,4 hPa 0,0 l/m 0,0 km/h (0 Bft) S-SO 168 0 min 0,000 mm 0,0 UV-I 0 W/m 1,2 C 3,3 C 0,0 km/h (0 Bft) 98,11 %
24.03.2019 04:10 2,9 C 7,8 C -0,6 C 86 % 1023,4 hPa 0,0 l/m 0,0 km/h (0 Bft) S-SO 168 0 min 0,000 mm 0,0 UV-I 0 W/m 0,8 C 2,9 C 0,0 km/h (0 Bft) 95,92 %
24.03.2019 04:12 2,7 C 7,8 C -0,6 C 87 % 1023,4 hPa 0,0 l/m 0,0 km/h (0 Bft) S-SO 168 0 min 0,000 mm 0,0 UV-I 0 W/m 0,8 C 2,7 C 0,0 km/h (0 Bft) 97,92 %
24.03.2019 04:14 2,7 C 7,8 C -0,6 C 89 % 1023,4 hPa 0,0 l/m 0,0 km/h (0 Bft) S-SO 168 0 min 0,000 mm 0,0 UV-I 0 W/m 1,1 C 2,7 C 0,0 km/h (0 Bft) 97,56 %
24.03.2019 04:16 2,8 C 7,8 C -1,1 C 89 % 1023,4 hPa 0,0 l/m 0,0 km/h (0 Bft) S-SO 168 0 min 0,000 mm 0,0 UV-I 0 W/m 1,2 C 2,8 C 0,0 km/h (0 Bft) 96,23 %
24.03.2019 04:18 2,7 C 7,8 C -0,6 C 89 % 1023,4 hPa 0,0 l/m 0,0 km/h (0 Bft) S-SO 168 0 min 0,000 mm 0,0 UV-I 0 W/m 1,1 C 2,7 C 0,0 km/h (0 Bft) 98,00 %
24.03.2019 04:20 2,8 C 7,8 C -0,6 C 89 % 1023,4 hPa 0,0 l/m 0,0 km/h (0 Bft) S-SO 168 0 min 0,000 mm 0,0 UV-I 0 W/m 1,2 C 2,8 C 0,0 km/h (0 Bft) 97,37 %
24.03.2019 04:22 2,8 C 7,8 C -0,6 C 89 % 1023,3 hPa 0,0 l/m 0,0 km/h (0 Bft) S-SO 168 0 min 0,000 mm 0,0 UV-I 0 W/m 1,2 C 2,8 C 0,0 km/h (0 Bft) 97,37 %
24.03.2019 04:24 2,8 C 7,8 C -0,6 C 89 % 1023,3 hPa 0,0 l/m 0,0 km/h (0 Bft) S-SO 168 0 min 0,000 mm 0,0 UV-I 0 W/m 1,2 C 2,8 C 0,0 km/h (0 Bft) 100,00 %
24.03.2019 04:26 2,8 C 7,8 C -1,1 C 89 % 1023,3 hPa 0,0 l/m 0,0 km/h (0 Bft) S-SO 168 0 min 0,000 mm 0,0 UV-I 0 W/m 1,2 C 2,8 C 0,0 km/h (0 Bft) 97,87 %
24.03.2019 04:28 2,9 C 7,8 C -1,7 C 89 % 1023,3 hPa 0,0 l/m 0,0 km/h (0 Bft) S-SO 168 0 min 0,000 mm 0,0 UV-I 0 W/m 1,3 C 2,9 C 0,0 km/h (0 Bft) 100,00 %
24.03.2019 04:30 2,9 C 7,8 C -1,7 C 88 % 1023,4 hPa 0,0 l/m 0,0 km/h (0 Bft) S-SO 168 0 min 0,000 mm 0,0 UV-I 0 W/m 1,1 C 2,9 C 0,0 km/h (0 Bft) 100,00 %
24.03.2019 04:32 3,0 C 7,8 C -2,2 C 88 % 1023,3 hPa 0,0 l/m 0,0 km/h (0 Bft) S-SO 168 0 min 0,000 mm 0,0 UV-I 0 W/m 1,2 C 3,0 C 0,0 km/h (0 Bft) 100,00 %
24.03.2019 04:34 3,1 C 7,8 C -2,2 C 88 % 1023,3 hPa 0,0 l/m 0,0 km/h (0 Bft) S-SO 168 0 min 0,000 mm 0,0 UV-I 0 W/m 1,3 C 3,1 C 0,0 km/h (0 Bft) 100,00 %
24.03.2019 04:36 3,1 C 7,8 C -2,2 C 88 % 1023,3 hPa 0,0 l/m 0,0 km/h (0 Bft) S-SO 168 0 min 0,000 mm 0,0 UV-I 0 W/m 1,3 C 3,1 C 0,0 km/h (0 Bft) 100,00 %
24.03.2019 04:38 3,2 C 7,8 C -2,2 C 88 % 1023,4 hPa 0,0 l/m 0,0 km/h (0 Bft) S-SO 168 0 min 0,000 mm 0,0 UV-I 0 W/m 1,4 C 3,2 C 0,0 km/h (0 Bft) 100,00 %
24.03.2019 04:40 3,1 C 7,8 C -2,2 C 88 % 1023,4 hPa 0,0 l/m 0,0 km/h (0 Bft) S-SO 168 0 min 0,000 mm 0,0 UV-I 0 W/m 1,3 C 3,1 C 0,0 km/h (0 Bft) 100,00 %
24.03.2019 04:42 2,8 C 7,8 C -1,7 C 88 % 1023,4 hPa 0,0 l/m 0,0 km/h (0 Bft) S-SO 168 0 min 0,000 mm 0,0 UV-I 0 W/m 1,0 C 2,8 C 0,0 km/h (0 Bft) 93,62 %
24.03.2019 04:44 2,6 C 7,8 C -1,7 C 88 % 1023,4 hPa 0,0 l/m 0,0 km/h (0 Bft) S-SO 168 0 min 0,000 mm 0,0 UV-I 0 W/m 0,8 C 2,6 C 0,0 km/h (0 Bft) 100,00 %
24.03.2019 04:46 2,3 C 7,8 C -1,7 C 89 % 1023,4 hPa 0,0 l/m 2,8 km/h (1 Bft) S-SO 168 0 min 0,000 mm 0,0 UV-I 0 W/m 0,7 C 2,3 C 3,2 km/h (1 Bft) 100,00 %
24.03.2019 04:48 2,2 C 7,8 C -1,7 C 89 % 1023,3 hPa 0,0 l/m 4,4 km/h (1 Bft) S-SO 168 0 min 0,000 mm 0,0 UV-I 0 W/m 0,6 C 2,2 C 6,4 km/h (2 Bft) 100,00 %
24.03.2019 04:50 2,3 C 7,8 C -1,1 C 90 % 1023,3 hPa 0,0 l/m 5,6 km/h (1 Bft) S-SO 168 0 min 0,000 mm 0,0 UV-I 0 W/m 0,8 C 2,3 C 8,0 km/h (2 Bft) 100,00 %
24.03.2019 04:52 2,4 C 7,8 C -0,6 C 91 % 1023,3 hPa 0,0 l/m 6,4 km/h (2 Bft) S-SO 168 0 min 0,000 mm 0,0 UV-I 0 W/m 1,1 C 2,4 C 8,0 km/h (2 Bft) 100,00 %
24.03.2019 04:54 2,3 C 7,8 C -0,6 C 90 % 1023,3 hPa 0,0 l/m 5,4 km/h (1 Bft) S-SO 168 0 min 0,000 mm 0,0 UV-I 0 W/m 0,8 C 2,3 C 6,4 km/h (2 Bft) 100,00 %
24.03.2019 04:56 2,3 C 7,8 C -0,6 C 90 % 1023,3 hPa 0,0 l/m 3,0 km/h (1 Bft) S-SO 168 0 min 0,000 mm 0,0 UV-I 0 W/m 0,8 C 2,3 C 3,2 km/h (1 Bft) 97,37 %
24.03.2019 04:58 2,5 C 7,8 C -0,6 C 91 % 1023,3 hPa 0,0 l/m 3,5 km/h (1 Bft) S-SO 168 0 min 0,000 mm 0,0 UV-I 0 W/m 1,2 C 2,5 C 6,4 km/h (2 Bft) 94,74 %
24.03.2019 05:00 2,5 C 7,8 C -1,1 C 90 % 1023,3 hPa 0,0 l/m 3,6 km/h (1 Bft) S-SO 168 0 min 0,000 mm 0,0 UV-I 0 W/m 1,0 C 2,5 C 6,4 km/h (2 Bft) 96,77 %
24.03.2019 05:02 2,3 C 7,8 C -1,1 C 90 % 1023,4 hPa 0,0 l/m 2,5 km/h (1 Bft) S-SO 168 0 min 0,000 mm 0,0 UV-I 0 W/m 0,8 C 2,3 C 3,2 km/h (1 Bft) 97,56 %
24.03.2019 05:04 2,4 C 7,8 C -1,7 C 90 % 1023,4 hPa 0,0 l/m 3,7 km/h (1 Bft) S-SO 168 0 min 0,000 mm 0,0 UV-I 0 W/m 0,9 C 2,4 C 6,4 km/h (2 Bft) 98,00 %
24.03.2019 05:06 2,4 C 7,8 C -1,1 C 90 % 1023,4 hPa 0,0 l/m 5,5 km/h (1 Bft) S 169 0 min 0,000 mm 0,0 UV-I 0 W/m 0,9 C 2,4 C 6,4 km/h (2 Bft) 97,73 %
24.03.2019 05:08 2,4 C 7,8 C -1,1 C 90 % 1023,4 hPa 0,0 l/m 5,2 km/h (1 Bft) S 169 0 min 0,000 mm 0,0 UV-I 0 W/m 0,9 C 2,4 C 6,4 km/h (2 Bft) 96,23 %
24.03.2019 05:10 2,3 C 7,8 C -1,1 C 90 % 1023,4 hPa 0,0 l/m 4,3 km/h (1 Bft) S 169 0 min 0,000 mm 0,0 UV-I 0 W/m 0,8 C 2,3 C 6,4 km/h (2 Bft) 97,87 %
24.03.2019 05:12 2,2 C 7,8 C -1,1 C 90 % 1023,4 hPa 0,0 l/m 2,9 km/h (1 Bft) S 169 0 min 0,000 mm 0,0 UV-I 0 W/m 0,7 C 2,2 C 6,4 km/h (2 Bft) 100,00 %
24.03.2019 05:14 2,2 C 7,8 C -1,7 C 90 % 1023,4 hPa 0,0 l/m 3,4 km/h (1 Bft) S 169 0 min 0,000 mm 0,0 UV-I 0 W/m 0,7 C 2,2 C 6,4 km/h (2 Bft) 98,31 %
24.03.2019 05:16 2,1 C 7,8 C -1,7 C 90 % 1023,4 hPa 0,0 l/m 3,3 km/h (1 Bft) S 169 0 min 0,000 mm 0,0 UV-I 0 W/m 0,6 C 2,1 C 6,4 km/h (2 Bft) 100,00 %
24.03.2019 05:18 2,3 C 7,8 C -1,7 C 91 % 1023,3 hPa 0,0 l/m 4,6 km/h (1 Bft) S 188 0 min 0,000 mm 0,0 UV-I 0 W/m 1,0 C 2,3 C 6,4 km/h (2 Bft) 97,14 %
24.03.2019 05:20 2,3 C 7,8 C -1,1 C 91 % 1023,4 hPa 0,0 l/m 5,1 km/h (1 Bft) S 188 0 min 0,000 mm 0,0 UV-I 0 W/m 1,0 C 2,3 C 6,4 km/h (2 Bft) 100,00 %
24.03.2019 05:22 2,3 C 7,8 C -1,1 C 91 % 1023,3 hPa 0,0 l/m 4,6 km/h (1 Bft) S 188 0 min 0,000 mm 0,0 UV-I 0 W/m 1,0 C 2,3 C 4,8 km/h (1 Bft) 97,22 %
24.03.2019 05:24 2,1 C 7,8 C -1,1 C 90 % 1023,4 hPa 0,0 l/m 3,6 km/h (1 Bft) S 188 0 min 0,000 mm 0,0 UV-I 0 W/m 0,6 C 2,1 C 4,8 km/h (1 Bft) 100,00 %
24.03.2019 05:26 1,9 C 7,8 C -1,7 C 90 % 1023,4 hPa 0,0 l/m 3,6 km/h (1 Bft) S 188 0 min 0,000 mm 0,0 UV-I 0 W/m 0,4 C 1,9 C 4,8 km/h (1 Bft) 100,00 %
24.03.2019 05:28 1,9 C 7,8 C -1,7 C 90 % 1023,3 hPa 0,0 l/m 4,3 km/h (1 Bft) S 188 0 min 0,000 mm 0,0 UV-I 0 W/m 0,4 C 1,9 C 4,8 km/h (1 Bft) 98,18 %
24.03.2019 05:30 1,8 C 7,8 C -1,1 C 91 % 1023,3 hPa 0,0 l/m 4,5 km/h (1 Bft) S 188 0 min 0,000 mm 0,0 UV-I 0 W/m 0,5 C 1,8 C 6,4 km/h (2 Bft) 100,00 %
24.03.2019 05:32 1,8 C 7,8 C -1,7 C 91 % 1023,3 hPa 0,0 l/m 3,4 km/h (1 Bft) S 188 0 min 0,000 mm 0,0 UV-I 0 W/m 0,5 C 1,8 C 4,8 km/h (1 Bft) 100,00 %
24.03.2019 05:34 1,7 C 7,8 C -1,7 C 91 % 1023,3 hPa 0,0 l/m 3,6 km/h (1 Bft) S 188 0 min 0,000 mm 0,0 UV-I 0 W/m 0,4 C 1,7 C 4,8 km/h (1 Bft) 100,00 %
24.03.2019 05:36 1,9 C 7,8 C -2,2 C 92 % 1023,3 hPa 0,0 l/m 2,8 km/h (1 Bft) S 188 0 min 0,000 mm 0,0 UV-I 0 W/m 0,7 C 1,9 C 3,2 km/h (1 Bft) 100,00 %
24.03.2019 05:38 2,0 C 7,8 C -2,2 C 92 % 1023,3 hPa 0,0 l/m 2,3 km/h (1 Bft) S 188 0 min 0,000 mm 0,0 UV-I 0 W/m 0,8 C 2,0 C 3,2 km/h (1 Bft) 100,00 %
24.03.2019 05:40 2,1 C 7,8 C -2,2 C 92 % 1023,3 hPa 0,0 l/m 3,1 km/h (1 Bft) S 188 0 min 0,000 mm 0,0 UV-I 0 W/m 0,9 C 2,1 C 4,8 km/h (1 Bft) 100,00 %
24.03.2019 05:42 2,1 C 7,8 C -2,8 C 92 % 1023,3 hPa 0,0 l/m 3,8 km/h (1 Bft) S 188 0 min 0,000 mm 0,0 UV-I 0 W/m 0,9 C 2,1 C 4,8 km/h (1 Bft) 100,00 %
24.03.2019 05:44 1,9 C 7,8 C -2,8 C 91 % 1023,3 hPa 0,0 l/m 3,9 km/h (1 Bft) S 188 0 min 0,000 mm 0,0 UV-I 0 W/m 0,6 C 1,9 C 4,8 km/h (1 Bft) 100,00 %
24.03.2019 05:46 1,8 C 7,8 C -2,2 C 91 % 1023,3 hPa 0,0 l/m 3,0 km/h (1 Bft) S 188 0 min 0,000 mm 0,0 UV-I 0 W/m 0,5 C 1,8 C 4,8 km/h (1 Bft) 97,87 %
24.03.2019 05:48 1,6 C 7,8 C -2,2 C 91 % 1023,4 hPa 0,0 l/m 1,3 km/h (1 Bft) S 188 0 min 0,000 mm 0,0 UV-I 4 W/m 0,3 C 1,6 C 1,6 km/h (1 Bft) 100,00 %
24.03.2019 05:50 1,5 C 7,8 C -2,2 C 91 % 1023,4 hPa 0,0 l/m 1,6 km/h (1 Bft) S 188 0 min 0,000 mm 0,0 UV-I 5 W/m 0,2 C 1,5 C 3,2 km/h (1 Bft) 100,00 %
24.03.2019 05:52 1,6 C 7,8 C -2,2 C 92 % 1023,3 hPa 0,0 l/m 2,0 km/h (1 Bft) S 188 0 min 0,000 mm 0,0 UV-I 5 W/m 0,4 C 1,6 C 3,2 km/h (1 Bft) 100,00 %
24.03.2019 05:54 1,8 C 7,8 C -2,2 C 92 % 1023,3 hPa 0,0 l/m 0,7 km/h (0 Bft) S 188 0 min 0,000 mm 0,0 UV-I 6 W/m 0,6 C 1,8 C 1,6 km/h (1 Bft) 100,00 %
24.03.2019 05:56 1,9 C 7,8 C -2,2 C 92 % 1023,3 hPa 0,0 l/m 1,5 km/h (1 Bft) S 188 0 min 0,000 mm 0,0 UV-I 7 W/m 0,7 C 1,9 C 3,2 km/h (1 Bft) 100,00 %
24.03.2019 05:58 1,8 C 7,8 C -1,7 C 92 % 1023,3 hPa 0,0 l/m 1,8 km/h (1 Bft) S 188 0 min 0,000 mm 0,0 UV-I 7 W/m 0,6 C 1,8 C 3,2 km/h (1 Bft) 98,00 %
24.03.2019 06:00 1,7 C 7,8 C -2,2 C 91 % 1023,3 hPa 0,0 l/m 0,6 km/h (0 Bft) S 188 0 min 0,000 mm 0,0 UV-I 8 W/m 0,4 C 1,7 C 1,6 km/h (1 Bft) 100,00 %
24.03.2019 06:02 1,7 C 7,8 C -2,2 C 91 % 1023,3 hPa 0,0 l/m 0,1 km/h (0 Bft) S 188 0 min 0,000 mm 0,0 UV-I 9 W/m 0,4 C 1,7 C 1,6 km/h (1 Bft) 100,00 %
24.03.2019 06:04 1,6 C 7,8 C -2,8 C 91 % 1023,3 hPa 0,0 l/m 1,4 km/h (1 Bft) S 188 0 min 0,000 mm 0,0 UV-I 11 W/m 0,3 C 1,6 C 3,2 km/h (1 Bft) 98,00 %
24.03.2019 06:06 1,7 C 7,8 C -2,8 C 92 % 1023,3 hPa 0,0 l/m 3,0 km/h (1 Bft) S 188 0 min 0,000 mm 0,0 UV-I 11 W/m 0,5 C 1,7 C 3,2 km/h (1 Bft) 97,44 %
24.03.2019 06:08 1,7 C 7,8 C -2,8 C 91 % 1023,3 hPa 0,0 l/m 1,9 km/h (1 Bft) S 188 0 min 0,000 mm 0,0 UV-I 12 W/m 0,4 C 1,7 C 3,2 km/h (1 Bft) 98,00 %
24.03.2019 06:10 1,7 C 7,8 C -2,8 C 91 % 1023,3 hPa 0,0 l/m 1,5 km/h (1 Bft) S 188 2 min 0,000 mm 0,0 UV-I 15 W/m 0,4 C 1,7 C 3,2 km/h (1 Bft) 98,00 %
24.03.2019 06:12 1,7 C 7,8 C -2,8 C 91 % 1023,4 hPa 0,0 l/m 2,8 km/h (1 Bft) S 188 2 min 0,000 mm 0,0 UV-I 17 W/m 0,4 C 1,7 C 3,2 km/h (1 Bft) 97,87 %
24.03.2019 06:14 1,7 C 7,8 C -2,8 C 92 % 1023,4 hPa 0,0 l/m 2,7 km/h (1 Bft) S 188 2 min 0,000 mm 0,0 UV-I 19 W/m 0,5 C 1,7 C 3,2 km/h (1 Bft) 100,00 %
24.03.2019 06:16 1,6 C 7,8 C -2,8 C 91 % 1023,4 hPa 0,0 l/m 1,0 km/h (0 Bft) S 188 2 min 0,000 mm 0,0 UV-I 22 W/m 0,3 C 1,6 C 3,2 km/h (1 Bft) 93,94 %
24.03.2019 06:18 1,7 C 7,8 C -2,8 C 92 % 1023,4 hPa 0,0 l/m 1,5 km/h (1 Bft) S 188 2 min 0,000 mm 0,0 UV-I 25 W/m 0,5 C 1,7 C 3,2 km/h (1 Bft) 95,74 %
24.03.2019 06:20 1,8 C 7,8 C -2,2 C 92 % 1023,4 hPa 0,0 l/m 1,8 km/h (1 Bft) S 188 2 min 0,000 mm 0,0 UV-I 28 W/m 0,6 C 1,8 C 3,2 km/h (1 Bft) 92,86 %
24.03.2019 06:22 1,9 C 7,8 C -2,2 C 92 % 1023,4 hPa 0,0 l/m 2,6 km/h (1 Bft) S 188 2 min 0,000 mm 0,0 UV-I 32 W/m 0,7 C 1,9 C 3,2 km/h (1 Bft) 94,74 %
24.03.2019 06:24 1,9 C 7,8 C -1,7 C 92 % 1023,4 hPa 0,0 l/m 2,0 km/h (1 Bft) SW 236 2 min 0,000 mm 0,0 UV-I 36 W/m 0,7 C 1,9 C 3,2 km/h (1 Bft) 91,49 %
24.03.2019 06:26 1,8 C 7,8 C -1,7 C 91 % 1023,4 hPa 0,0 l/m 2,7 km/h (1 Bft) SW 233 2 min 0,000 mm 0,0 UV-I 40 W/m 0,5 C 1,8 C 3,2 km/h (1 Bft) 95,74 %
24.03.2019 06:28 1,5 C 7,8 C -1,7 C 90 % 1023,4 hPa 0,0 l/m 2,5 km/h (1 Bft) SW 229 2 min 0,000 mm 0,0 UV-I 44 W/m 0,0 C 1,5 C 3,2 km/h (1 Bft) 96,00 %
24.03.2019 06:30 1,5 C 7,8 C -1,7 C 91 % 1023,4 hPa 0,0 l/m 2,0 km/h (1 Bft) SW 226 2 min 0,000 mm 0,0 UV-I 47 W/m 0,2 C 1,5 C 3,2 km/h (1 Bft) 94,00 %
24.03.2019 06:32 1,6 C 7,8 C -1,7 C 92 % 1023,4 hPa 0,0 l/m 1,8 km/h (1 Bft) SW 226 2 min 0,000 mm 0,0 UV-I 51 W/m 0,4 C 1,6 C 3,2 km/h (1 Bft) 93,62 %
24.03.2019 06:34 1,7 C 7,8 C -1,7 C 92 % 1023,4 hPa 0,0 l/m 1,8 km/h (1 Bft) SW 226 2 min 0,000 mm 0,0 UV-I 55 W/m 0,5 C 1,7 C 3,2 km/h (1 Bft) 95,12 %
24.03.2019 06:36 1,9 C 7,8 C -1,7 C 92 % 1023,4 hPa 0,0 l/m 1,9 km/h (1 Bft) SW 226 2 min 0,000 mm 0,0 UV-I 58 W/m 0,7 C 1,9 C 3,2 km/h (1 Bft) 95,45 %
24.03.2019 06:38 2,1 C 7,8 C -1,7 C 92 % 1023,4 hPa 0,0 l/m 2,0 km/h (1 Bft) SW 226 2 min 0,000 mm 0,0 UV-I 65 W/m 0,9 C 2,1 C 3,2 km/h (1 Bft) 96,23 %
24.03.2019 06:40 2,1 C 7,8 C -1,1 C 92 % 1023,4 hPa 0,0 l/m 2,3 km/h (1 Bft) SW 226 2 min 0,000 mm 0,0 UV-I 69 W/m 0,9 C 2,1 C 3,2 km/h (1 Bft) 95,74 %
24.03.2019 06:42 2,1 C 7,8 C -0,6 C 92 % 1023,4 hPa 0,0 l/m 2,8 km/h (1 Bft) SW 226 2 min 0,000 mm 0,0 UV-I 72 W/m 0,9 C 2,1 C 3,2 km/h (1 Bft) 93,62 %
24.03.2019 06:44 2,1 C 7,8 C 0,0 C 91 % 1023,4 hPa 0,0 l/m 2,5 km/h (1 Bft) SW 226 2 min 0,000 mm 0,0 UV-I 76 W/m 0,8 C 2,1 C 3,2 km/h (1 Bft) 95,24 %
24.03.2019 06:46 2,1 C 7,8 C 0,0 C 91 % 1023,4 hPa 0,0 l/m 2,0 km/h (1 Bft) SW 226 2 min 0,000 mm 0,0 UV-I 80 W/m 0,8 C 2,1 C 3,2 km/h (1 Bft) 93,62 %
24.03.2019 06:48 2,0 C 7,8 C 0,0 C 91 % 1023,3 hPa 0,0 l/m 2,2 km/h (1 Bft) SW 226 2 min 0,000 mm 0,0 UV-I 85 W/m 0,7 C 2,0 C 3,2 km/h (1 Bft) 92,00 %
24.03.2019 06:50 1,9 C 7,8 C 0,0 C 91 % 1023,3 hPa 0,0 l/m 2,1 km/h (1 Bft) SW 226 2 min 0,000 mm 0,0 UV-I 89 W/m 0,6 C 1,9 C 3,2 km/h (1 Bft) 92,45 %
24.03.2019 06:52 1,9 C 7,8 C 0,0 C 91 % 1023,3 hPa 0,0 l/m 2,2 km/h (1 Bft) SW 226 2 min 0,000 mm 0,0 UV-I 93 W/m 0,6 C 1,9 C 3,2 km/h (1 Bft) 95,12 %
24.03.2019 06:54 2,1 C 7,8 C 0,0 C 92 % 1023,3 hPa 0,0 l/m 2,7 km/h (1 Bft) SW 226 2 min 0,000 mm 0,0 UV-I 97 W/m 0,9 C 2,1 C 3,2 km/h (1 Bft) 95,45 %
24.03.2019 06:56 2,1 C 7,8 C 0,0 C 92 % 1023,3 hPa 0,0 l/m 3,5 km/h (1 Bft) SW 226 2 min 0,000 mm 0,0 UV-I 102 W/m 0,9 C 2,1 C 4,8 km/h (1 Bft) 94,00 %
24.03.2019 06:58 2,2 C 7,8 C 0,0 C 92 % 1023,4 hPa 0,0 l/m 3,5 km/h (1 Bft) SW 226 2 min 0,000 mm 0,0 UV-I 105 W/m 1,0 C 2,2 C 4,8 km/h (1 Bft) 98,00 %
24.03.2019 07:00 2,3 C 7,8 C 0,6 C 92 % 1023,4 hPa 0,0 l/m 2,9 km/h (1 Bft) SW 226 2 min 0,025 mm 0,0 UV-I 109 W/m 1,1 C 2,3 C 3,2 km/h (1 Bft) 95,74 %
24.03.2019 07:02 2,6 C 7,8 C 0,6 C 92 % 1023,4 hPa 0,0 l/m 2,0 km/h (1 Bft) SW 226 2 min 0,000 mm 0,0 UV-I 115 W/m 1,4 C 2,6 C 3,2 km/h (1 Bft) 95,12 %
24.03.2019 07:04 2,8 C 7,8 C 0,6 C 92 % 1023,4 hPa 0,0 l/m 0,9 km/h (0 Bft) SW 226 2 min 0,000 mm 0,0 UV-I 120 W/m 1,6 C 2,8 C 1,6 km/h (1 Bft) 92,45 %
24.03.2019 07:06 3,1 C 7,8 C 0,6 C 92 % 1023,4 hPa 0,0 l/m 1,1 km/h (1 Bft) SW 226 2 min 0,000 mm 0,0 UV-I 125 W/m 1,9 C 3,1 C 1,6 km/h (1 Bft) 100,00 %
24.03.2019 07:08 3,2 C 7,8 C 1,1 C 92 % 1023,4 hPa 0,0 l/m 2,0 km/h (1 Bft) SW 226 2 min 0,000 mm 0,0 UV-I 130 W/m 2,0 C 3,2 C 3,2 km/h (1 Bft) 90,57 %
24.03.2019 07:10 3,3 C 7,8 C 1,1 C 91 % 1023,3 hPa 0,0 l/m 2,5 km/h (1 Bft) SW 226 2 min 0,000 mm 0,0 UV-I 135 W/m 2,0 C 3,3 C 3,2 km/h (1 Bft) 95,74 %
24.03.2019 07:12 3,4 C 7,8 C 1,7 C 90 % 1023,3 hPa 0,0 l/m 2,2 km/h (1 Bft) SW 226 2 min 0,000 mm 0,0 UV-I 139 W/m 1,9 C 3,4 C 3,2 km/h (1 Bft) 95,74 %
24.03.2019 07:14 3,4 C 7,8 C 2,8 C 90 % 1023,3 hPa 0,0 l/m 2,2 km/h (1 Bft) SW 226 2 min 0,000 mm 0,0 UV-I 146 W/m 1,9 C 3,4 C 3,2 km/h (1 Bft) 95,74 %
24.03.2019 07:16 3,7 C 7,8 C 2,8 C 90 % 1023,3 hPa 0,0 l/m 1,6 km/h (1 Bft) SW 226 2 min 0,000 mm 0,0 UV-I 150 W/m 2,2 C 3,7 C 3,2 km/h (1 Bft) 95,74 %
24.03.2019 07:18 3,9 C 7,8 C 3,3 C 90 % 1023,3 hPa 0,0 l/m 1,9 km/h (1 Bft) SW 226 2 min 0,000 mm 0,0 UV-I 157 W/m 2,4 C 3,9 C 3,2 km/h (1 Bft) 95,24 %
24.03.2019 07:20 4,1 C 7,8 C 3,9 C 89 % 1023,3 hPa 0,0 l/m 2,1 km/h (1 Bft) SW 226 2 min 0,000 mm 0,0 UV-I 162 W/m 2,5 C 4,1 C 3,2 km/h (1 Bft) 98,18 %
24.03.2019 07:22 4,1 C 7,8 C 5,0 C 88 % 1023,3 hPa 0,0 l/m 1,9 km/h (1 Bft) SW 226 2 min 0,000 mm 0,0 UV-I 168 W/m 2,3 C 4,1 C 3,2 km/h (1 Bft) 95,24 %
24.03.2019 07:24 4,2 C 7,8 C 5,6 C 88 % 1023,3 hPa 0,0 l/m 1,0 km/h (0 Bft) SW 226 2 min 0,000 mm 0,0 UV-I 174 W/m 2,4 C 4,2 C 3,2 km/h (1 Bft) 96,00 %
24.03.2019 07:26 4,4 C 7,8 C 5,6 C 88 % 1023,3 hPa 0,0 l/m 0,4 km/h (0 Bft) SW 226 2 min 0,000 mm 0,0 UV-I 179 W/m 2,6 C 4,4 C 1,6 km/h (1 Bft) 97,87 %
24.03.2019 07:28 4,6 C 7,8 C 6,1 C 88 % 1023,3 hPa 0,0 l/m 0,0 km/h (0 Bft) SW 226 2 min 0,000 mm 0,0 UV-I 186 W/m 2,8 C 4,6 C 0,0 km/h (0 Bft) 98,00 %
24.03.2019 07:30 4,6 C 7,8 C 6,1 C 87 % 1023,3 hPa 0,0 l/m 1,2 km/h (1 Bft) SW 226 2 min 0,000 mm 0,0 UV-I 192 W/m 2,6 C 4,6 C 3,2 km/h (1 Bft) 97,87 %
24.03.2019 07:32 4,6 C 7,8 C 6,1 C 86 % 1023,3 hPa 0,0 l/m 1,7 km/h (1 Bft) SW 226 2 min 0,000 mm 0,0 UV-I 197 W/m 2,5 C 4,6 C 3,2 km/h (1 Bft) 100,00 %
24.03.2019 07:34 4,7 C 7,8 C 6,1 C 86 % 1023,2 hPa 0,0 l/m 0,6 km/h (0 Bft) SW 226 2 min 0,000 mm 0,0 UV-I 203 W/m 2,6 C 4,7 C 1,6 km/h (1 Bft) 100,00 %
24.03.2019 07:36 4,7 C 7,8 C 6,7 C 86 % 1023,2 hPa 0,0 l/m 0,0 km/h (0 Bft) SW 226 2 min 0,000 mm 0,0 UV-I 209 W/m 2,6 C 4,7 C 1,6 km/h (1 Bft) 96,00 %
24.03.2019 07:38 4,9 C 7,8 C 6,1 C 87 % 1023,2 hPa 0,0 l/m 0,2 km/h (0 Bft) SW 226 2 min 0,000 mm 0,0 UV-I 216 W/m 2,9 C 4,9 C 1,6 km/h (1 Bft) 100,00 %
24.03.2019 07:40 5,3 C 7,8 C 6,1 C 86 % 1023,2 hPa 0,0 l/m 0,0 km/h (0 Bft) SW 226 2 min 0,000 mm 0,0 UV-I 220 W/m 3,2 C 5,3 C 1,6 km/h (1 Bft) 100,00 %
24.03.2019 07:42 5,6 C 7,8 C 6,1 C 85 % 1023,2 hPa 0,0 l/m 0,0 km/h (0 Bft) SW 226 2 min 0,000 mm 0,0 UV-I 223 W/m 3,3 C 5,6 C 0,0 km/h (0 Bft) 100,00 %
24.03.2019 07:44 5,8 C 7,8 C 6,1 C 83 % 1023,2 hPa 0,0 l/m 0,4 km/h (0 Bft) SW 226 2 min 0,000 mm 0,0 UV-I 225 W/m 3,1 C 5,8 C 1,6 km/h (1 Bft) 100,00 %
24.03.2019 07:46 6,0 C 7,8 C 6,7 C 84 % 1023,1 hPa 0,0 l/m 1,0 km/h (0 Bft) SW 226 2 min 0,000 mm 0,2 UV-I 235 W/m 3,5 C 6,0 C 1,6 km/h (1 Bft) 98,00 %
24.03.2019 07:48 6,0 C 7,8 C 6,7 C 83 % 1023,1 hPa 0,0 l/m 1,0 km/h (0 Bft) SW 226 2 min 0,000 mm 0,5 UV-I 242 W/m 3,3 C 6,0 C 1,6 km/h (1 Bft) 100,00 %
24.03.2019 07:50 6,1 C 7,8 C 7,2 C 82 % 1023,1 hPa 0,0 l/m 2,4 km/h (1 Bft) SW 225 2 min 0,000 mm 0,5 UV-I 249 W/m 3,3 C 6,1 C 3,2 km/h (1 Bft) 100,00 %
24.03.2019 07:52 6,1 C 7,8 C 7,2 C 83 % 1023,1 hPa 0,0 l/m 3,0 km/h (1 Bft) SW 225 2 min 0,000 mm 0,5 UV-I 255 W/m 3,4 C 6,1 C 4,8 km/h (1 Bft) 100,00 %
24.03.2019 07:54 6,2 C 7,8 C 7,2 C 83 % 1023,1 hPa 0,0 l/m 3,3 km/h (1 Bft) SW 225 2 min 0,000 mm 0,5 UV-I 260 W/m 3,5 C 6,2 C 6,4 km/h (2 Bft) 100,00 %
24.03.2019 07:56 6,3 C 7,8 C 7,8 C 82 % 1023,1 hPa 0,0 l/m 3,6 km/h (1 Bft) SW 225 2 min 0,000 mm 0,5 UV-I 265 W/m 3,5 C 6,3 C 4,8 km/h (1 Bft) 100,00 %
24.03.2019 07:58 6,4 C 7,8 C 7,8 C 81 % 1023,2 hPa 0,0 l/m 2,9 km/h (1 Bft) SW 225 2 min 0,000 mm 0,5 UV-I 271 W/m 3,4 C 6,4 C 4,8 km/h (1 Bft) 98,11 %
24.03.2019 08:00 6,6 C 7,8 C 7,8 C 80 % 1023,1 hPa 0,0 l/m 3,5 km/h (1 Bft) SW 224 2 min 0,000 mm 0,6 UV-I 277 W/m 3,4 C 6,6 C 4,8 km/h (1 Bft) 97,44 %
24.03.2019 08:02 6,7 C 7,8 C 7,8 C 79 % 1023,1 hPa 0,0 l/m 3,0 km/h (1 Bft) SW 224 2 min 0,076 mm 0,6 UV-I 281 W/m 3,3 C 6,7 C 4,8 km/h (1 Bft) 96,23 %
24.03.2019 08:04 6,8 C 7,8 C 8,3 C 78 % 1023,1 hPa 0,0 l/m 3,1 km/h (1 Bft) SW 224 2 min 0,000 mm 0,6 UV-I 286 W/m 3,2 C 6,8 C 4,8 km/h (1 Bft) 98,00 %
24.03.2019 08:06 6,8 C 7,8 C 8,3 C 78 % 1023,1 hPa 0,0 l/m 3,1 km/h (1 Bft) SW 224 2 min 0,000 mm 0,5 UV-I 293 W/m 3,2 C 6,8 C 4,8 km/h (1 Bft) 100,00 %
24.03.2019 08:08 6,9 C 7,8 C 8,9 C 79 % 1023,0 hPa 0,0 l/m 3,0 km/h (1 Bft) SW 224 2 min 0,000 mm 0,2 UV-I 299 W/m 3,5 C 6,9 C 4,8 km/h (1 Bft) 95,74 %
24.03.2019 08:10 7,1 C 7,8 C 8,9 C 78 % 1023,0 hPa 0,0 l/m 3,3 km/h (1 Bft) SW 224 2 min 0,000 mm 0,7 UV-I 304 W/m 3,5 C 7,1 C 4,8 km/h (1 Bft) 95,65 %
24.03.2019 08:12 7,2 C 7,8 C 9,4 C 78 % 1023,0 hPa 0,0 l/m 2,3 km/h (1 Bft) SW 224 2 min 0,000 mm 0,7 UV-I 310 W/m 3,6 C 7,2 C 4,8 km/h (1 Bft) 100,00 %
24.03.2019 08:14 7,3 C 7,8 C 10,0 C 79 % 1023,0 hPa 0,0 l/m 2,6 km/h (1 Bft) SW 224 2 min 0,000 mm 0,7 UV-I 316 W/m 3,9 C 7,3 C 4,8 km/h (1 Bft) 100,00 %
24.03.2019 08:16 7,4 C 7,8 C 9,4 C 78 % 1023,0 hPa 0,0 l/m 1,9 km/h (1 Bft) SW 224 2 min 0,000 mm 0,7 UV-I 321 W/m 3,8 C 7,4 C 3,2 km/h (1 Bft) 98,00 %
24.03.2019 08:18 7,4 C 7,8 C 9,4 C 78 % 1023,0 hPa 0,0 l/m 2,5 km/h (1 Bft) SW 224 2 min 0,000 mm 0,8 UV-I 326 W/m 3,8 C 7,4 C 3,2 km/h (1 Bft) 97,56 %
24.03.2019 08:20 7,6 C 7,8 C 10,0 C 77 % 1023,0 hPa 0,0 l/m 2,2 km/h (1 Bft) SW 225 2 min 0,000 mm 0,8 UV-I 333 W/m 3,8 C 7,6 C 3,2 km/h (1 Bft) 96,00 %
24.03.2019 08:22 7,7 C 7,8 C 10,0 C 78 % 1023,0 hPa 0,0 l/m 2,7 km/h (1 Bft) SW 225 2 min 0,000 mm 0,8 UV-I 337 W/m 4,1 C 7,7 C 4,8 km/h (1 Bft) 98,00 %
24.03.2019 08:24 7,7 C 7,8 C 10,6 C 77 % 1023,0 hPa 0,0 l/m 3,0 km/h (1 Bft) SW 225 2 min 0,000 mm 0,8 UV-I 345 W/m 3,9 C 7,7 C 4,8 km/h (1 Bft) 98,00 %
24.03.2019 08:26 7,8 C 7,8 C 10,6 C 78 % 1023,0 hPa 0,0 l/m 2,7 km/h (1 Bft) SW 225 2 min 0,000 mm 0,8 UV-I 351 W/m 4,2 C 7,8 C 3,2 km/h (1 Bft) 97,37 %
24.03.2019 08:28 7,9 C 7,8 C 11,1 C 77 % 1022,9 hPa 0,0 l/m 3,2 km/h (1 Bft) SW 224 2 min 0,000 mm 0,9 UV-I 357 W/m 4,1 C 7,9 C 4,8 km/h (1 Bft) 98,21 %
24.03.2019 08:30 8,0 C 7,8 C 11,1 C 76 % 1022,9 hPa 0,0 l/m 1,8 km/h (1 Bft) SW 224 2 min 0,000 mm 0,9 UV-I 362 W/m 4,0 C 8,0 C 4,8 km/h (1 Bft) 97,87 %
24.03.2019 08:32 8,2 C 7,8 C 11,7 C 76 % 1022,9 hPa 0,0 l/m 4,1 km/h (1 Bft) S-SW 212 2 min 0,000 mm 0,9 UV-I 368 W/m 4,2 C 8,2 C 6,4 km/h (2 Bft) 97,37 %
24.03.2019 08:34 8,2 C 7,8 C 11,7 C 74 % 1022,9 hPa 0,0 l/m 2,1 km/h (1 Bft) S-SW 212 2 min 0,000 mm 0,9 UV-I 374 W/m 3,8 C 8,2 C 3,2 km/h (1 Bft) 98,21 %
24.03.2019 08:36 8,2 C 7,8 C 11,7 C 74 % 1022,8 hPa 0,0 l/m 2,9 km/h (1 Bft) SW 226 2 min 0,000 mm 1,0 UV-I 379 W/m 3,8 C 8,2 C 4,8 km/h (1 Bft) 97,22 %
24.03.2019 08:38 8,3 C 7,8 C 11,7 C 72 % 1022,8 hPa 0,0 l/m 3,8 km/h (1 Bft) SW 233 2 min 0,000 mm 1,0 UV-I 385 W/m 3,6 C 8,3 C 4,8 km/h (1 Bft) 98,21 %
24.03.2019 08:40 8,3 C 7,8 C 11,7 C 72 % 1022,8 hPa 0,0 l/m 3,2 km/h (1 Bft) SW 234 2 min 0,000 mm 1,0 UV-I 387 W/m 3,6 C 8,3 C 4,8 km/h (1 Bft) 97,37 %
24.03.2019 08:42 8,3 C 7,8 C 12,2 C 72 % 1022,8 hPa 0,0 l/m 2,8 km/h (1 Bft) SW 233 2 min 0,000 mm 1,1 UV-I 397 W/m 3,6 C 8,3 C 4,8 km/h (1 Bft) 98,00 %
24.03.2019 08:44 8,4 C 7,8 C 12,8 C 72 % 1022,8 hPa 0,0 l/m 2,8 km/h (1 Bft) W-SW 248 2 min 0,000 mm 1,1 UV-I 401 W/m 3,7 C 8,4 C 4,8 km/h (1 Bft) 100,00 %
24.03.2019 08:46 8,6 C 7,8 C 13,3 C 73 % 1022,8 hPa 0,0 l/m 4,7 km/h (1 Bft) W 259 2 min 0,000 mm 1,1 UV-I 407 W/m 4,0 C 8,6 C 6,4 km/h (2 Bft) 98,00 %
24.03.2019 08:48 8,7 C 7,8 C 13,9 C 72 % 1022,7 hPa 0,0 l/m 4,6 km/h (1 Bft) W 275 2 min 0,000 mm 1,1 UV-I 414 W/m 3,9 C 8,7 C 6,4 km/h (2 Bft) 98,00 %
24.03.2019 08:50 8,7 C 7,8 C 13,9 C 71 % 1022,7 hPa 0,0 l/m 1,9 km/h (1 Bft) W 276 2 min 0,000 mm 1,2 UV-I 419 W/m 3,7 C 8,7 C 3,2 km/h (1 Bft) 97,56 %
24.03.2019 08:52 8,8 C 7,8 C 14,4 C 72 % 1022,8 hPa 0,0 l/m 3,7 km/h (1 Bft) W-SW 242 2 min 0,000 mm 1,2 UV-I 425 W/m 4,0 C 8,8 C 6,4 km/h (2 Bft) 97,73 %
24.03.2019 08:54 8,9 C 7,8 C 15,0 C 71 % 1022,7 hPa 0,0 l/m 5,5 km/h (1 Bft) W 273 2 min 0,000 mm 1,2 UV-I 431 W/m 3,9 C 8,9 C 9,7 km/h (2 Bft) 98,00 %
24.03.2019 08:56 8,9 C 7,8 C 15,0 C 71 % 1022,7 hPa 0,0 l/m 5,8 km/h (2 Bft) W 278 2 min 0,000 mm 1,2 UV-I 435 W/m 3,9 C 8,9 C 9,7 km/h (2 Bft) 98,11 %
24.03.2019 08:58 9,0 C 7,8 C 15,6 C 70 % 1022,7 hPa 0,0 l/m 3,1 km/h (1 Bft) W 268 2 min 0,000 mm 1,3 UV-I 440 W/m 3,8 C 9,0 C 4,8 km/h (1 Bft) 97,37 %
24.03.2019 09:00 9,1 C 7,8 C 16,7 C 71 % 1022,7 hPa 0,0 l/m 2,7 km/h (1 Bft) W 267 2 min 0,178 mm 1,3 UV-I 444 W/m 4,1 C 9,1 C 4,8 km/h (1 Bft) 95,74 %
24.03.2019 09:02 9,2 C 7,8 C 17,8 C 71 % 1022,7 hPa 0,0 l/m 2,6 km/h (1 Bft) SW 228 2 min 0,000 mm 1,3 UV-I 449 W/m 4,2 C 9,2 C 4,8 km/h (1 Bft) 96,00 %
24.03.2019 09:04 9,4 C 7,8 C 18,9 C 70 % 1022,7 hPa 0,0 l/m 2,1 km/h (1 Bft) SW 228 2 min 0,000 mm 1,4 UV-I 455 W/m 4,2 C 9,4 C 4,8 km/h (1 Bft) 97,37 %
24.03.2019 09:06 9,6 C 7,8 C 20,0 C 71 % 1022,6 hPa 0,0 l/m 3,4 km/h (1 Bft) SW 228 2 min 0,000 mm 1,4 UV-I 461 W/m 4,6 C 9,6 C 4,8 km/h (1 Bft) 96,23 %
24.03.2019 09:08 9,7 C 7,8 C 20,6 C 69 % 1022,6 hPa 0,0 l/m 2,1 km/h (1 Bft) SW 226 2 min 0,000 mm 1,4 UV-I 466 W/m 4,3 C 9,7 C 4,8 km/h (1 Bft) 96,23 %
24.03.2019 09:10 9,8 C 7,8 C 21,1 C 69 % 1022,6 hPa 0,0 l/m 1,2 km/h (1 Bft) W-SW 255 2 min 0,000 mm 1,4 UV-I 470 W/m 4,4 C 9,8 C 3,2 km/h (1 Bft) 97,44 %
24.03.2019 09:12 10,0 C 7,8 C 21,1 C 69 % 1022,6 hPa 0,0 l/m 2,8 km/h (1 Bft) W-SW 255 2 min 0,000 mm 1,5 UV-I 474 W/m 4,6 C 10,0 C 4,8 km/h (1 Bft) 97,87 %
24.03.2019 09:14 10,0 C 7,8 C 21,1 C 68 % 1022,5 hPa 0,0 l/m 1,4 km/h (1 Bft) W-SW 255 2 min 0,000 mm 1,5 UV-I 479 W/m 4,4 C 10,0 C 3,2 km/h (1 Bft) 96,00 %
24.03.2019 09:16 9,9 C 7,8 C 21,7 C 69 % 1022,5 hPa 0,0 l/m 0,8 km/h (0 Bft) W-SW 255 2 min 0,000 mm 1,5 UV-I 483 W/m 4,5 C 9,9 C 1,6 km/h (1 Bft) 98,00 %
24.03.2019 09:18 10,1 C 7,8 C 22,2 C 68 % 1022,5 hPa 0,0 l/m 3,3 km/h (1 Bft) W-SW 258 2 min 0,000 mm 1,5 UV-I 487 W/m 4,5 C 10,1 C 4,8 km/h (1 Bft) 100,00 %
24.03.2019 09:20 10,1 C 7,8 C 22,2 C 67 % 1022,4 hPa 0,0 l/m 2,4 km/h (1 Bft) W-SW 258 2 min 0,000 mm 1,6 UV-I 489 W/m 4,3 C 10,1 C 4,8 km/h (1 Bft) 100,00 %
24.03.2019 09:22 10,1 C 7,8 C 22,8 C 67 % 1022,4 hPa 0,0 l/m 0,8 km/h (0 Bft) W-SW 258 2 min 0,000 mm 1,6 UV-I 492 W/m 4,3 C 10,1 C 1,6 km/h (1 Bft) 100,00 %
24.03.2019 09:24 10,3 C 7,8 C 22,8 C 68 % 1022,4 hPa 0,0 l/m 1,4 km/h (1 Bft) SW 225 2 min 0,000 mm 1,6 UV-I 496 W/m 4,7 C 10,3 C 3,2 km/h (1 Bft) 100,00 %
24.03.2019 09:26 10,4 C 7,8 C 23,3 C 68 % 1022,4 hPa 0,0 l/m 2,1 km/h (1 Bft) SW 225 2 min 0,000 mm 1,7 UV-I 502 W/m 4,8 C 10,4 C 3,2 km/h (1 Bft) 100,00 %
24.03.2019 09:28 10,6 C 7,8 C 23,9 C 69 % 1022,4 hPa 0,0 l/m 0,5 km/h (0 Bft) SW 225 2 min 0,000 mm 1,7 UV-I 504 W/m 5,2 C 10,6 C 3,2 km/h (1 Bft) 100,00 %
24.03.2019 09:30 10,7 C 7,8 C 23,3 C 67 % 1022,5 hPa 0,0 l/m 3,9 km/h (1 Bft) SW 221 2 min 0,000 mm 1,7 UV-I 507 W/m 4,8 C 10,7 C 6,4 km/h (2 Bft) 100,00 %
24.03.2019 09:32 10,4 C 7,8 C 23,3 C 67 % 1022,5 hPa 0,0 l/m 1,7 km/h (1 Bft) SW 225 2 min 0,000 mm 1,7 UV-I 507 W/m 4,5 C 10,4 C 4,8 km/h (1 Bft) 100,00 %
24.03.2019 09:34 10,5 C 7,8 C 23,9 C 68 % 1022,4 hPa 0,0 l/m 2,8 km/h (1 Bft) SW 225 2 min 0,000 mm 1,8 UV-I 515 W/m 4,8 C 10,5 C 4,8 km/h (1 Bft) 100,00 %
24.03.2019 09:36 10,6 C 7,8 C 23,9 C 68 % 1022,3 hPa 0,0 l/m 4,3 km/h (1 Bft) SW 221 2 min 0,000 mm 1,8 UV-I 523 W/m 4,9 C 10,6 C 6,4 km/h (2 Bft) 97,87 %
24.03.2019 09:38 10,7 C 7,8 C 23,9 C 68 % 1022,3 hPa 0,0 l/m 4,1 km/h (1 Bft) SW 218 2 min 0,000 mm 1,8 UV-I 527 W/m 5,0 C 10,7 C 6,4 km/h (2 Bft) 97,37 %
24.03.2019 09:40 10,8 C 7,8 C 23,9 C 67 % 1022,4 hPa 0,0 l/m 4,6 km/h (1 Bft) SW 218 2 min 0,000 mm 1,8 UV-I 530 W/m 4,9 C 10,8 C 6,4 km/h (2 Bft) 98,00 %
24.03.2019 09:42 10,8 C 7,8 C 24,4 C 66 % 1022,2 hPa 0,0 l/m 2,1 km/h (1 Bft) NW 319 2 min 0,000 mm 1,9 UV-I 529 W/m 4,7 C 10,8 C 6,4 km/h (2 Bft) 93,62 %
24.03.2019 09:44 11,1 C 7,8 C 24,4 C 69 % 1022,2 hPa 0,0 l/m 3,4 km/h (1 Bft) NO 36 2 min 0,000 mm 1,9 UV-I 539 W/m 5,6 C 11,1 C 4,8 km/h (1 Bft) 97,87 %
24.03.2019 09:46 11,3 C 7,8 C 24,4 C 69 % 1022,2 hPa 0,0 l/m 2,6 km/h (1 Bft) N 350 2 min 0,000 mm 1,9 UV-I 542 W/m 5,8 C 11,3 C 4,8 km/h (1 Bft) 96,43 %
24.03.2019 09:48 11,4 C 7,8 C 24,4 C 68 % 1022,2 hPa 0,0 l/m 3,2 km/h (1 Bft) N 350 2 min 0,000 mm 1,9 UV-I 538 W/m 5,7 C 11,4 C 4,8 km/h (1 Bft) 97,56 %
24.03.2019 09:50 11,5 C 7,8 C 25,6 C 67 % 1022,2 hPa 0,0 l/m 1,5 km/h (1 Bft) N 350 2 min 0,000 mm 2,0 UV-I 548 W/m 5,6 C 11,5 C 4,8 km/h (1 Bft) 98,11 %
24.03.2019 09:52 11,5 C 7,8 C 25,6 C 67 % 1022,2 hPa 0,0 l/m 2,0 km/h (1 Bft) N 350 2 min 0,000 mm 2,0 UV-I 554 W/m 5,6 C 11,5 C 3,2 km/h (1 Bft) 97,62 %
24.03.2019 09:54 11,7 C 7,8 C 25,0 C 66 % 1022,2 hPa 0,0 l/m 3,2 km/h (1 Bft) N 349 2 min 0,000 mm 2,0 UV-I 556 W/m 5,6 C 11,7 C 6,4 km/h (2 Bft) 95,74 %
24.03.2019 09:56 11,8 C 7,8 C 25,0 C 65 % 1022,2 hPa 0,0 l/m 2,3 km/h (1 Bft) NW 317 2 min 0,000 mm 2,1 UV-I 562 W/m 5,4 C 11,8 C 4,8 km/h (1 Bft) 98,11 %
24.03.2019 09:58 11,8 C 7,8 C 25,0 C 66 % 1022,2 hPa 0,0 l/m 3,6 km/h (1 Bft) NW 318 2 min 0,000 mm 2,1 UV-I 564 W/m 5,7 C 11,8 C 4,8 km/h (1 Bft) 100,00 %
24.03.2019 10:00 11,8 C 7,8 C 25,0 C 66 % 1022,2 hPa 0,0 l/m 1,5 km/h (1 Bft) NW 318 2 min 0,254 mm 2,1 UV-I 567 W/m 5,7 C 11,8 C 3,2 km/h (1 Bft) 97,87 %
24.03.2019 10:02 11,8 C 7,8 C 25,6 C 66 % 1022,1 hPa 0,0 l/m 3,9 km/h (1 Bft) O 84 2 min 0,000 mm 2,2 UV-I 570 W/m 5,7 C 11,8 C 9,7 km/h (2 Bft) 100,00 %
24.03.2019 10:04 11,9 C 7,8 C 26,1 C 66 % 1022,1 hPa 0,0 l/m 4,6 km/h (1 Bft) NO 53 2 min 0,000 mm 2,2 UV-I 576 W/m 5,8 C 11,9 C 6,4 km/h (2 Bft) 100,00 %
24.03.2019 10:06 12,3 C 7,8 C 26,1 C 68 % 1022,1 hPa 0,0 l/m 3,4 km/h (1 Bft) NO 56 2 min 0,000 mm 2,2 UV-I 580 W/m 6,6 C 12,3 C 4,8 km/h (1 Bft) 100,00 %
24.03.2019 10:08 12,5 C 7,8 C 26,1 C 64 % 1022,0 hPa 0,0 l/m 4,1 km/h (1 Bft) O-NO 63 2 min 0,000 mm 2,2 UV-I 583 W/m 5,9 C 12,5 C 6,4 km/h (2 Bft) 100,00 %
24.03.2019 10:10 12,6 C 7,8 C 26,7 C 65 % 1022,0 hPa 0,0 l/m 3,5 km/h (1 Bft) O 81 2 min 0,000 mm 2,3 UV-I 588 W/m 6,2 C 12,6 C 6,4 km/h (2 Bft) 98,46 %
24.03.2019 10:12 12,5 C 7,8 C 27,2 C 63 % 1022,0 hPa 0,0 l/m 4,4 km/h (1 Bft) O 84 2 min 0,000 mm 2,3 UV-I 592 W/m 5,7 C 12,5 C 8,0 km/h (2 Bft) 100,00 %
24.03.2019 10:14 12,6 C 7,8 C 26,7 C 64 % 1022,0 hPa 0,0 l/m 2,4 km/h (1 Bft) O 84 2 min 0,000 mm 2,3 UV-I 593 W/m 6,0 C 12,6 C 4,8 km/h (1 Bft) 100,00 %
24.03.2019 10:16 12,6 C 7,8 C 26,7 C 63 % 1021,9 hPa 0,0 l/m 4,2 km/h (1 Bft) O 92 2 min 0,000 mm 2,4 UV-I 597 W/m 5,7 C 12,6 C 6,4 km/h (2 Bft) 98,11 %
24.03.2019 10:18 12,3 C 7,8 C 26,7 C 63 % 1021,9 hPa 0,0 l/m 1,5 km/h (1 Bft) O 92 2 min 0,000 mm 2,4 UV-I 599 W/m 5,5 C 12,3 C 3,2 km/h (1 Bft) 97,87 %
24.03.2019 10:20 12,1 C 7,8 C 26,7 C 63 % 1021,9 hPa 0,0 l/m 2,3 km/h (1 Bft) S-SW 213 2 min 0,000 mm 2,4 UV-I 606 W/m 5,3 C 12,1 C 4,8 km/h (1 Bft) 100,00 %
24.03.2019 10:22 12,1 C 7,8 C 27,2 C 65 % 1021,9 hPa 0,0 l/m 2,8 km/h (1 Bft) SO 132 2 min 0,000 mm 2,5 UV-I 607 W/m 5,7 C 12,1 C 4,8 km/h (1 Bft) 100,00 %
24.03.2019 10:24 12,3 C 7,8 C 27,2 C 65 % 1021,9 hPa 0,0 l/m 4,5 km/h (1 Bft) SO 143 2 min 0,000 mm 2,5 UV-I 610 W/m 5,9 C 12,3 C 6,4 km/h (2 Bft) 100,00 %
24.03.2019 10:26 12,2 C 7,8 C 27,2 C 64 % 1021,8 hPa 0,0 l/m 3,2 km/h (1 Bft) SO 144 2 min 0,000 mm 2,5 UV-I 612 W/m 5,6 C 12,2 C 4,8 km/h (1 Bft) 95,74 %
24.03.2019 10:28 12,2 C 7,8 C 26,7 C 66 % 1021,8 hPa 0,0 l/m 2,5 km/h (1 Bft) N-NO 12 2 min 0,000 mm 2,5 UV-I 612 W/m 6,0 C 12,2 C 4,8 km/h (1 Bft) 97,44 %
24.03.2019 10:30 12,6 C 7,8 C 26,1 C 66 % 1021,8 hPa 0,0 l/m 4,0 km/h (1 Bft) N-NO 25 2 min 0,000 mm 2,6 UV-I 613 W/m 6,4 C 12,6 C 6,4 km/h (2 Bft) 96,00 %
24.03.2019 10:32 12,7 C 7,8 C 26,1 C 67 % 1021,8 hPa 0,0 l/m 3,0 km/h (1 Bft) N-NO 26 2 min 0,000 mm 2,6 UV-I 614 W/m 6,7 C 12,7 C 4,8 km/h (1 Bft) 97,73 %
24.03.2019 10:34 12,7 C 7,8 C 26,1 C 66 % 1021,8 hPa 0,0 l/m 1,7 km/h (1 Bft) N-NO 25 2 min 0,000 mm 2,6 UV-I 621 W/m 6,5 C 12,7 C 3,2 km/h (1 Bft) 94,64 %
24.03.2019 10:36 12,9 C 7,8 C 26,1 C 66 % 1021,7 hPa 0,0 l/m 2,2 km/h (1 Bft) NO 51 2 min 0,000 mm 2,6 UV-I 626 W/m 6,7 C 12,9 C 4,8 km/h (1 Bft) 97,14 %
24.03.2019 10:38 13,2 C 7,8 C 26,7 C 65 % 1021,8 hPa 0,0 l/m 4,6 km/h (1 Bft) O-NO 78 2 min 0,000 mm 2,7 UV-I 630 W/m 6,8 C 13,2 C 6,4 km/h (2 Bft) 98,21 %
24.03.2019 10:40 13,3 C 7,8 C 26,7 C 64 % 1021,7 hPa 0,0 l/m 5,9 km/h (2 Bft) NO 43 2 min 0,000 mm 2,7 UV-I 634 W/m 6,6 C 13,3 C 9,7 km/h (2 Bft) 98,00 %
24.03.2019 10:42 13,2 C 7,8 C 26,1 C 63 % 1021,7 hPa 0,0 l/m 4,3 km/h (1 Bft) NO 52 2 min 0,000 mm 2,7 UV-I 634 W/m 6,3 C 13,2 C 6,4 km/h (2 Bft) 97,87 %
24.03.2019 10:44 13,2 C 7,8 C 26,7 C 63 % 1021,7 hPa 0,0 l/m 3,4 km/h (1 Bft) NO 43 2 min 0,000 mm 2,7 UV-I 630 W/m 6,3 C 13,2 C 6,4 km/h (2 Bft) 97,37 %
24.03.2019 10:46 13,2 C 7,8 C 26,7 C 65 % 1021,7 hPa 0,0 l/m 2,9 km/h (1 Bft) NO 43 2 min 0,000 mm 2,7 UV-I 631 W/m 6,8 C 13,2 C 4,8 km/h (1 Bft) 98,21 %
24.03.2019 10:48 13,2 C 7,8 C 26,7 C 61 % 1021,7 hPa 0,0 l/m 2,7 km/h (1 Bft) NO 44 2 min 0,000 mm 2,8 UV-I 635 W/m 5,8 C 13,2 C 6,4 km/h (2 Bft) 95,74 %
24.03.2019 10:50 13,2 C 7,8 C 27,2 C 62 % 1021,7 hPa 0,0 l/m 2,9 km/h (1 Bft) NO 44 2 min 0,000 mm 2,8 UV-I 639 W/m 6,1 C 13,2 C 4,8 km/h (1 Bft) 100,00 %
24.03.2019 10:52 13,3 C 7,8 C 27,2 C 63 % 1021,6 hPa 0,0 l/m 3,0 km/h (1 Bft) NO 44 2 min 0,000 mm 2,8 UV-I 643 W/m 6,4 C 13,3 C 4,8 km/h (1 Bft) 100,00 %
24.03.2019 10:54 13,3 C 7,8 C 27,8 C 64 % 1021,5 hPa 0,0 l/m 2,3 km/h (1 Bft) N 355 2 min 0,000 mm 2,8 UV-I 645 W/m 6,6 C 13,3 C 4,8 km/h (1 Bft) 100,00 %
24.03.2019 10:56 13,4 C 7,8 C 27,8 C 63 % 1021,6 hPa 0,0 l/m 2,3 km/h (1 Bft) O-NO 72 2 min 0,000 mm 2,9 UV-I 640 W/m 6,5 C 13,4 C 4,8 km/h (1 Bft) 97,87 %
24.03.2019 10:58 13,6 C 7,8 C 27,2 C 64 % 1021,5 hPa 0,0 l/m 4,6 km/h (1 Bft) O-NO 71 2 min 0,000 mm 3,0 UV-I 643 W/m 6,9 C 13,6 C 8,0 km/h (2 Bft) 97,87 %
24.03.2019 11:00 13,6 C 7,8 C 27,2 C 62 % 1021,6 hPa 0,0 l/m 2,5 km/h (1 Bft) O-NO 57 2 min 0,305 mm 3,0 UV-I 650 W/m 6,5 C 13,6 C 6,4 km/h (2 Bft) 97,56 %
24.03.2019 11:02 13,5 C 7,8 C 28,3 C 59 % 1021,5 hPa 0,0 l/m 1,0 km/h (0 Bft) NO 56 2 min 0,000 mm 3,0 UV-I 657 W/m 5,6 C 13,5 C 3,2 km/h (1 Bft) 95,74 %
24.03.2019 11:04 13,4 C 7,8 C 27,2 C 60 % 1021,4 hPa 0,0 l/m 1,9 km/h (1 Bft) N 355 2 min 0,000 mm 3,1 UV-I 659 W/m 5,8 C 13,4 C 4,8 km/h (1 Bft) 96,00 %
24.03.2019 11:06 13,4 C 7,8 C 27,2 C 62 % 1021,4 hPa 0,0 l/m 3,8 km/h (1 Bft) NO 55 2 min 0,000 mm 3,1 UV-I 660 W/m 6,3 C 13,4 C 6,4 km/h (2 Bft) 98,11 %
24.03.2019 11:08 13,6 C 7,8 C 26,7 C 63 % 1021,4 hPa 0,0 l/m 4,8 km/h (1 Bft) O-NO 69 2 min 0,000 mm 3,1 UV-I 662 W/m 6,7 C 13,6 C 6,4 km/h (2 Bft) 94,87 %
24.03.2019 11:10 13,6 C 7,8 C 26,7 C 62 % 1021,4 hPa 0,0 l/m 2,3 km/h (1 Bft) O-NO 69 2 min 0,000 mm 3,1 UV-I 662 W/m 6,5 C 13,6 C 4,8 km/h (1 Bft) 95,74 %
24.03.2019 11:12 13,7 C 7,8 C 27,8 C 61 % 1021,3 hPa 0,0 l/m 1,5 km/h (1 Bft) O-NO 69 2 min 0,000 mm 3,1 UV-I 663 W/m 6,3 C 13,7 C 4,8 km/h (1 Bft) 95,74 %
24.03.2019 11:14 13,8 C 7,8 C 28,3 C 62 % 1021,3 hPa 0,0 l/m 3,1 km/h (1 Bft) O-NO 71 2 min 0,000 mm 3,1 UV-I 667 W/m 6,6 C 13,8 C 6,4 km/h (2 Bft) 98,00 %
24.03.2019 11:16 14,0 C 7,8 C 28,9 C 62 % 1021,3 hPa 0,0 l/m 3,6 km/h (1 Bft) O 96 2 min 0,000 mm 3,2 UV-I 668 W/m 6,8 C 14,0 C 9,7 km/h (2 Bft) 97,87 %
24.03.2019 11:18 14,0 C 7,8 C 28,9 C 60 % 1021,3 hPa 0,0 l/m 6,5 km/h (2 Bft) O-SO 119 2 min 0,000 mm 3,2 UV-I 669 W/m 6,4 C 14,0 C 11,3 km/h (2 Bft) 100,00 %
24.03.2019 11:20 13,8 C 7,8 C 28,9 C 59 % 1021,2 hPa 0,0 l/m 3,7 km/h (1 Bft) O 90 2 min 0,000 mm 3,2 UV-I 670 W/m 5,9 C 13,8 C 6,4 km/h (2 Bft) 100,00 %
24.03.2019 11:22 13,8 C 7,8 C 28,9 C 62 % 1021,2 hPa 0,0 l/m 3,0 km/h (1 Bft) O 93 2 min 0,000 mm 3,2 UV-I 672 W/m 6,6 C 13,8 C 6,4 km/h (2 Bft) 100,00 %
24.03.2019 11:24 13,9 C 7,8 C 28,3 C 62 % 1021,1 hPa 0,0 l/m 3,3 km/h (1 Bft) O 91 2 min 0,000 mm 3,2 UV-I 673 W/m 6,7 C 13,9 C 4,8 km/h (1 Bft) 100,00 %
24.03.2019 11:26 14,1 C 7,8 C 27,8 C 60 % 1021,1 hPa 0,0 l/m 1,5 km/h (1 Bft) O 91 2 min 0,000 mm 3,2 UV-I 673 W/m 6,5 C 14,1 C 3,2 km/h (1 Bft) 100,00 %
24.03.2019 11:28 14,1 C 7,8 C 28,3 C 62 % 1021,1 hPa 0,0 l/m 0,4 km/h (0 Bft) O 91 2 min 0,000 mm 3,3 UV-I 676 W/m 6,9 C 14,1 C 1,6 km/h (1 Bft) 98,00 %
24.03.2019 11:30 14,2 C 7,8 C 28,3 C 62 % 1021,1 hPa 0,0 l/m 1,7 km/h (1 Bft) O 91 2 min 0,000 mm 3,3 UV-I 676 W/m 7,0 C 14,2 C 4,8 km/h (1 Bft) 100,00 %
24.03.2019 11:32 14,6 C 7,8 C 28,9 C 64 % 1021,0 hPa 0,0 l/m 3,4 km/h (1 Bft) O 91 2 min 0,000 mm 3,3 UV-I 677 W/m 7,9 C 14,6 C 4,8 km/h (1 Bft) 100,00 %
24.03.2019 11:34 14,7 C 7,8 C 28,9 C 62 % 1021,1 hPa 0,0 l/m 4,8 km/h (1 Bft) NO 51 2 min 0,000 mm 3,3 UV-I 679 W/m 7,5 C 14,7 C 8,0 km/h (2 Bft) 100,00 %
24.03.2019 11:36 14,8 C 7,8 C 28,3 C 61 % 1021,1 hPa 0,0 l/m 5,0 km/h (1 Bft) O-NO 57 2 min 0,000 mm 3,3 UV-I 681 W/m 7,4 C 14,8 C 8,0 km/h (2 Bft) 100,00 %
24.03.2019 11:38 14,7 C 7,8 C 28,9 C 60 % 1021,0 hPa 0,0 l/m 1,8 km/h (1 Bft) NO 56 2 min 0,000 mm 3,3 UV-I 673 W/m 7,0 C 14,7 C 3,2 km/h (1 Bft) 97,87 %
24.03.2019 11:40 14,7 C 7,8 C 27,8 C 61 % 1021,0 hPa 0,0 l/m 4,1 km/h (1 Bft) O-NO 69 2 min 0,000 mm 3,3 UV-I 673 W/m 7,3 C 14,7 C 6,4 km/h (2 Bft) 97,87 %
24.03.2019 11:42 14,6 C 7,8 C 27,8 C 62 % 1020,9 hPa 0,0 l/m 3,9 km/h (1 Bft) O 85 2 min 0,000 mm 3,3 UV-I 673 W/m 7,4 C 14,6 C 6,4 km/h (2 Bft) 100,00 %
24.03.2019 11:44 14,6 C 7,8 C 28,3 C 59 % 1020,9 hPa 0,0 l/m 2,3 km/h (1 Bft) O 84 2 min 0,000 mm 3,3 UV-I 682 W/m 6,7 C 14,6 C 3,2 km/h (1 Bft) 97,96 %
24.03.2019 11:46 14,6 C 7,8 C 28,3 C 59 % 1020,9 hPa 0,0 l/m 5,3 km/h (1 Bft) O-NO 76 2 min 0,000 mm 3,3 UV-I 678 W/m 6,7 C 14,6 C 9,7 km/h (2 Bft) 100,00 %
24.03.2019 11:48 14,8 C 7,8 C 28,9 C 62 % 1020,8 hPa 0,0 l/m 5,1 km/h (1 Bft) O-NO 74 2 min 0,000 mm 3,3 UV-I 677 W/m 7,6 C 14,8 C 8,0 km/h (2 Bft) 100,00 %
24.03.2019 11:50 14,8 C 7,8 C 28,3 C 59 % 1020,8 hPa 0,0 l/m 3,9 km/h (1 Bft) O-NO 68 2 min 0,000 mm 3,3 UV-I 680 W/m 6,9 C 14,8 C 6,4 km/h (2 Bft) 100,00 %
24.03.2019 11:52 14,8 C 7,8 C 27,8 C 60 % 1020,8 hPa 0,0 l/m 5,0 km/h (1 Bft) NO 56 2 min 0,000 mm 3,3 UV-I 673 W/m 7,1 C 14,8 C 11,3 km/h (2 Bft) 100,00 %
24.03.2019 11:54 14,7 C 7,8 C 27,8 C 59 % 1020,7 hPa 0,0 l/m 2,0 km/h (1 Bft) NO 55 2 min 0,000 mm 3,3 UV-I 682 W/m 6,8 C 14,7 C 3,2 km/h (1 Bft) 100,00 %
24.03.2019 11:56 14,7 C 7,8 C 27,8 C 62 % 1020,8 hPa 0,0 l/m 3,2 km/h (1 Bft) NO 55 2 min 0,000 mm 3,3 UV-I 685 W/m 7,5 C 14,7 C 4,8 km/h (1 Bft) 100,00 %
24.03.2019 11:58 15,1 C 7,8 C 28,9 C 63 % 1020,7 hPa 0,0 l/m 5,0 km/h (1 Bft) N-NO 27 2 min 0,000 mm 3,4 UV-I 684 W/m 8,1 C 15,1 C 6,4 km/h (2 Bft) 100,00 %
24.03.2019 12:00 15,2 C 7,8 C 29,4 C 59 % 1020,7 hPa 0,0 l/m 2,5 km/h (1 Bft) O-SO 110 2 min 0,356 mm 3,4 UV-I 681 W/m 7,2 C 15,2 C 6,4 km/h (2 Bft) 100,00 %
24.03.2019 12:02 14,9 C 7,8 C 30,6 C 58 % 1020,7 hPa 0,0 l/m 2,1 km/h (1 Bft) O 97 2 min 0,000 mm 3,3 UV-I 683 W/m 6,7 C 14,9 C 4,8 km/h (1 Bft) 98,00 %
24.03.2019 12:04 15,2 C 7,8 C 30,0 C 64 % 1020,7 hPa 0,0 l/m 4,2 km/h (1 Bft) O-NO 65 2 min 0,000 mm 3,3 UV-I 682 W/m 8,4 C 15,2 C 6,4 km/h (2 Bft) 96,00 %
24.03.2019 12:06 15,3 C 7,8 C 30,0 C 58 % 1020,7 hPa 0,0 l/m 2,4 km/h (1 Bft) S-SW 196 2 min 0,000 mm 3,3 UV-I 683 W/m 7,1 C 15,3 C 4,8 km/h (1 Bft) 97,87 %
24.03.2019 12:08 15,3 C 7,8 C 28,9 C 60 % 1020,7 hPa 0,0 l/m 3,4 km/h (1 Bft) O-NO 71 2 min 0,000 mm 3,3 UV-I 659 W/m 7,6 C 15,3 C 4,8 km/h (1 Bft) 97,14 %
24.03.2019 12:10 15,3 C 7,8 C 28,3 C 62 % 1020,7 hPa 0,0 l/m 7,1 km/h (2 Bft) N 11 2 min 0,000 mm 3,3 UV-I 679 W/m 8,1 C 14,9 C 11,3 km/h (2 Bft) 98,11 %
24.03.2019 12:12 15,2 C 7,8 C 27,2 C 61 % 1020,7 hPa 0,0 l/m 6,1 km/h (2 Bft) NO 49 2 min 0,000 mm 3,3 UV-I 679 W/m 7,7 C 15,2 C 9,7 km/h (2 Bft) 96,00 %
24.03.2019 12:14 15,2 C 7,8 C 27,2 C 61 % 1020,6 hPa 0,0 l/m 6,3 km/h (2 Bft) NO 42 2 min 0,000 mm 3,3 UV-I 675 W/m 7,7 C 15,2 C 9,7 km/h (2 Bft) 94,74 %
24.03.2019 12:16 15,3 C 7,8 C 27,2 C 60 % 1020,6 hPa 0,0 l/m 5,4 km/h (1 Bft) N-NW 334 2 min 0,000 mm 3,3 UV-I 674 W/m 7,6 C 15,3 C 8,0 km/h (2 Bft) 96,23 %
24.03.2019 12:18 15,3 C 7,8 C 27,2 C 61 % 1020,6 hPa 0,0 l/m 7,0 km/h (2 Bft) N-NO 19 2 min 0,000 mm 3,3 UV-I 672 W/m 7,8 C 15,0 C 12,9 km/h (3 Bft) 95,74 %
24.03.2019 12:20 15,3 C 7,8 C 27,2 C 59 % 1020,6 hPa 0,0 l/m 3,0 km/h (1 Bft) N 5 2 min 0,000 mm 3,3 UV-I 667 W/m 7,3 C 15,3 C 4,8 km/h (1 Bft) 95,83 %
24.03.2019 12:22 15,5 C 7,8 C 27,8 C 61 % 1020,5 hPa 0,0 l/m 5,5 km/h (1 Bft) N-NO 22 2 min 0,000 mm 3,3 UV-I 677 W/m 8,0 C 15,5 C 8,0 km/h (2 Bft) 94,12 %
24.03.2019 12:24 15,4 C 7,8 C 27,8 C 57 % 1020,5 hPa 0,0 l/m 1,6 km/h (1 Bft) N-NO 22 2 min 0,000 mm 3,3 UV-I 680 W/m 6,9 C 15,4 C 4,8 km/h (1 Bft) 95,74 %
24.03.2019 12:26 15,3 C 7,8 C 28,3 C 58 % 1020,5 hPa 0,0 l/m 1,6 km/h (1 Bft) N-NO 24 2 min 0,000 mm 3,3 UV-I 676 W/m 7,1 C 15,3 C 3,2 km/h (1 Bft) 92,45 %
24.03.2019 12:28 15,4 C 7,8 C 28,9 C 58 % 1020,5 hPa 0,0 l/m 1,9 km/h (1 Bft) N-NO 27 2 min 0,000 mm 3,3 UV-I 671 W/m 7,2 C 15,4 C 4,8 km/h (1 Bft) 95,74 %
24.03.2019 12:30 15,7 C 7,8 C 28,3 C 63 % 1020,5 hPa 0,0 l/m 6,7 km/h (2 Bft) N-NO 26 2 min 0,000 mm 3,3 UV-I 663 W/m 8,7 C 15,5 C 9,7 km/h (2 Bft) 94,74 %
24.03.2019 12:32 15,8 C 7,8 C 28,3 C 61 % 1020,5 hPa 0,0 l/m 5,8 km/h (2 Bft) N-NO 27 2 min 0,000 mm 3,3 UV-I 677 W/m 8,3 C 15,8 C 9,7 km/h (2 Bft) 98,00 %
24.03.2019 12:34 16,0 C 7,8 C 27,8 C 59 % 1020,4 hPa 0,0 l/m 5,2 km/h (1 Bft) N-NO 25 2 min 0,000 mm 3,3 UV-I 675 W/m 8,0 C 16,0 C 8,0 km/h (2 Bft) 97,73 %
24.03.2019 12:36 15,9 C 7,8 C 27,8 C 56 % 1020,4 hPa 0,0 l/m 3,8 km/h (1 Bft) N-NW 329 2 min 0,000 mm 3,3 UV-I 674 W/m 7,1 C 15,9 C 6,4 km/h (2 Bft) 97,87 %
24.03.2019 12:38 15,8 C 7,8 C 27,8 C 54 % 1020,3 hPa 0,0 l/m 4,8 km/h (1 Bft) NW 314 2 min 0,000 mm 3,3 UV-I 671 W/m 6,5 C 15,8 C 9,7 km/h (2 Bft) 98,00 %
24.03.2019 12:40 15,8 C 7,8 C 27,2 C 55 % 1020,3 hPa 0,0 l/m 5,4 km/h (1 Bft) N-NW 328 2 min 0,000 mm 3,3 UV-I 671 W/m 6,8 C 15,8 C 8,0 km/h (2 Bft) 95,12 %
24.03.2019 12:42 15,8 C 7,8 C 27,2 C 55 % 1020,3 hPa 0,0 l/m 3,8 km/h (1 Bft) N 350 2 min 0,000 mm 3,2 UV-I 660 W/m 6,8 C 15,8 C 8,0 km/h (2 Bft) 100,00 %
24.03.2019 12:44 15,8 C 7,8 C 28,3 C 58 % 1020,1 hPa 0,0 l/m 1,9 km/h (1 Bft) O-SO 108 2 min 0,000 mm 3,2 UV-I 672 W/m 7,6 C 15,8 C 3,2 km/h (1 Bft) 100,00 %
24.03.2019 12:46 15,8 C 7,8 C 28,9 C 54 % 1020,1 hPa 0,0 l/m 4,4 km/h (1 Bft) NW 312 2 min 0,000 mm 3,2 UV-I 670 W/m 6,5 C 15,8 C 6,4 km/h (2 Bft) 100,00 %
24.03.2019 12:48 15,8 C 7,8 C 27,8 C 54 % 1020,1 hPa 0,0 l/m 3,6 km/h (1 Bft) NW 314 2 min 0,000 mm 3,2 UV-I 666 W/m 6,5 C 15,8 C 6,4 km/h (2 Bft) 100,00 %
24.03.2019 12:50 15,8 C 7,8 C 28,9 C 54 % 1020,0 hPa 0,0 l/m 2,8 km/h (1 Bft) W 267 2 min 0,000 mm 3,2 UV-I 665 W/m 6,5 C 15,8 C 4,8 km/h (1 Bft) 96,88 %
24.03.2019 12:52 15,8 C 7,8 C 28,9 C 54 % 1019,9 hPa 0,0 l/m 4,8 km/h (1 Bft) W-NW 283 2 min 0,000 mm 3,2 UV-I 665 W/m 6,5 C 15,8 C 9,7 km/h (2 Bft) 100,00 %
24.03.2019 12:54 15,9 C 7,8 C 27,8 C 53 % 1019,9 hPa 0,0 l/m 6,5 km/h (2 Bft) W-SW 237 2 min 0,000 mm 3,2 UV-I 666 W/m 6,3 C 15,9 C 9,7 km/h (2 Bft) 100,00 %
24.03.2019 12:56 15,8 C 7,8 C 28,3 C 54 % 1019,9 hPa 0,0 l/m 4,0 km/h (1 Bft) W-SW 237 2 min 0,000 mm 3,2 UV-I 665 W/m 6,5 C 15,8 C 6,4 km/h (2 Bft) 100,00 %
24.03.2019 12:58 16,1 C 7,8 C 28,9 C 53 % 1019,8 hPa 0,0 l/m 1,9 km/h (1 Bft) W-SW 239 2 min 0,000 mm 3,2 UV-I 658 W/m 6,5 C 16,1 C 3,2 km/h (1 Bft) 100,00 %
24.03.2019 13:00 16,3 C 7,8 C 29,4 C 57 % 1019,8 hPa 0,0 l/m 2,5 km/h (1 Bft) W-NW 300 2 min 0,381 mm 3,1 UV-I 658 W/m 7,8 C 16,3 C 4,8 km/h (1 Bft) 100,00 %
24.03.2019 13:02 16,3 C 7,8 C 29,4 C 54 % 1019,7 hPa 0,0 l/m 3,2 km/h (1 Bft) N 9 2 min 0,000 mm 3,1 UV-I 653 W/m 7,0 C 16,3 C 6,4 km/h (2 Bft) 100,00 %
24.03.2019 13:04 16,3 C 7,8 C 28,9 C 54 % 1019,8 hPa 0,0 l/m 6,0 km/h (2 Bft) NO 48 2 min 0,000 mm 3,1 UV-I 655 W/m 7,0 C 16,3 C 8,0 km/h (2 Bft) 100,00 %
24.03.2019 13:06 16,3 C 7,8 C 28,9 C 56 % 1019,7 hPa 0,0 l/m 5,3 km/h (1 Bft) NO 54 2 min 0,000 mm 3,1 UV-I 652 W/m 7,5 C 16,3 C 8,0 km/h (2 Bft) 100,00 %
24.03.2019 13:08 16,5 C 7,8 C 28,9 C 55 % 1019,7 hPa 0,0 l/m 4,8 km/h (1 Bft) N-NO 13 2 min 0,000 mm 3,1 UV-I 646 W/m 7,4 C 16,5 C 6,4 km/h (2 Bft) 98,00 %
24.03.2019 13:10 16,7 C 7,8 C 28,9 C 54 % 1019,6 hPa 0,0 l/m 3,5 km/h (1 Bft) NW 320 2 min 0,000 mm 3,1 UV-I 648 W/m 7,3 C 16,7 C 6,4 km/h (2 Bft) 100,00 %
24.03.2019 13:12 16,7 C 7,8 C 29,4 C 51 % 1019,6 hPa 0,0 l/m 1,2 km/h (1 Bft) W-NW 285 2 min 0,000 mm 3,1 UV-I 650 W/m 6,5 C 16,7 C 6,4 km/h (2 Bft) 100,00 %
24.03.2019 13:14 16,7 C 7,8 C 29,4 C 51 % 1019,6 hPa 0,0 l/m 7,0 km/h (2 Bft) NW 309 2 min 0,000 mm 3,0 UV-I 640 W/m 6,5 C 16,4 C 11,3 km/h (2 Bft) 100,00 %
24.03.2019 13:16 16,6 C 7,8 C 28,3 C 52 % 1019,5 hPa 0,0 l/m 4,8 km/h (1 Bft) NW 320 2 min 0,000 mm 3,0 UV-I 642 W/m 6,7 C 16,6 C 8,0 km/h (2 Bft) 100,00 %
24.03.2019 13:18 16,5 C 7,8 C 27,8 C 50 % 1019,5 hPa 0,0 l/m 4,5 km/h (1 Bft) NW 325 2 min 0,000 mm 3,0 UV-I 641 W/m 6,0 C 16,5 C 6,4 km/h (2 Bft) 100,00 %
24.03.2019 13:20 16,5 C 7,8 C 28,3 C 52 % 1019,5 hPa 0,0 l/m 2,2 km/h (1 Bft) NW 319 2 min 0,000 mm 3,0 UV-I 638 W/m 6,6 C 16,5 C 6,4 km/h (2 Bft) 100,00 %
24.03.2019 13:22 16,6 C 7,8 C 27,8 C 51 % 1019,4 hPa 0,0 l/m 5,1 km/h (1 Bft) N-NO 30 2 min 0,000 mm 3,0 UV-I 633 W/m 6,4 C 16,6 C 8,0 km/h (2 Bft) 100,00 %
24.03.2019 13:24 16,7 C 7,8 C 27,8 C 48 % 1019,4 hPa 0,0 l/m 5,8 km/h (2 Bft) N 355 2 min 0,000 mm 2,9 UV-I 634 W/m 5,6 C 16,7 C 8,0 km/h (2 Bft) 98,00 %
24.03.2019 13:26 16,7 C 7,8 C 28,3 C 49 % 1019,4 hPa 0,0 l/m 2,7 km/h (1 Bft) N-NW 338 2 min 0,000 mm 2,9 UV-I 633 W/m 5,9 C 16,7 C 4,8 km/h (1 Bft) 100,00 %
24.03.2019 13:28 16,8 C 7,8 C 28,3 C 50 % 1019,3 hPa 0,0 l/m 5,0 km/h (1 Bft) N-NO 17 2 min 0,000 mm 2,9 UV-I 628 W/m 6,3 C 16,8 C 8,0 km/h (2 Bft) 100,00 %
24.03.2019 13:30 16,9 C 7,8 C 28,3 C 50 % 1019,3 hPa 0,0 l/m 6,5 km/h (2 Bft) N-NO 14 2 min 0,000 mm 2,9 UV-I 625 W/m 6,4 C 16,9 C 12,9 km/h (3 Bft) 98,00 %
24.03.2019 13:32 16,9 C 7,8 C 28,3 C 48 % 1019,3 hPa 0,0 l/m 6,3 km/h (2 Bft) N-NO 26 2 min 0,000 mm 2,9 UV-I 623 W/m 5,8 C 16,9 C 12,9 km/h (3 Bft) 100,00 %
24.03.2019 13:34 16,8 C 7,8 C 28,9 C 49 % 1019,2 hPa 0,0 l/m 3,0 km/h (1 Bft) NO 42 2 min 0,000 mm 2,8 UV-I 619 W/m 6,0 C 16,8 C 4,8 km/h (1 Bft) 100,00 %
24.03.2019 13:36 16,9 C 7,8 C 28,3 C 50 % 1019,2 hPa 0,0 l/m 4,4 km/h (1 Bft) W 279 2 min 0,000 mm 2,8 UV-I 609 W/m 6,4 C 16,9 C 9,7 km/h (2 Bft) 100,00 %
24.03.2019 13:38 17,0 C 7,8 C 28,3 C 49 % 1019,1 hPa 0,0 l/m 4,5 km/h (1 Bft) N 5 2 min 0,000 mm 2,8 UV-I 615 W/m 6,2 C 17,0 C 6,4 km/h (2 Bft) 100,00 %
24.03.2019 13:40 16,9 C 7,8 C 28,3 C 47 % 1019,1 hPa 0,0 l/m 5,6 km/h (1 Bft) N-NW 328 2 min 0,000 mm 2,8 UV-I 610 W/m 5,5 C 16,9 C 11,3 km/h (2 Bft) 100,00 %
24.03.2019 13:42 17,1 C 7,8 C 27,8 C 49 % 1019,1 hPa 0,0 l/m 8,1 km/h (2 Bft) N-NW 341 2 min 0,000 mm 2,7 UV-I 609 W/m 6,3 C 16,3 C 12,9 km/h (3 Bft) 97,87 %
24.03.2019 13:44 17,2 C 7,8 C 27,2 C 49 % 1019,2 hPa 0,0 l/m 7,6 km/h (2 Bft) N 5 2 min 0,000 mm 2,7 UV-I 602 W/m 6,4 C 16,6 C 14,5 km/h (3 Bft) 97,37 %
24.03.2019 13:46 17,1 C 7,8 C 26,7 C 49 % 1019,1 hPa 0,0 l/m 8,3 km/h (2 Bft) W-NW 286 2 min 0,000 mm 2,6 UV-I 595 W/m 6,3 C 16,2 C 12,9 km/h (3 Bft) 95,45 %
24.03.2019 13:48 17,1 C 7,8 C 26,7 C 49 % 1019,1 hPa 0,0 l/m 4,8 km/h (1 Bft) W 273 2 min 0,000 mm 2,6 UV-I 599 W/m 6,3 C 17,1 C 8,0 km/h (2 Bft) 95,45 %
24.03.2019 13:50 17,2 C 7,8 C 27,2 C 49 % 1019,1 hPa 0,0 l/m 6,8 km/h (2 Bft) NW 324 2 min 0,000 mm 2,6 UV-I 593 W/m 6,4 C 17,0 C 12,9 km/h (3 Bft) 94,64 %
24.03.2019 13:52 17,2 C 7,8 C 27,2 C 48 % 1019,1 hPa 0,0 l/m 7,0 km/h (2 Bft) N-NW 345 2 min 0,000 mm 2,6 UV-I 590 W/m 6,1 C 16,9 C 12,9 km/h (3 Bft) 95,74 %
24.03.2019 13:54 17,2 C 7,8 C 26,7 C 49 % 1019,1 hPa 0,0 l/m 4,9 km/h (1 Bft) W-NW 299 2 min 0,000 mm 2,6 UV-I 591 W/m 6,4 C 17,2 C 9,7 km/h (2 Bft) 96,00 %
24.03.2019 13:56 17,2 C 7,8 C 27,2 C 49 % 1019,1 hPa 0,0 l/m 5,0 km/h (1 Bft) W 265 2 min 0,000 mm 2,5 UV-I 585 W/m 6,4 C 17,2 C 8,0 km/h (2 Bft) 96,15 %
24.03.2019 13:58 17,3 C 7,8 C 27,8 C 48 % 1019,0 hPa 0,0 l/m 4,0 km/h (1 Bft) N 355 2 min 0,000 mm 2,5 UV-I 579 W/m 6,2 C 17,3 C 8,0 km/h (2 Bft) 95,59 %
24.03.2019 14:00 17,4 C 7,8 C 27,2 C 49 % 1019,0 hPa 0,0 l/m 11,4 km/h (2 Bft) N-NO 26 2 min 0,381 mm 2,5 UV-I 576 W/m 6,6 C 15,2 C 14,5 km/h (3 Bft) 93,18 %
24.03.2019 14:02 17,4 C 7,8 C 26,7 C 53 % 1018,9 hPa 0,0 l/m 10,3 km/h (2 Bft) W 274 2 min 0,000 mm 2,4 UV-I 566 W/m 7,7 C 15,7 C 16,1 km/h (3 Bft) 97,56 %
24.03.2019 14:04 17,4 C 7,8 C 26,1 C 46 % 1018,9 hPa 0,0 l/m 6,3 km/h (2 Bft) NW 325 2 min 0,000 mm 2,4 UV-I 564 W/m 5,7 C 17,4 C 9,7 km/h (2 Bft) 92,00 %
24.03.2019 14:06 17,4 C 7,8 C 26,7 C 45 % 1018,9 hPa 0,0 l/m 7,8 km/h (2 Bft) W 263 2 min 0,000 mm 2,4 UV-I 561 W/m 5,3 C 16,7 C 16,1 km/h (3 Bft) 93,62 %
24.03.2019 14:08 17,4 C 7,8 C 26,1 C 45 % 1018,9 hPa 0,0 l/m 8,0 km/h (2 Bft) W 271 2 min 0,000 mm 2,3 UV-I 566 W/m 5,3 C 16,6 C 12,9 km/h (3 Bft) 93,62 %
24.03.2019 14:10 17,4 C 7,8 C 26,7 C 45 % 1018,9 hPa 0,0 l/m 7,1 km/h (2 Bft) W 270 2 min 0,000 mm 2,3 UV-I 563 W/m 5,3 C 17,1 C 12,9 km/h (3 Bft) 93,62 %
24.03.2019 14:12 17,4 C 7,8 C 26,7 C 46 % 1018,8 hPa 0,0 l/m 8,8 km/h (2 Bft) W 272 2 min 0,000 mm 2,3 UV-I 566 W/m 5,7 C 16,3 C 12,9 km/h (3 Bft) 95,74 %
24.03.2019 14:14 17,4 C 7,8 C 27,2 C 45 % 1018,8 hPa 0,0 l/m 5,0 km/h (1 Bft) W 261 2 min 0,000 mm 2,3 UV-I 560 W/m 5,3 C 17,4 C 12,9 km/h (3 Bft) 95,24 %
24.03.2019 14:16 17,6 C 7,8 C 27,2 C 46 % 1018,8 hPa 0,0 l/m 4,3 km/h (1 Bft) NW 313 2 min 0,000 mm 2,2 UV-I 555 W/m 5,8 C 17,6 C 8,0 km/h (2 Bft) 96,36 %
24.03.2019 14:18 17,7 C 7,8 C 27,2 C 46 % 1018,8 hPa 0,0 l/m 8,5 km/h (2 Bft) W 262 2 min 0,000 mm 2,2 UV-I 546 W/m 5,9 C 16,7 C 14,5 km/h (3 Bft) 97,92 %
24.03.2019 14:20 17,6 C 7,8 C 27,2 C 44 % 1018,7 hPa 0,0 l/m 8,0 km/h (2 Bft) N 355 2 min 0,000 mm 2,2 UV-I 544 W/m 5,2 C 16,8 C 14,5 km/h (3 Bft) 98,00 %
24.03.2019 14:22 17,5 C 7,8 C 26,7 C 46 % 1018,7 hPa 0,0 l/m 5,1 km/h (1 Bft) NW 306 2 min 0,000 mm 2,1 UV-I 537 W/m 5,8 C 17,5 C 11,3 km/h (2 Bft) 95,12 %
24.03.2019 14:24 17,5 C 7,8 C 26,1 C 45 % 1018,7 hPa 0,0 l/m 7,3 km/h (2 Bft) W-NW 294 2 min 0,000 mm 2,1 UV-I 533 W/m 5,4 C 17,1 C 12,9 km/h (3 Bft) 96,00 %
24.03.2019 14:26 17,7 C 7,8 C 27,2 C 47 % 1018,7 hPa 0,0 l/m 2,9 km/h (1 Bft) S-SW 212 2 min 0,000 mm 2,1 UV-I 531 W/m 6,2 C 17,7 C 4,8 km/h (1 Bft) 98,00 %
24.03.2019 14:28 17,9 C 7,8 C 26,7 C 44 % 1018,7 hPa 0,0 l/m 6,9 km/h (2 Bft) W 273 2 min 0,000 mm 2,1 UV-I 525 W/m 5,5 C 17,7 C 14,5 km/h (3 Bft) 97,14 %
24.03.2019 14:30 17,8 C 7,8 C 27,2 C 44 % 1018,6 hPa 0,0 l/m 8,1 km/h (2 Bft) NW 316 2 min 0,000 mm 2,0 UV-I 523 W/m 5,4 C 17,0 C 17,7 km/h (3 Bft) 96,00 %
24.03.2019 14:32 17,8 C 7,8 C 25,6 C 46 % 1018,5 hPa 0,0 l/m 8,6 km/h (2 Bft) W-NW 300 2 min 0,000 mm 2,0 UV-I 519 W/m 6,0 C 16,8 C 12,9 km/h (3 Bft) 98,11 %
24.03.2019 14:34 17,8 C 7,8 C 25,6 C 45 % 1018,6 hPa 0,0 l/m 10,2 km/h (2 Bft) W-SW 258 2 min 0,000 mm 2,0 UV-I 511 W/m 5,7 C 16,1 C 12,9 km/h (3 Bft) 97,37 %
24.03.2019 14:36 17,7 C 7,8 C 25,6 C 45 % 1018,5 hPa 0,0 l/m 6,8 km/h (2 Bft) W-SW 244 2 min 0,000 mm 1,9 UV-I 507 W/m 5,6 C 17,5 C 12,9 km/h (3 Bft) 98,11 %
24.03.2019 14:38 17,7 C 7,8 C 25,6 C 44 % 1018,5 hPa 0,0 l/m 4,1 km/h (1 Bft) NW 319 2 min 0,000 mm 1,9 UV-I 504 W/m 5,3 C 17,7 C 6,4 km/h (2 Bft) 97,87 %
24.03.2019 14:40 17,7 C 7,8 C 26,1 C 46 % 1018,4 hPa 0,0 l/m 4,6 km/h (1 Bft) NW 317 2 min 0,000 mm 1,9 UV-I 502 W/m 5,9 C 17,7 C 8,0 km/h (2 Bft) 95,74 %
24.03.2019 14:42 17,8 C 7,8 C 25,6 C 47 % 1018,4 hPa 0,0 l/m 6,5 km/h (2 Bft) W 277 2 min 0,000 mm 1,9 UV-I 497 W/m 6,3 C 17,8 C 14,5 km/h (3 Bft) 95,74 %
24.03.2019 14:44 17,8 C 7,8 C 25,0 C 46 % 1018,4 hPa 0,0 l/m 7,8 km/h (2 Bft) NW 324 2 min 0,000 mm 1,8 UV-I 493 W/m 6,0 C 17,1 C 14,5 km/h (3 Bft) 97,56 %
24.03.2019 14:46 17,7 C 7,8 C 25,0 C 45 % 1018,4 hPa 0,0 l/m 6,5 km/h (2 Bft) NW 319 2 min 0,000 mm 1,8 UV-I 490 W/m 5,6 C 17,7 C 9,7 km/h (2 Bft) 98,00 %
24.03.2019 14:48 17,7 C 7,8 C 25,0 C 48 % 1018,4 hPa 0,0 l/m 6,1 km/h (2 Bft) N-NW 337 2 min 0,000 mm 1,8 UV-I 490 W/m 6,6 C 17,7 C 8,0 km/h (2 Bft) 97,62 %
24.03.2019 14:50 17,8 C 7,8 C 25,0 C 48 % 1018,4 hPa 0,0 l/m 3,8 km/h (1 Bft) NW 309 2 min 0,000 mm 1,7 UV-I 485 W/m 6,6 C 17,8 C 6,4 km/h (2 Bft) 96,55 %
24.03.2019 14:52 18,0 C 7,8 C 25,0 C 46 % 1018,4 hPa 0,0 l/m 3,7 km/h (1 Bft) NW 319 2 min 0,000 mm 1,7 UV-I 478 W/m 6,2 C 18,0 C 8,0 km/h (2 Bft) 97,44 %
24.03.2019 14:54 18,1 C 7,8 C 25,0 C 46 % 1018,4 hPa 0,0 l/m 3,5 km/h (1 Bft) W 279 2 min 0,000 mm 1,7 UV-I 475 W/m 6,3 C 18,1 C 9,7 km/h (2 Bft) 98,00 %
24.03.2019 14:56 18,1 C 7,8 C 25,0 C 45 % 1018,3 hPa 0,0 l/m 8,2 km/h (2 Bft) W-NW 293 2 min 0,000 mm 1,7 UV-I 473 W/m 6,0 C 17,3 C 14,5 km/h (3 Bft) 98,00 %
24.03.2019 14:58 18,0 C 7,8 C 23,9 C 44 % 1018,3 hPa 0,0 l/m 7,2 km/h (2 Bft) W-NW 290 2 min 0,000 mm 1,6 UV-I 468 W/m 5,6 C 17,6 C 12,9 km/h (3 Bft) 97,37 %
24.03.2019 15:00 17,9 C 7,8 C 23,9 C 46 % 1018,3 hPa 0,0 l/m 3,5 km/h (1 Bft) NW 306 2 min 0,330 mm 1,6 UV-I 456 W/m 6,1 C 17,9 C 8,0 km/h (2 Bft) 98,21 %
24.03.2019 15:02 18,1 C 7,8 C 23,9 C 46 % 1018,3 hPa 0,0 l/m 5,4 km/h (1 Bft) W 277 2 min 0,000 mm 1,5 UV-I 448 W/m 6,3 C 18,1 C 9,7 km/h (2 Bft) 95,65 %
24.03.2019 15:04 18,2 C 7,8 C 23,9 C 45 % 1018,3 hPa 0,0 l/m 9,0 km/h (2 Bft) W-SW 254 2 min 0,000 mm 1,5 UV-I 444 W/m 6,1 C 17,0 C 12,9 km/h (3 Bft) 98,53 %
24.03.2019 15:06 18,2 C 7,8 C 23,3 C 45 % 1018,3 hPa 0,0 l/m 13,2 km/h (3 Bft) SW 228 2 min 0,000 mm 1,5 UV-I 435 W/m 6,1 C 15,6 C 17,7 km/h (3 Bft) 97,56 %
24.03.2019 15:08 18,1 C 7,8 C 23,3 C 45 % 1018,2 hPa 0,0 l/m 12,1 km/h (2 Bft) W 274 2 min 0,000 mm 1,4 UV-I 426 W/m 6,0 C 15,8 C 16,1 km/h (3 Bft) 97,87 %
24.03.2019 15:10 18,0 C 7,8 C 22,8 C 45 % 1018,3 hPa 0,0 l/m 9,7 km/h (2 Bft) W-SW 257 2 min 0,000 mm 1,4 UV-I 422 W/m 5,9 C 16,5 C 12,9 km/h (3 Bft) 95,74 %
24.03.2019 15:12 17,9 C 7,8 C 22,8 C 47 % 1018,2 hPa 0,0 l/m 6,7 km/h (2 Bft) W 271 2 min 0,000 mm 1,4 UV-I 418 W/m 6,4 C 17,8 C 9,7 km/h (2 Bft) 93,62 %
24.03.2019 15:14 17,9 C 7,8 C 22,2 C 45 % 1018,2 hPa 0,0 l/m 3,1 km/h (1 Bft) W-NW 299 2 min 0,000 mm 1,3 UV-I 411 W/m 5,8 C 17,9 C 11,3 km/h (2 Bft) 96,00 %
24.03.2019 15:16 17,9 C 7,8 C 22,2 C 46 % 1018,1 hPa 0,0 l/m 5,2 km/h (1 Bft) W-SW 244 2 min 0,000 mm 1,3 UV-I 411 W/m 6,1 C 17,9 C 11,3 km/h (2 Bft) 95,74 %
24.03.2019 15:18 17,9 C 7,8 C 22,2 C 46 % 1018,2 hPa 0,0 l/m 3,6 km/h (1 Bft) NW 326 2 min 0,000 mm 1,3 UV-I 415 W/m 6,1 C 17,9 C 8,0 km/h (2 Bft) 96,00 %
24.03.2019 15:20 17,8 C 7,8 C 22,2 C 47 % 1018,1 hPa 0,0 l/m 4,2 km/h (1 Bft) W-NW 296 2 min 0,000 mm 1,3 UV-I 409 W/m 6,3 C 17,8 C 8,0 km/h (2 Bft) 95,74 %
24.03.2019 15:22 17,9 C 7,8 C 21,7 C 48 % 1018,0 hPa 0,0 l/m 4,3 km/h (1 Bft) W 279 2 min 0,000 mm 1,3 UV-I 407 W/m 6,7 C 17,9 C 8,0 km/h (2 Bft) 94,74 %
24.03.2019 15:24 18,0 C 7,8 C 21,7 C 49 % 1018,1 hPa 0,0 l/m 3,5 km/h (1 Bft) NW 312 2 min 0,000 mm 1,3 UV-I 413 W/m 7,1 C 18,0 C 6,4 km/h (2 Bft) 95,74 %
24.03.2019 15:26 18,1 C 7,8 C 21,7 C 49 % 1018,0 hPa 0,0 l/m 4,9 km/h (1 Bft) NW 321 2 min 0,000 mm 1,2 UV-I 404 W/m 7,2 C 18,1 C 11,3 km/h (2 Bft) 93,33 %
24.03.2019 15:28 18,1 C 7,8 C 21,7 C 46 % 1018,0 hPa 0,0 l/m 8,0 km/h (2 Bft) W 273 2 min 0,000 mm 1,2 UV-I 399 W/m 6,3 C 17,4 C 12,9 km/h (3 Bft) 96,15 %
24.03.2019 15:30 17,9 C 7,8 C 21,1 C 47 % 1017,9 hPa 0,0 l/m 5,2 km/h (1 Bft) W-NW 291 2 min 0,000 mm 1,2 UV-I 391 W/m 6,4 C 17,9 C 9,7 km/h (2 Bft) 92,45 %
24.03.2019 15:32 18,1 C 7,8 C 21,1 C 48 % 1017,9 hPa 0,0 l/m 6,0 km/h (2 Bft) W-NW 286 2 min 0,000 mm 1,1 UV-I 373 W/m 6,9 C 18,1 C 11,3 km/h (2 Bft) 95,56 %
24.03.2019 15:34 18,1 C 7,8 C 20,6 C 47 % 1017,9 hPa 0,0 l/m 5,2 km/h (1 Bft) W 281 2 min 0,000 mm 1,1 UV-I 376 W/m 6,6 C 18,1 C 11,3 km/h (2 Bft) 96,00 %
24.03.2019 15:36 18,0 C 7,8 C 20,6 C 47 % 1017,9 hPa 0,0 l/m 6,3 km/h (2 Bft) W 275 2 min 0,000 mm 1,1 UV-I 342 W/m 6,5 C 18,0 C 11,3 km/h (2 Bft) 94,74 %
24.03.2019 15:38 17,9 C 7,8 C 20,0 C 47 % 1017,9 hPa 0,0 l/m 11,5 km/h (2 Bft) W 266 2 min 0,000 mm 1,1 UV-I 370 W/m 6,4 C 15,8 C 17,7 km/h (3 Bft) 92,45 %
24.03.2019 15:40 17,8 C 7,8 C 19,4 C 47 % 1017,8 hPa 0,0 l/m 8,6 km/h (2 Bft) W 264 2 min 0,000 mm 1,0 UV-I 364 W/m 6,3 C 16,8 C 14,5 km/h (3 Bft) 95,45 %
24.03.2019 15:42 17,8 C 7,8 C 19,4 C 48 % 1017,8 hPa 0,0 l/m 4,7 km/h (1 Bft) NW 308 2 min 0,000 mm 1,0 UV-I 342 W/m 6,6 C 17,8 C 12,9 km/h (3 Bft) 95,74 %
24.03.2019 15:44 17,8 C 7,8 C 19,4 C 47 % 1017,7 hPa 0,0 l/m 6,7 km/h (2 Bft) NW 315 2 min 0,000 mm 1,0 UV-I 339 W/m 6,3 C 17,7 C 12,9 km/h (3 Bft) 94,34 %
24.03.2019 15:46 17,7 C 7,8 C 19,4 C 48 % 1017,8 hPa 0,0 l/m 3,6 km/h (1 Bft) W 270 2 min 0,000 mm 0,9 UV-I 337 W/m 6,6 C 17,7 C 9,7 km/h (2 Bft) 94,74 %
24.03.2019 15:48 17,7 C 7,8 C 19,4 C 47 % 1017,8 hPa 0,0 l/m 5,9 km/h (2 Bft) W 264 2 min 0,000 mm 0,9 UV-I 335 W/m 6,2 C 17,7 C 12,9 km/h (3 Bft) 97,87 %
24.03.2019 15:50 17,7 C 7,8 C 18,9 C 47 % 1017,8 hPa 0,0 l/m 6,1 km/h (2 Bft) W-NW 297 2 min 0,000 mm 0,9 UV-I 308 W/m 6,2 C 17,7 C 12,9 km/h (3 Bft) 98,11 %
24.03.2019 15:52 17,7 C 7,8 C 18,9 C 48 % 1017,7 hPa 0,0 l/m 7,4 km/h (2 Bft) W-NW 288 2 min 0,000 mm 0,9 UV-I 292 W/m 6,6 C 17,2 C 14,5 km/h (3 Bft) 97,87 %
24.03.2019 15:54 17,7 C 7,8 C 18,9 C 48 % 1017,7 hPa 0,0 l/m 2,6 km/h (1 Bft) SW 235 2 min 0,000 mm 0,8 UV-I 300 W/m 6,6 C 17,7 C 6,4 km/h (2 Bft) 97,37 %
24.03.2019 15:56 17,8 C 7,8 C 18,9 C 47 % 1017,7 hPa 0,0 l/m 5,5 km/h (1 Bft) W 263 2 min 0,000 mm 0,8 UV-I 313 W/m 6,3 C 17,8 C 14,5 km/h (3 Bft) 94,34 %
24.03.2019 15:58 17,8 C 7,8 C 18,9 C 47 % 1017,7 hPa 0,0 l/m 5,2 km/h (1 Bft) W-NW 299 2 min 0,000 mm 0,8 UV-I 306 W/m 6,3 C 17,8 C 6,4 km/h (2 Bft) 97,56 %
24.03.2019 16:00 17,7 C 7,8 C 18,9 C 47 % 1017,8 hPa 0,0 l/m 6,6 km/h (2 Bft) NW 324 2 min 0,254 mm 0,8 UV-I 306 W/m 6,2 C 17,6 C 11,3 km/h (2 Bft) 96,43 %
24.03.2019 16:02 17,7 C 7,8 C 18,3 C 47 % 1017,7 hPa 0,0 l/m 5,5 km/h (1 Bft) NW 319 2 min 0,000 mm 0,7 UV-I 252 W/m 6,2 C 17,7 C 12,9 km/h (3 Bft) 97,56 %
24.03.2019 16:04 17,6 C 7,8 C 18,3 C 47 % 1017,7 hPa 0,0 l/m 6,5 km/h (2 Bft) NW 313 2 min 0,000 mm 0,7 UV-I 229 W/m 6,2 C 17,6 C 12,9 km/h (3 Bft) 97,87 %
24.03.2019 16:06 17,4 C 7,8 C 17,8 C 46 % 1017,7 hPa 0,0 l/m 6,8 km/h (2 Bft) NW 319 2 min 0,000 mm 0,7 UV-I 258 W/m 5,7 C 17,2 C 14,5 km/h (3 Bft) 97,92 %
24.03.2019 16:08 17,4 C 7,8 C 17,8 C 47 % 1017,7 hPa 0,0 l/m 5,3 km/h (1 Bft) W-NW 299 2 min 0,000 mm 0,7 UV-I 222 W/m 6,0 C 17,4 C 11,3 km/h (2 Bft) 100,00 %
24.03.2019 16:10 17,3 C 7,8 C 17,8 C 47 % 1017,7 hPa 0,0 l/m 4,0 km/h (1 Bft) W 269 2 min 0,000 mm 0,6 UV-I 207 W/m 5,9 C 17,3 C 6,4 km/h (2 Bft) 100,00 %
24.03.2019 16:12 17,3 C 7,8 C 17,8 C 48 % 1017,7 hPa 0,0 l/m 3,0 km/h (1 Bft) W-NW 287 2 min 0,000 mm 0,6 UV-I 225 W/m 6,2 C 17,3 C 4,8 km/h (1 Bft) 97,44 %
24.03.2019 16:14 17,3 C 7,8 C 17,8 C 48 % 1017,7 hPa 0,0 l/m 4,0 km/h (1 Bft) N-NW 337 2 min 0,000 mm 0,6 UV-I 252 W/m 6,2 C 17,3 C 8,0 km/h (2 Bft) 98,00 %
24.03.2019 16:16 17,3 C 7,8 C 17,8 C 48 % 1017,6 hPa 0,0 l/m 5,6 km/h (1 Bft) NW 311 2 min 0,000 mm 0,6 UV-I 243 W/m 6,2 C 17,3 C 14,5 km/h (3 Bft) 97,87 %
24.03.2019 16:18 17,2 C 7,8 C 17,8 C 47 % 1017,6 hPa 0,0 l/m 5,4 km/h (1 Bft) W-NW 286 2 min 0,000 mm 0,6 UV-I 209 W/m 5,8 C 17,2 C 11,3 km/h (2 Bft) 97,87 %
24.03.2019 16:20 17,2 C 7,8 C 17,8 C 46 % 1017,6 hPa 0,0 l/m 6,4 km/h (2 Bft) N-NW 347 2 min 0,000 mm 0,6 UV-I 268 W/m 5,5 C 17,2 C 12,9 km/h (3 Bft) 96,00 %
24.03.2019 16:22 17,1 C 7,8 C 17,8 C 48 % 1017,6 hPa 0,0 l/m 4,6 km/h (1 Bft) NW 308 2 min 0,000 mm 0,6 UV-I 269 W/m 6,0 C 17,1 C 9,7 km/h (2 Bft) 100,00 %
24.03.2019 16:24 17,2 C 7,8 C 17,8 C 48 % 1017,6 hPa 0,0 l/m 6,1 km/h (2 Bft) NW 317 2 min 0,000 mm 0,6 UV-I 278 W/m 6,1 C 17,2 C 12,9 km/h (3 Bft) 98,00 %
24.03.2019 16:26 17,2 C 7,8 C 17,8 C 46 % 1017,6 hPa 0,0 l/m 9,0 km/h (2 Bft) NW 316 2 min 0,000 mm 0,5 UV-I 273 W/m 5,5 C 16,0 C 19,3 km/h (3 Bft) 100,00 %
24.03.2019 16:28 17,1 C 7,8 C 17,8 C 47 % 1017,6 hPa 0,0 l/m 7,0 km/h (2 Bft) W-NW 290 2 min 0,000 mm 0,5 UV-I 271 W/m 5,7 C 16,8 C 12,9 km/h (3 Bft) 98,00 %
24.03.2019 16:30 17,2 C 7,8 C 17,8 C 47 % 1017,5 hPa 0,0 l/m 4,9 km/h (1 Bft) W-NW 289 2 min 0,000 mm 0,5 UV-I 266 W/m 5,8 C 17,2 C 8,0 km/h (2 Bft) 100,00 %
24.03.2019 16:32 17,2 C 7,8 C 17,8 C 45 % 1017,6 hPa 0,0 l/m 9,2 km/h (2 Bft) W 270 2 min 0,000 mm 0,5 UV-I 260 W/m 5,2 C 15,9 C 14,5 km/h (3 Bft) 100,00 %
24.03.2019 16:34 17,3 C 7,8 C 17,2 C 46 % 1017,5 hPa 0,0 l/m 6,0 km/h (2 Bft) N-NW 337 2 min 0,000 mm 0,5 UV-I 254 W/m 5,6 C 17,3 C 12,9 km/h (3 Bft) 98,00 %
24.03.2019 16:36 17,2 C 7,8 C 17,2 C 48 % 1017,5 hPa 0,0 l/m 4,7 km/h (1 Bft) W-NW 284 2 min 0,000 mm 0,4 UV-I 248 W/m 6,1 C 17,2 C 9,7 km/h (2 Bft) 100,00 %
24.03.2019 16:38 17,2 C 7,8 C 17,2 C 47 % 1017,5 hPa 0,0 l/m 5,0 km/h (1 Bft) W-NW 300 2 min 0,000 mm 0,0 UV-I 240 W/m 5,8 C 17,2 C 8,0 km/h (2 Bft) 96,00 %
24.03.2019 16:40 17,2 C 7,8 C 16,7 C 46 % 1017,5 hPa 0,0 l/m 4,6 km/h (1 Bft) NW 305 2 min 0,000 mm 0,0 UV-I 186 W/m 5,5 C 17,2 C 11,3 km/h (2 Bft) 98,11 %
24.03.2019 16:42 17,1 C 7,8 C 16,7 C 46 % 1017,5 hPa 0,0 l/m 5,4 km/h (1 Bft) W-NW 289 2 min 0,000 mm 0,0 UV-I 168 W/m 5,4 C 17,1 C 9,7 km/h (2 Bft) 94,87 %
24.03.2019 16:44 16,9 C 7,8 C 16,1 C 48 % 1017,6 hPa 0,0 l/m 5,6 km/h (1 Bft) W-NW 295 2 min 0,000 mm 0,0 UV-I 167 W/m 5,8 C 16,9 C 8,0 km/h (2 Bft) 96,15 %
24.03.2019 16:46 16,8 C 7,8 C 16,1 C 47 % 1017,6 hPa 0,0 l/m 6,1 km/h (2 Bft) W 279 2 min 0,000 mm 0,0 UV-I 190 W/m 5,4 C 16,8 C 14,5 km/h (3 Bft) 95,56 %
24.03.2019 16:48 16,7 C 7,8 C 16,1 C 47 % 1017,6 hPa 0,0 l/m 5,5 km/h (1 Bft) W-NW 303 2 min 0,000 mm 0,0 UV-I 162 W/m 5,3 C 16,7 C 8,0 km/h (2 Bft) 98,00 %
24.03.2019 16:50 16,6 C 7,8 C 15,6 C 48 % 1017,5 hPa 0,0 l/m 4,1 km/h (1 Bft) W-NW 290 2 min 0,000 mm 0,0 UV-I 150 W/m 5,5 C 16,6 C 8,0 km/h (2 Bft) 97,87 %
24.03.2019 16:52 16,5 C 7,8 C 15,6 C 48 % 1017,5 hPa 0,0 l/m 3,7 km/h (1 Bft) W-NW 298 0 min 0,000 mm 0,0 UV-I 116 W/m 5,5 C 16,5 C 6,4 km/h (2 Bft) 97,87 %
24.03.2019 16:54 16,5 C 7,8 C 15,6 C 48 % 1017,5 hPa 0,0 l/m 4,1 km/h (1 Bft) W-NW 288 0 min 0,000 mm 0,0 UV-I 113 W/m 5,5 C 16,5 C 6,4 km/h (2 Bft) 98,00 %
24.03.2019 16:56 16,4 C 7,8 C 15,0 C 48 % 1017,5 hPa 0,0 l/m 4,4 km/h (1 Bft) W-SW 251 0 min 0,000 mm 0,0 UV-I 118 W/m 5,4 C 16,4 C 8,0 km/h (2 Bft) 97,37 %
24.03.2019 16:58 16,3 C 7,8 C 15,0 C 47 % 1017,5 hPa 0,0 l/m 5,8 km/h (2 Bft) W-NW 285 0 min 0,000 mm 0,0 UV-I 124 W/m 5,0 C 16,3 C 11,3 km/h (2 Bft) 98,00 %
24.03.2019 17:00 16,3 C 7,8 C 15,0 C 48 % 1017,5 hPa 0,0 l/m 6,2 km/h (2 Bft) W-SW 257 0 min 0,152 mm 0,0 UV-I 119 W/m 5,3 C 16,3 C 11,3 km/h (2 Bft) 97,56 %
24.03.2019 17:02 16,3 C 7,8 C 15,0 C 48 % 1017,5 hPa 0,0 l/m 4,9 km/h (1 Bft) W 275 0 min 0,000 mm 0,0 UV-I 117 W/m 5,3 C 16,3 C 6,4 km/h (2 Bft) 100,00 %
24.03.2019 17:04 16,3 C 7,8 C 15,0 C 48 % 1017,6 hPa 0,0 l/m 4,8 km/h (1 Bft) W-NW 288 0 min 0,000 mm 0,0 UV-I 103 W/m 5,3 C 16,3 C 9,7 km/h (2 Bft) 100,00 %
24.03.2019 17:06 16,2 C 7,8 C 15,0 C 48 % 1017,5 hPa 0,0 l/m 3,9 km/h (1 Bft) W 264 2 min 0,000 mm 0,0 UV-I 124 W/m 5,2 C 16,2 C 6,4 km/h (2 Bft) 100,00 %
24.03.2019 17:08 16,2 C 7,8 C 15,0 C 48 % 1017,6 hPa 0,0 l/m 5,4 km/h (1 Bft) W-NW 286 2 min 0,000 mm 0,0 UV-I 152 W/m 5,2 C 16,2 C 9,7 km/h (2 Bft) 100,00 %
24.03.2019 17:10 16,3 C 7,8 C 15,0 C 48 % 1017,6 hPa 0,0 l/m 5,0 km/h (1 Bft) W-SW 254 2 min 0,000 mm 0,0 UV-I 156 W/m 5,3 C 16,3 C 9,7 km/h (2 Bft) 100,00 %
24.03.2019 17:12 16,3 C 7,8 C 15,0 C 48 % 1017,5 hPa 0,0 l/m 3,7 km/h (1 Bft) W 279 2 min 0,000 mm 0,0 UV-I 154 W/m 5,3 C 16,3 C 6,4 km/h (2 Bft) 100,00 %
24.03.2019 17:14 16,3 C 7,8 C 15,0 C 48 % 1017,5 hPa 0,0 l/m 4,2 km/h (1 Bft) W-SW 250 2 min 0,000 mm 0,0 UV-I 149 W/m 5,3 C 16,3 C 6,4 km/h (2 Bft) 100,00 %
24.03.2019 17:16 16,3 C 7,8 C 15,6 C 49 % 1017,5 hPa 0,0 l/m 5,0 km/h (1 Bft) W-SW 248 2 min 0,000 mm 0,0 UV-I 133 W/m 5,6 C 16,3 C 9,7 km/h (2 Bft) 100,00 %
24.03.2019 17:18 16,3 C 7,8 C 15,6 C 49 % 1017,5 hPa 0,0 l/m 6,7 km/h (2 Bft) W 271 2 min 0,000 mm 0,0 UV-I 122 W/m 5,6 C 16,2 C 11,3 km/h (2 Bft) 98,00 %
24.03.2019 17:20 16,3 C 7,8 C 15,0 C 49 % 1017,5 hPa 0,0 l/m 3,8 km/h (1 Bft) W 271 2 min 0,000 mm 0,0 UV-I 118 W/m 5,6 C 16,3 C 4,8 km/h (1 Bft) 100,00 %
24.03.2019 17:22 16,3 C 7,8 C 15,0 C 49 % 1017,5 hPa 0,0 l/m 3,5 km/h (1 Bft) W 271 2 min 0,000 mm 0,0 UV-I 122 W/m 5,6 C 16,3 C 4,8 km/h (1 Bft) 98,11 %
24.03.2019 17:24 16,2 C 7,8 C 15,0 C 50 % 1017,5 hPa 0,0 l/m 3,3 km/h (1 Bft) W 271 2 min 0,000 mm 0,0 UV-I 118 W/m 5,8 C 16,2 C 4,8 km/h (1 Bft) 100,00 %
24.03.2019 17:26 16,2 C 7,8 C 14,4 C 50 % 1017,5 hPa 0,0 l/m 4,2 km/h (1 Bft) W 279 2 min 0,000 mm 0,0 UV-I 113 W/m 5,8 C 16,2 C 6,4 km/h (2 Bft) 96,00 %
24.03.2019 17:28 16,1 C 7,8 C 14,4 C 50 % 1017,5 hPa 0,0 l/m 8,3 km/h (2 Bft) W 278 2 min 0,000 mm 0,0 UV-I 107 W/m 5,7 C 15,1 C 16,1 km/h (3 Bft) 100,00 %
24.03.2019 17:30 16,1 C 7,8 C 14,4 C 50 % 1017,4 hPa 0,0 l/m 7,7 km/h (2 Bft) W 259 2 min 0,000 mm 0,0 UV-I 101 W/m 5,7 C 15,4 C 12,9 km/h (3 Bft) 96,23 %
24.03.2019 17:32 16,1 C 7,8 C 14,4 C 50 % 1017,4 hPa 0,0 l/m 6,7 km/h (2 Bft) W-NW 291 2 min 0,000 mm 0,0 UV-I 95 W/m 5,7 C 16,0 C 12,9 km/h (3 Bft) 98,00 %
24.03.2019 17:34 16,1 C 7,8 C 14,4 C 50 % 1017,4 hPa 0,0 l/m 8,3 km/h (2 Bft) W 274 2 min 0,000 mm 0,0 UV-I 89 W/m 5,7 C 15,1 C 12,9 km/h (3 Bft) 94,74 %
24.03.2019 17:36 16,1 C 7,8 C 14,4 C 50 % 1017,4 hPa 0,0 l/m 6,0 km/h (2 Bft) W 275 2 min 0,000 mm 0,0 UV-I 83 W/m 5,7 C 16,1 C 9,7 km/h (2 Bft) 96,00 %
24.03.2019 17:38 16,0 C 7,8 C 13,9 C 51 % 1017,4 hPa 0,0 l/m 4,3 km/h (1 Bft) W 271 2 min 0,000 mm 0,0 UV-I 78 W/m 5,9 C 16,0 C 9,7 km/h (2 Bft) 97,87 %
24.03.2019 17:40 15,9 C 7,8 C 13,9 C 51 % 1017,4 hPa 0,0 l/m 3,9 km/h (1 Bft) W 278 2 min 0,000 mm 0,0 UV-I 71 W/m 5,8 C 15,9 C 4,8 km/h (1 Bft) 98,00 %
24.03.2019 17:42 15,8 C 7,8 C 13,3 C 52 % 1017,4 hPa 0,0 l/m 3,8 km/h (1 Bft) W 272 2 min 0,000 mm 0,0 UV-I 67 W/m 6,0 C 15,8 C 4,8 km/h (1 Bft) 97,73 %
24.03.2019 17:44 15,7 C 7,8 C 13,3 C 52 % 1017,4 hPa 0,0 l/m 4,3 km/h (1 Bft) W 270 2 min 0,000 mm 0,0 UV-I 61 W/m 5,9 C 15,7 C 9,7 km/h (2 Bft) 97,87 %
24.03.2019 17:46 15,6 C 7,8 C 12,8 C 53 % 1017,4 hPa 0,0 l/m 2,9 km/h (1 Bft) W 275 2 min 0,000 mm 0,0 UV-I 56 W/m 6,1 C 15,6 C 4,8 km/h (1 Bft) 97,56 %
24.03.2019 17:48 15,5 C 7,8 C 12,8 C 53 % 1017,5 hPa 0,0 l/m 7,8 km/h (2 Bft) W 273 2 min 0,000 mm 0,0 UV-I 51 W/m 6,0 C 14,7 C 12,9 km/h (3 Bft) 94,34 %
24.03.2019 17:50 15,5 C 7,8 C 12,8 C 53 % 1017,5 hPa 0,0 l/m 4,8 km/h (1 Bft) W-NW 297 2 min 0,000 mm 0,0 UV-I 46 W/m 6,0 C 15,5 C 9,7 km/h (2 Bft) 97,73 %
24.03.2019 17:52 15,4 C 7,8 C 12,2 C 53 % 1017,5 hPa 0,0 l/m 3,8 km/h (1 Bft) W 278 2 min 0,000 mm 0,0 UV-I 42 W/m 5,9 C 15,4 C 6,4 km/h (2 Bft) 98,11 %
24.03.2019 17:54 15,4 C 7,8 C 12,2 C 54 % 1017,5 hPa 0,0 l/m 3,8 km/h (1 Bft) W-NW 289 2 min 0,000 mm 0,0 UV-I 38 W/m 6,1 C 15,4 C 8,0 km/h (2 Bft) 95,45 %
24.03.2019 17:56 15,3 C 7,8 C 11,7 C 54 % 1017,5 hPa 0,0 l/m 3,8 km/h (1 Bft) W 275 2 min 0,000 mm 0,0 UV-I 35 W/m 6,0 C 15,3 C 6,4 km/h (2 Bft) 97,87 %
24.03.2019 17:58 15,2 C 7,8 C 11,7 C 54 % 1017,5 hPa 0,0 l/m 3,8 km/h (1 Bft) W-NW 290 2 min 0,000 mm 0,0 UV-I 32 W/m 6,0 C 15,2 C 9,7 km/h (2 Bft) 100,00 %
24.03.2019 18:00 15,1 C 7,8 C 11,1 C 55 % 1017,5 hPa 0,0 l/m 3,6 km/h (1 Bft) W 267 2 min 0,000 mm 0,0 UV-I 28 W/m 6,1 C 15,1 C 6,4 km/h (2 Bft) 97,44 %
24.03.2019 18:02 14,9 C 7,8 C 10,6 C 56 % 1017,5 hPa 0,0 l/m 1,9 km/h (1 Bft) W 267 2 min 0,076 mm 0,0 UV-I 26 W/m 6,2 C 14,9 C 3,2 km/h (1 Bft) 96,00 %
24.03.2019 18:04 14,8 C 7,8 C 10,6 C 56 % 1017,5 hPa 0,0 l/m 4,0 km/h (1 Bft) W 275 2 min 0,000 mm 0,0 UV-I 23 W/m 6,1 C 14,8 C 6,4 km/h (2 Bft) 95,74 %
24.03.2019 18:06 14,7 C 7,8 C 10,0 C 56 % 1017,5 hPa 0,0 l/m 3,2 km/h (1 Bft) W-NW 301 2 min 0,000 mm 0,0 UV-I 21 W/m 6,0 C 14,7 C 4,8 km/h (1 Bft) 95,74 %
24.03.2019 18:08 14,6 C 7,8 C 10,0 C 56 % 1017,5 hPa 0,0 l/m 4,3 km/h (1 Bft) W-NW 300 2 min 0,000 mm 0,0 UV-I 19 W/m 5,9 C 14,6 C 8,0 km/h (2 Bft) 95,74 %
24.03.2019 18:10 14,5 C 7,8 C 9,4 C 57 % 1017,5 hPa 0,0 l/m 3,4 km/h (1 Bft) W-NW 294 2 min 0,000 mm 0,0 UV-I 17 W/m 6,1 C 14,5 C 4,8 km/h (1 Bft) 98,00 %
24.03.2019 18:12 14,5 C 7,8 C 9,4 C 57 % 1017,5 hPa 0,0 l/m 3,4 km/h (1 Bft) W 272 0 min 0,000 mm 0,0 UV-I 14 W/m 6,1 C 14,5 C 4,8 km/h (1 Bft) 97,56 %
24.03.2019 18:14 14,4 C 7,8 C 8,9 C 57 % 1017,5 hPa 0,0 l/m 4,4 km/h (1 Bft) W-NW 291 0 min 0,000 mm 0,0 UV-I 13 W/m 6,0 C 14,4 C 6,4 km/h (2 Bft) 98,11 %
24.03.2019 18:16 14,4 C 7,8 C 8,3 C 57 % 1017,5 hPa 0,0 l/m 2,7 km/h (1 Bft) W-NW 291 0 min 0,000 mm 0,0 UV-I 12 W/m 6,0 C 14,4 C 3,2 km/h (1 Bft) 97,37 %
24.03.2019 18:18 14,4 C 7,8 C 7,8 C 57 % 1017,6 hPa 0,0 l/m 2,7 km/h (1 Bft) W-NW 292 0 min 0,000 mm 0,0 UV-I 11 W/m 6,0 C 14,4 C 3,2 km/h (1 Bft) 98,00 %
24.03.2019 18:20 14,3 C 7,8 C 7,2 C 57 % 1017,6 hPa 0,0 l/m 2,8 km/h (1 Bft) W-NW 291 0 min 0,000 mm 0,0 UV-I 9 W/m 5,9 C 14,3 C 6,4 km/h (2 Bft) 96,00 %
24.03.2019 18:22 14,2 C 7,8 C 7,2 C 57 % 1017,6 hPa 0,0 l/m 2,6 km/h (1 Bft) W-NW 290 0 min 0,000 mm 0,0 UV-I 9 W/m 5,8 C 14,2 C 4,8 km/h (1 Bft) 97,56 %
24.03.2019 18:24 14,1 C 7,8 C 7,2 C 58 % 1017,7 hPa 0,0 l/m 2,4 km/h (1 Bft) W-NW 290 0 min 0,000 mm 0,0 UV-I 7 W/m 6,0 C 14,1 C 3,2 km/h (1 Bft) 97,87 %
24.03.2019 18:26 13,9 C 7,8 C 6,7 C 58 % 1017,7 hPa 0,0 l/m 3,4 km/h (1 Bft) W-NW 290 0 min 0,000 mm 0,0 UV-I 7 W/m 5,8 C 13,9 C 4,8 km/h (1 Bft) 98,00 %
24.03.2019 18:28 13,8 C 7,8 C 7,2 C 59 % 1017,7 hPa 0,0 l/m 3,4 km/h (1 Bft) W-NW 290 0 min 0,000 mm 0,0 UV-I 7 W/m 5,9 C 13,8 C 4,8 km/h (1 Bft) 100,00 %
24.03.2019 18:30 13,7 C 7,8 C 7,2 C 60 % 1017,7 hPa 0,0 l/m 3,0 km/h (1 Bft) W-NW 290 0 min 0,000 mm 0,0 UV-I 5 W/m 6,1 C 13,7 C 4,8 km/h (1 Bft) 100,00 %
24.03.2019 18:32 13,5 C 7,8 C 6,7 C 60 % 1017,8 hPa 0,0 l/m 3,3 km/h (1 Bft) NW 320 0 min 0,000 mm 0,0 UV-I 5 W/m 5,9 C 13,5 C 4,8 km/h (1 Bft) 97,22 %
24.03.2019 18:34 13,3 C 7,8 C 6,7 C 62 % 1017,9 hPa 0,0 l/m 2,6 km/h (1 Bft) NW 320 0 min 0,000 mm 0,0 UV-I 5 W/m 6,2 C 13,3 C 4,8 km/h (1 Bft) 100,00 %
24.03.2019 18:36 13,2 C 7,8 C 6,1 C 62 % 1017,8 hPa 0,0 l/m 3,4 km/h (1 Bft) NW 319 0 min 0,000 mm 0,0 UV-I 1 W/m 6,1 C 13,2 C 4,8 km/h (1 Bft) 100,00 %
24.03.2019 18:38 13,1 C 7,8 C 6,1 C 63 % 1017,9 hPa 0,0 l/m 3,6 km/h (1 Bft) NW 319 0 min 0,000 mm 0,0 UV-I 0 W/m 6,2 C 13,1 C 4,8 km/h (1 Bft) 100,00 %
24.03.2019 18:40 13,0 C 7,8 C 5,6 C 62 % 1017,9 hPa 0,0 l/m 3,1 km/h (1 Bft) NW 319 0 min 0,000 mm 0,0 UV-I 0 W/m 5,9 C 13,0 C 3,2 km/h (1 Bft) 100,00 %
24.03.2019 18:42 13,0 C 7,8 C 6,1 C 62 % 1017,9 hPa 0,0 l/m 5,2 km/h (1 Bft) NW 311 0 min 0,000 mm 0,0 UV-I 0 W/m 5,9 C 13,0 C 9,7 km/h (2 Bft) 100,00 %
24.03.2019 18:44 13,0 C 7,8 C 6,1 C 63 % 1017,9 hPa 0,0 l/m 4,8 km/h (1 Bft) NW 310 0 min 0,000 mm 0,0 UV-I 0 W/m 6,1 C 13,0 C 6,4 km/h (2 Bft) 98,11 %
24.03.2019 18:46 12,9 C 7,8 C 6,1 C 62 % 1017,9 hPa 0,0 l/m 4,3 km/h (1 Bft) NW 321 0 min 0,000 mm 0,0 UV-I 0 W/m 5,8 C 12,9 C 6,4 km/h (2 Bft) 100,00 %
24.03.2019 18:48 12,9 C 7,8 C 6,1 C 62 % 1018,0 hPa 0,0 l/m 3,9 km/h (1 Bft) NW 311 0 min 0,000 mm 0,0 UV-I 0 W/m 5,8 C 12,9 C 6,4 km/h (2 Bft) 100,00 %
24.03.2019 18:50 12,9 C 7,8 C 6,1 C 62 % 1018,0 hPa 0,0 l/m 3,7 km/h (1 Bft) W-NW 298 0 min 0,000 mm 0,0 UV-I 0 W/m 5,8 C 12,9 C 6,4 km/h (2 Bft) 100,00 %
24.03.2019 18:52 12,9 C 7,8 C 6,1 C 63 % 1018,0 hPa 0,0 l/m 4,1 km/h (1 Bft) NW 319 0 min 0,000 mm 0,0 UV-I 0 W/m 6,0 C 12,9 C 6,4 km/h (2 Bft) 100,00 %
24.03.2019 18:54 12,8 C 7,8 C 6,1 C 63 % 1018,0 hPa 0,0 l/m 3,1 km/h (1 Bft) NW 319 0 min 0,000 mm 0,0 UV-I 0 W/m 5,9 C 12,8 C 4,8 km/h (1 Bft) 100,00 %
24.03.2019 18:56 12,8 C 7,8 C 6,7 C 63 % 1018,0 hPa 0,0 l/m 2,7 km/h (1 Bft) NW 319 0 min 0,000 mm 0,0 UV-I 0 W/m 5,9 C 12,8 C 4,8 km/h (1 Bft) 100,00 %
24.03.2019 18:58 12,8 C 7,8 C 6,7 C 63 % 1018,0 hPa 0,0 l/m 3,5 km/h (1 Bft) NW 319 0 min 0,000 mm 0,0 UV-I 0 W/m 5,9 C 12,8 C 4,8 km/h (1 Bft) 100,00 %
24.03.2019 19:00 12,8 C 7,8 C 6,1 C 63 % 1018,1 hPa 0,0 l/m 3,3 km/h (1 Bft) W 268 0 min 0,026 mm 0,0 UV-I 0 W/m 5,9 C 12,8 C 4,8 km/h (1 Bft) 97,37 %
24.03.2019 19:02 12,7 C 7,8 C 6,1 C 63 % 1018,2 hPa 0,0 l/m 2,9 km/h (1 Bft) W 269 0 min 0,000 mm 0,0 UV-I 0 W/m 5,8 C 12,7 C 4,8 km/h (1 Bft) 98,00 %
24.03.2019 19:04 12,7 C 7,8 C 5,6 C 63 % 1018,2 hPa 0,0 l/m 1,6 km/h (1 Bft) W 269 0 min 0,000 mm 0,0 UV-I 0 W/m 5,8 C 12,7 C 3,2 km/h (1 Bft) 100,00 %
24.03.2019 19:06 12,7 C 7,8 C 5,6 C 63 % 1018,1 hPa 0,0 l/m 1,0 km/h (0 Bft) W 269 0 min 0,000 mm 0,0 UV-I 0 W/m 5,8 C 12,7 C 1,6 km/h (1 Bft) 100,00 %
24.03.2019 19:08 12,7 C 7,8 C 5,0 C 63 % 1018,1 hPa 0,0 l/m 0,5 km/h (0 Bft) W 269 0 min 0,000 mm 0,0 UV-I 0 W/m 5,8 C 12,7 C 3,2 km/h (1 Bft) 100,00 %
24.03.2019 19:10 12,7 C 7,8 C 5,0 C 63 % 1018,1 hPa 0,0 l/m 2,5 km/h (1 Bft) W 269 0 min 0,000 mm 0,0 UV-I 0 W/m 5,8 C 12,7 C 3,2 km/h (1 Bft) 98,00 %
24.03.2019 19:12 12,7 C 7,8 C 5,0 C 63 % 1018,1 hPa 0,0 l/m 2,9 km/h (1 Bft) W 271 0 min 0,000 mm 0,0 UV-I 0 W/m 5,8 C 12,7 C 4,8 km/h (1 Bft) 98,00 %
24.03.2019 19:14 12,7 C 7,8 C 5,0 C 63 % 1018,2 hPa 0,0 l/m 3,4 km/h (1 Bft) W 271 0 min 0,000 mm 0,0 UV-I 0 W/m 5,8 C 12,7 C 4,8 km/h (1 Bft) 98,00 %
24.03.2019 19:16 12,7 C 7,8 C 5,0 C 63 % 1018,2 hPa 0,0 l/m 3,7 km/h (1 Bft) W-NW 282 0 min 0,000 mm 0,0 UV-I 0 W/m 5,8 C 12,7 C 6,4 km/h (2 Bft) 97,87 %
24.03.2019 19:18 12,7 C 7,8 C 5,0 C 63 % 1018,2 hPa 0,0 l/m 3,7 km/h (1 Bft) W-NW 298 0 min 0,000 mm 0,0 UV-I 0 W/m 5,8 C 12,7 C 4,8 km/h (1 Bft) 97,44 %
24.03.2019 19:20 12,8 C 7,8 C 5,0 C 62 % 1018,2 hPa 0,0 l/m 3,3 km/h (1 Bft) W-NW 298 0 min 0,000 mm 0,0 UV-I 0 W/m 5,7 C 12,8 C 4,8 km/h (1 Bft) 97,87 %
24.03.2019 19:22 12,8 C 7,8 C 5,0 C 62 % 1018,2 hPa 0,0 l/m 4,1 km/h (1 Bft) W-NW 298 0 min 0,000 mm 0,0 UV-I 0 W/m 5,7 C 12,8 C 4,8 km/h (1 Bft) 98,00 %
24.03.2019 19:24 12,8 C 7,8 C 5,0 C 62 % 1018,2 hPa 0,0 l/m 3,9 km/h (1 Bft) W-NW 284 0 min 0,000 mm 0,0 UV-I 0 W/m 5,7 C 12,8 C 6,4 km/h (2 Bft) 93,62 %
24.03.2019 19:26 12,8 C 7,8 C 5,0 C 62 % 1018,2 hPa 0,0 l/m 3,7 km/h (1 Bft) W-NW 284 0 min 0,000 mm 0,0 UV-I 0 W/m 5,7 C 12,8 C 4,8 km/h (1 Bft) 94,00 %
24.03.2019 19:28 12,8 C 7,8 C 5,0 C 62 % 1018,2 hPa 0,0 l/m 3,5 km/h (1 Bft) W-NW 286 0 min 0,000 mm 0,0 UV-I 0 W/m 5,7 C 12,8 C 4,8 km/h (1 Bft) 97,37 %
24.03.2019 19:30 12,8 C 7,8 C 5,6 C 62 % 1018,2 hPa 0,0 l/m 3,7 km/h (1 Bft) W-NW 286 0 min 0,000 mm 0,0 UV-I 0 W/m 5,7 C 12,8 C 4,8 km/h (1 Bft) 94,74 %
24.03.2019 19:32 12,8 C 7,8 C 5,6 C 62 % 1018,2 hPa 0,0 l/m 3,4 km/h (1 Bft) W-NW 288 0 min 0,000 mm 0,0 UV-I 0 W/m 5,7 C 12,8 C 4,8 km/h (1 Bft) 93,55 %
24.03.2019 19:34 12,8 C 7,8 C 6,1 C 62 % 1018,2 hPa 0,0 l/m 2,9 km/h (1 Bft) W-NW 288 0 min 0,000 mm 0,0 UV-I 0 W/m 5,7 C 12,8 C 4,8 km/h (1 Bft) 95,12 %
24.03.2019 19:36 12,8 C 7,8 C 6,7 C 62 % 1018,2 hPa 0,0 l/m 3,0 km/h (1 Bft) W-NW 288 0 min 0,000 mm 0,0 UV-I 0 W/m 5,7 C 12,8 C 4,8 km/h (1 Bft) 93,62 %
24.03.2019 19:38 12,8 C 7,8 C 6,7 C 62 % 1018,2 hPa 0,0 l/m 2,1 km/h (1 Bft) W-NW 288 0 min 0,000 mm 0,0 UV-I 0 W/m 5,7 C 12,8 C 3,2 km/h (1 Bft) 91,49 %
24.03.2019 19:40 12,9 C 7,8 C 7,2 C 61 % 1018,2 hPa 0,0 l/m 2,0 km/h (1 Bft) W 281 0 min 0,000 mm 0,0 UV-I 0 W/m 5,6 C 12,9 C 3,2 km/h (1 Bft) 94,00 %
24.03.2019 19:42 12,8 C 7,8 C 7,2 C 62 % 1018,2 hPa 0,0 l/m 1,9 km/h (1 Bft) W 281 0 min 0,000 mm 0,0 UV-I 0 W/m 5,7 C 12,8 C 3,2 km/h (1 Bft) 94,34 %
24.03.2019 19:44 12,7 C 7,8 C 7,2 C 63 % 1018,2 hPa 0,0 l/m 2,0 km/h (1 Bft) W 281 0 min 0,000 mm 0,0 UV-I 0 W/m 5,8 C 12,7 C 3,2 km/h (1 Bft) 91,43 %
24.03.2019 19:46 12,5 C 7,8 C 7,2 C 63 % 1018,1 hPa 0,0 l/m 1,2 km/h (1 Bft) W 281 0 min 0,000 mm 0,0 UV-I 0 W/m 5,7 C 12,5 C 1,6 km/h (1 Bft) 96,23 %
24.03.2019 19:49 12,1 C 7,8 C 7,2 C 66 % 1018,2 hPa 0,0 l/m 1,3 km/h (1 Bft) W 281 0 min 0,000 mm 0,0 UV-I 0 W/m 5,9 C 12,1 C 3,2 km/h (1 Bft) 94,37 %
24.03.2019 19:50 11,9 C 7,8 C 6,7 C 66 % 1018,2 hPa 0,0 l/m 1,1 km/h (1 Bft) W 281 0 min 0,000 mm 0,0 UV-I 0 W/m 5,8 C 11,9 C 1,6 km/h (1 Bft) 92,31 %
24.03.2019 19:52 11,8 C 7,8 C 6,7 C 67 % 1018,1 hPa 0,0 l/m 1,9 km/h (1 Bft) W 281 0 min 0,000 mm 0,0 UV-I 0 W/m 5,9 C 11,8 C 3,2 km/h (1 Bft) 97,22 %
24.03.2019 19:54 11,8 C 7,8 C 6,7 C 67 % 1018,2 hPa 0,0 l/m 1,7 km/h (1 Bft) W 281 0 min 0,000 mm 0,0 UV-I 0 W/m 5,9 C 11,8 C 3,2 km/h (1 Bft) 94,34 %
24.03.2019 19:56 11,9 C 7,8 C 6,7 C 66 % 1018,2 hPa 0,0 l/m 3,0 km/h (1 Bft) W 280 0 min 0,000 mm 0,0 UV-I 0 W/m 5,8 C 11,9 C 3,2 km/h (1 Bft) 93,62 %
24.03.2019 19:58 11,9 C 7,8 C 6,7 C 66 % 1018,2 hPa 0,0 l/m 2,9 km/h (1 Bft) W 280 0 min 0,000 mm 0,0 UV-I 0 W/m 5,8 C 11,9 C 4,8 km/h (1 Bft) 96,00 %
24.03.2019 20:00 11,7 C 7,8 C 6,7 C 67 % 1018,1 hPa 0,0 l/m 3,3 km/h (1 Bft) W 279 0 min 0,025 mm 0,0 UV-I 0 W/m 5,8 C 11,7 C 4,8 km/h (1 Bft) 94,74 %
24.03.2019 20:02 11,4 C 7,8 C 6,7 C 67 % 1018,2 hPa 0,0 l/m 3,5 km/h (1 Bft) W-SW 257 0 min 0,000 mm 0,0 UV-I 0 W/m 5,5 C 11,4 C 4,8 km/h (1 Bft) 90,00 %
24.03.2019 20:04 11,2 C 7,8 C 7,2 C 68 % 1018,1 hPa 0,0 l/m 3,4 km/h (1 Bft) W-SW 257 0 min 0,000 mm 0,0 UV-I 0 W/m 5,5 C 11,2 C 4,8 km/h (1 Bft) 96,00 %
24.03.2019 20:06 11,0 C 7,8 C 7,2 C 69 % 1018,1 hPa 0,0 l/m 4,0 km/h (1 Bft) W-SW 257 0 min 0,000 mm 0,0 UV-I 0 W/m 5,5 C 11,0 C 4,8 km/h (1 Bft) 95,12 %
24.03.2019 20:09 10,7 C 7,8 C 7,2 C 71 % 1018,1 hPa 0,0 l/m 4,2 km/h (1 Bft) SW 219 0 min 0,000 mm 0,0 UV-I 0 W/m 5,7 C 10,7 C 4,8 km/h (1 Bft) 93,67 %
24.03.2019 20:10 10,6 C 7,8 C 7,2 C 72 % 1018,1 hPa 0,0 l/m 4,3 km/h (1 Bft) SW 219 0 min 0,000 mm 0,0 UV-I 0 W/m 5,8 C 10,6 C 4,8 km/h (1 Bft) 95,83 %
24.03.2019 20:12 10,3 C 7,8 C 7,2 C 73 % 1018,1 hPa 0,0 l/m 4,4 km/h (1 Bft) SW 219 0 min 0,000 mm 0,0 UV-I 0 W/m 5,7 C 10,3 C 4,8 km/h (1 Bft) 92,68 %
24.03.2019 20:14 10,2 C 7,8 C 7,2 C 74 % 1018,1 hPa 0,0 l/m 5,3 km/h (1 Bft) SW 218 0 min 0,000 mm 0,0 UV-I 0 W/m 5,8 C 10,2 C 6,4 km/h (2 Bft) 94,34 %
24.03.2019 20:16 10,4 C 7,8 C 7,2 C 73 % 1018,1 hPa 0,0 l/m 5,3 km/h (1 Bft) SW 217 0 min 0,000 mm 0,0 UV-I 0 W/m 5,8 C 10,4 C 6,4 km/h (2 Bft) 95,74 %
24.03.2019 20:19 10,7 C 7,8 C 7,8 C 72 % 1018,1 hPa 0,0 l/m 5,3 km/h (1 Bft) SW 216 0 min 0,000 mm 0,0 UV-I 0 W/m 5,9 C 10,7 C 6,4 km/h (2 Bft) 98,65 %
24.03.2019 20:20 10,7 C 7,8 C 7,8 C 71 % 1018,1 hPa 0,0 l/m 4,9 km/h (1 Bft) SW 216 0 min 0,000 mm 0,0 UV-I 0 W/m 5,7 C 10,7 C 6,4 km/h (2 Bft) 92,86 %
24.03.2019 20:22 10,8 C 7,8 C 7,8 C 71 % 1018,1 hPa 0,0 l/m 5,0 km/h (1 Bft) S-SW 211 0 min 0,000 mm 0,0 UV-I 0 W/m 5,8 C 10,8 C 6,4 km/h (2 Bft) 97,56 %
24.03.2019 20:24 10,7 C 7,8 C 8,3 C 72 % 1018,1 hPa 0,0 l/m 5,3 km/h (1 Bft) S-SW 196 0 min 0,000 mm 0,0 UV-I 0 W/m 5,9 C 10,7 C 6,4 km/h (2 Bft) 100,00 %
24.03.2019 20:26 10,6 C 7,8 C 8,3 C 73 % 1018,1 hPa 0,0 l/m 5,6 km/h (1 Bft) S-SW 196 0 min 0,000 mm 0,0 UV-I 0 W/m 6,0 C 10,6 C 6,4 km/h (2 Bft) 98,00 %
24.03.2019 20:28 10,6 C 7,8 C 8,3 C 73 % 1018,1 hPa 0,0 l/m 6,1 km/h (2 Bft) S-SW 195 0 min 0,000 mm 0,0 UV-I 0 W/m 6,0 C 10,6 C 8,0 km/h (2 Bft) 100,00 %
24.03.2019 20:30 10,6 C 7,8 C 8,3 C 73 % 1018,0 hPa 0,0 l/m 6,1 km/h (2 Bft) S-SW 194 0 min 0,000 mm 0,0 UV-I 0 W/m 6,0 C 10,6 C 6,4 km/h (2 Bft) 100,00 %
24.03.2019 20:32 10,6 C 7,8 C 8,3 C 73 % 1018,0 hPa 0,0 l/m 5,9 km/h (2 Bft) S-SW 194 0 min 0,000 mm 0,0 UV-I 0 W/m 6,0 C 10,6 C 6,4 km/h (2 Bft) 100,00 %
24.03.2019 20:34 10,8 C 7,8 C 8,3 C 72 % 1018,1 hPa 0,0 l/m 5,7 km/h (1 Bft) S-SW 195 0 min 0,000 mm 0,0 UV-I 0 W/m 6,0 C 10,8 C 6,4 km/h (2 Bft) 98,11 %
24.03.2019 20:36 10,8 C 7,8 C 8,3 C 72 % 1018,1 hPa 0,0 l/m 5,8 km/h (2 Bft) S-SW 195 0 min 0,000 mm 0,0 UV-I 0 W/m 6,0 C 10,8 C 8,0 km/h (2 Bft) 100,00 %
24.03.2019 20:38 10,9 C 7,8 C 8,3 C 72 % 1018,1 hPa 0,0 l/m 5,1 km/h (1 Bft) S-SW 195 0 min 0,000 mm 0,0 UV-I 0 W/m 6,1 C 10,9 C 6,4 km/h (2 Bft) 97,87 %
24.03.2019 20:40 11,1 C 7,8 C 8,9 C 71 % 1018,2 hPa 0,0 l/m 4,9 km/h (1 Bft) S-SW 194 0 min 0,000 mm 0,0 UV-I 0 W/m 6,0 C 11,1 C 6,4 km/h (2 Bft) 100,00 %
24.03.2019 20:42 11,1 C 7,8 C 8,9 C 71 % 1018,1 hPa 0,0 l/m 4,0 km/h (1 Bft) S-SW 194 0 min 0,000 mm 0,0 UV-I 0 W/m 6,0 C 11,1 C 4,8 km/h (1 Bft) 100,00 %
24.03.2019 20:44 11,2 C 7,8 C 8,9 C 71 % 1018,2 hPa 0,0 l/m 4,2 km/h (1 Bft) S-SW 194 0 min 0,000 mm 0,0 UV-I 0 W/m 6,1 C 11,2 C 6,4 km/h (2 Bft) 94,64 %
24.03.2019 20:46 11,3 C 7,8 C 8,9 C 70 % 1018,1 hPa 0,0 l/m 4,7 km/h (1 Bft) S-SW 194 0 min 0,000 mm 0,0 UV-I 0 W/m 6,0 C 11,3 C 6,4 km/h (2 Bft) 100,00 %
24.03.2019 20:49 11,3 C 7,8 C 8,9 C 70 % 1018,1 hPa 0,0 l/m 4,9 km/h (1 Bft) S 190 0 min 0,000 mm 0,0 UV-I 0 W/m 6,0 C 11,3 C 6,4 km/h (2 Bft) 96,70 %
24.03.2019 20:50 11,3 C 7,8 C 8,9 C 70 % 1018,1 hPa 0,0 l/m 4,5 km/h (1 Bft) S 191 0 min 0,000 mm 0,0 UV-I 0 W/m 6,0 C 11,3 C 4,8 km/h (1 Bft) 96,30 %
24.03.2019 20:52 11,3 C 7,8 C 8,9 C 70 % 1018,1 hPa 0,0 l/m 4,3 km/h (1 Bft) S 190 0 min 0,000 mm 0,0 UV-I 0 W/m 6,0 C 11,3 C 4,8 km/h (1 Bft) 97,37 %
24.03.2019 20:54 11,3 C 7,8 C 8,9 C 70 % 1018,1 hPa 0,0 l/m 4,7 km/h (1 Bft) S 186 0 min 0,000 mm 0,0 UV-I 0 W/m 6,0 C 11,3 C 6,4 km/h (2 Bft) 98,00 %
24.03.2019 20:56 11,3 C 7,8 C 8,9 C 70 % 1018,1 hPa 0,0 l/m 5,3 km/h (1 Bft) S 190 0 min 0,000 mm 0,0 UV-I 0 W/m 6,0 C 11,3 C 8,0 km/h (2 Bft) 98,00 %
24.03.2019 20:58 11,2 C 7,8 C 8,9 C 70 % 1018,0 hPa 0,0 l/m 4,3 km/h (1 Bft) S 190 0 min 0,000 mm 0,0 UV-I 0 W/m 5,9 C 11,2 C 6,4 km/h (2 Bft) 97,56 %
24.03.2019 21:00 11,2 C 7,8 C 8,3 C 71 % 1018,0 hPa 0,0 l/m 2,7 km/h (1 Bft) S 190 0 min 0,026 mm 0,0 UV-I 0 W/m 6,1 C 11,2 C 4,8 km/h (1 Bft) 98,11 %
24.03.2019 21:02 11,1 C 7,8 C 8,3 C 71 % 1018,2 hPa 0,0 l/m 5,7 km/h (1 Bft) NO 52 0 min 0,000 mm 0,0 UV-I 0 W/m 6,0 C 11,1 C 14,5 km/h (3 Bft) 96,00 %
24.03.2019 21:04 10,9 C 7,8 C 8,3 C 72 % 1018,2 hPa 0,0 l/m 8,2 km/h (2 Bft) O-NO 75 0 min 0,000 mm 0,0 UV-I 0 W/m 6,1 C 9,7 C 11,3 km/h (2 Bft) 100,00 %
24.03.2019 21:06 10,9 C 7,8 C 8,3 C 72 % 1018,2 hPa 0,0 l/m 7,6 km/h (2 Bft) O 82 0 min 0,000 mm 0,0 UV-I 0 W/m 6,1 C 10,1 C 12,9 km/h (3 Bft) 100,00 %
24.03.2019 21:09 10,9 C 7,8 C 8,3 C 72 % 1018,2 hPa 0,0 l/m 4,2 km/h (1 Bft) O-NO 78 0 min 0,000 mm 0,0 UV-I 0 W/m 6,1 C 10,9 C 6,4 km/h (2 Bft) 98,39 %
24.03.2019 21:10 10,9 C 7,8 C 8,3 C 72 % 1018,2 hPa 0,0 l/m 3,5 km/h (1 Bft) O-NO 78 0 min 0,000 mm 0,0 UV-I 0 W/m 6,1 C 10,9 C 4,8 km/h (1 Bft) 100,00 %
24.03.2019 21:12 10,9 C 7,8 C 7,8 C 72 % 1018,2 hPa 0,0 l/m 3,4 km/h (1 Bft) O 100 0 min 0,000 mm 0,0 UV-I 0 W/m 6,1 C 10,9 C 4,8 km/h (1 Bft) 100,00 %
24.03.2019 21:14 10,9 C 7,8 C 7,8 C 72 % 1018,0 hPa 0,0 l/m 3,8 km/h (1 Bft) O 98 0 min 0,000 mm 0,0 UV-I 0 W/m 6,1 C 10,9 C 6,4 km/h (2 Bft) 98,11 %
24.03.2019 21:16 10,9 C 7,8 C 7,8 C 72 % 1018,0 hPa 0,0 l/m 4,0 km/h (1 Bft) SO 126 0 min 0,000 mm 0,0 UV-I 0 W/m 6,1 C 10,9 C 6,4 km/h (2 Bft) 100,00 %
24.03.2019 21:18 10,8 C 7,8 C 7,8 C 73 % 1018,0 hPa 0,0 l/m 4,5 km/h (1 Bft) SO 136 0 min 0,000 mm 0,0 UV-I 0 W/m 6,2 C 10,8 C 8,0 km/h (2 Bft) 100,00 %
24.03.2019 21:20 10,9 C 7,8 C 7,8 C 72 % 1018,1 hPa 0,0 l/m 5,0 km/h (1 Bft) S-SO 167 0 min 0,000 mm 0,0 UV-I 0 W/m 6,1 C 10,9 C 8,0 km/h (2 Bft) 100,00 %
24.03.2019 21:22 10,9 C 7,8 C 8,3 C 72 % 1018,0 hPa 0,0 l/m 4,9 km/h (1 Bft) S-SW 192 0 min 0,000 mm 0,0 UV-I 0 W/m 6,1 C 10,9 C 6,4 km/h (2 Bft) 100,00 %
24.03.2019 21:24 10,9 C 7,8 C 8,3 C 72 % 1018,0 hPa 0,0 l/m 4,8 km/h (1 Bft) S 183 0 min 0,000 mm 0,0 UV-I 0 W/m 6,1 C 10,9 C 6,4 km/h (2 Bft) 100,00 %
24.03.2019 21:26 10,8 C 7,8 C 8,3 C 72 % 1018,0 hPa 0,0 l/m 6,5 km/h (2 Bft) SO 146 0 min 0,000 mm 0,0 UV-I 0 W/m 6,0 C 10,8 C 9,7 km/h (2 Bft) 100,00 %
24.03.2019 21:28 10,6 C 7,8 C 8,3 C 73 % 1018,1 hPa 0,0 l/m 6,1 km/h (2 Bft) O-NO 57 0 min 0,000 mm 0,0 UV-I 0 W/m 6,0 C 10,6 C 9,7 km/h (2 Bft) 100,00 %
24.03.2019 21:30 10,3 C 7,8 C 8,3 C 76 % 1018,1 hPa 0,0 l/m 9,8 km/h (2 Bft) O-NO 61 0 min 0,000 mm 0,0 UV-I 0 W/m 6,3 C 8,0 C 14,5 km/h (3 Bft) 98,00 %
24.03.2019 21:32 10,2 C 7,8 C 8,3 C 76 % 1018,2 hPa 0,0 l/m 7,6 km/h (2 Bft) O 98 0 min 0,000 mm 0,0 UV-I 0 W/m 6,2 C 9,3 C 11,3 km/h (2 Bft) 100,00 %
24.03.2019 21:34 10,1 C 7,8 C 8,3 C 77 % 1018,0 hPa 0,0 l/m 8,9 km/h (2 Bft) SO 132 0 min 0,000 mm 0,0 UV-I 0 W/m 6,3 C 8,4 C 12,9 km/h (3 Bft) 100,00 %
24.03.2019 21:36 10,2 C 7,8 C 8,9 C 76 % 1018,0 hPa 0,0 l/m 7,0 km/h (2 Bft) S-SO 151 0 min 0,000 mm 0,0 UV-I 0 W/m 6,2 C 9,8 C 11,3 km/h (2 Bft) 100,00 %
24.03.2019 21:38 10,3 C 7,8 C 8,9 C 76 % 1018,1 hPa 0,0 l/m 5,5 km/h (1 Bft) SO 146 0 min 0,000 mm 0,0 UV-I 0 W/m 6,3 C 10,3 C 8,0 km/h (2 Bft) 97,56 %
24.03.2019 21:40 10,4 C 7,8 C 8,9 C 76 % 1018,1 hPa 0,0 l/m 4,8 km/h (1 Bft) SO 145 0 min 0,000 mm 0,0 UV-I 0 W/m 6,4 C 10,4 C 6,4 km/h (2 Bft) 100,00 %
24.03.2019 21:42 10,3 C 7,8 C 8,9 C 76 % 1018,0 hPa 0,0 l/m 4,1 km/h (1 Bft) SO 145 0 min 0,000 mm 0,0 UV-I 0 W/m 6,3 C 10,3 C 6,4 km/h (2 Bft) 100,00 %
24.03.2019 21:44 10,2 C 7,8 C 8,3 C 77 % 1017,9 hPa 0,0 l/m 3,6 km/h (1 Bft) SO 145 0 min 0,000 mm 0,0 UV-I 0 W/m 6,4 C 10,2 C 4,8 km/h (1 Bft) 100,00 %
24.03.2019 21:46 10,1 C 7,8 C 8,3 C 78 % 1018,0 hPa 0,0 l/m 1,8 km/h (1 Bft) SO 145 0 min 0,000 mm 0,0 UV-I 0 W/m 6,4 C 10,1 C 3,2 km/h (1 Bft) 100,00 %
24.03.2019 21:48 10,1 C 7,8 C 7,8 C 78 % 1018,0 hPa 0,0 l/m 0,2 km/h (0 Bft) SO 145 0 min 0,000 mm 0,0 UV-I 0 W/m 6,4 C 10,1 C 1,6 km/h (1 Bft) 100,00 %
24.03.2019 21:50 10,1 C 7,8 C 8,3 C 78 % 1018,0 hPa 0,0 l/m 3,4 km/h (1 Bft) S-SO 155 0 min 0,000 mm 0,0 UV-I 0 W/m 6,4 C 10,1 C 8,0 km/h (2 Bft) 98,00 %
24.03.2019 21:52 10,2 C 7,8 C 8,3 C 77 % 1017,9 hPa 0,0 l/m 4,9 km/h (1 Bft) S-SO 166 0 min 0,000 mm 0,0 UV-I 0 W/m 6,4 C 10,2 C 8,0 km/h (2 Bft) 98,00 %
24.03.2019 21:54 10,2 C 7,8 C 8,9 C 77 % 1017,9 hPa 0,0 l/m 5,8 km/h (2 Bft) S-SO 162 0 min 0,000 mm 0,0 UV-I 0 W/m 6,4 C 10,2 C 8,0 km/h (2 Bft) 97,14 %
24.03.2019 21:56 10,3 C 7,8 C 8,9 C 77 % 1017,9 hPa 0,0 l/m 5,9 km/h (2 Bft) S 172 0 min 0,000 mm 0,0 UV-I 0 W/m 6,4 C 10,3 C 9,7 km/h (2 Bft) 98,31 %
24.03.2019 21:58 10,3 C 8,3 C 9,4 C 77 % 1017,8 hPa 0,0 l/m 4,4 km/h (1 Bft) S 180 0 min 0,000 mm 0,0 UV-I 0 W/m 6,4 C 10,3 C 8,0 km/h (2 Bft) 97,87 %
24.03.2019 22:00 10,3 C 7,8 C 9,4 C 77 % 1017,8 hPa 0,0 l/m 2,2 km/h (1 Bft) S 180 0 min 0,025 mm 0,0 UV-I 0 W/m 6,4 C 10,3 C 4,8 km/h (1 Bft) 97,87 %
24.03.2019 22:02 10,3 C 8,3 C 9,4 C 77 % 1017,8 hPa 0,0 l/m 1,7 km/h (1 Bft) S 180 0 min 0,000 mm 0,0 UV-I 0 W/m 6,4 C 10,3 C 4,8 km/h (1 Bft) 97,14 %
24.03.2019 22:04 10,3 C 7,8 C 8,9 C 77 % 1017,8 hPa 0,0 l/m 1,6 km/h (1 Bft) S 180 0 min 0,000 mm 0,0 UV-I 0 W/m 6,4 C 10,3 C 4,8 km/h (1 Bft) 94,34 %
24.03.2019 22:06 10,3 C 8,3 C 8,9 C 77 % 1017,9 hPa 0,0 l/m 0,8 km/h (0 Bft) S 180 0 min 0,000 mm 0,0 UV-I 0 W/m 6,4 C 10,3 C 1,6 km/h (1 Bft) 95,45 %
24.03.2019 22:09 10,3 C 7,8 C 8,9 C 77 % 1017,9 hPa 0,0 l/m 1,6 km/h (1 Bft) S 182 0 min 0,000 mm 0,0 UV-I 0 W/m 6,4 C 10,3 C 3,2 km/h (1 Bft) 96,25 %
24.03.2019 22:10 10,3 C 7,8 C 8,9 C 77 % 1017,9 hPa 0,0 l/m 0,7 km/h (0 Bft) S 182 0 min 0,000 mm 0,0 UV-I 0 W/m 6,4 C 10,3 C 1,6 km/h (1 Bft) 85,71 %
24.03.2019 22:12 10,3 C 8,3 C 8,9 C 77 % 1017,8 hPa 0,0 l/m 0,2 km/h (0 Bft) S 182 0 min 0,000 mm 0,0 UV-I 0 W/m 6,4 C 10,3 C 1,6 km/h (1 Bft) 96,00 %
24.03.2019 22:14 10,3 C 8,3 C 8,9 C 77 % 1017,9 hPa 0,0 l/m 1,0 km/h (0 Bft) S 182 0 min 0,000 mm 0,0 UV-I 0 W/m 6,4 C 10,3 C 3,2 km/h (1 Bft) 96,00 %
24.03.2019 22:16 10,2 C 8,3 C 8,9 C 77 % 1018,0 hPa 0,0 l/m 3,1 km/h (1 Bft) S 183 0 min 0,000 mm 0,0 UV-I 0 W/m 6,4 C 10,2 C 4,8 km/h (1 Bft) 94,44 %
24.03.2019 22:18 10,1 C 8,3 C 8,9 C 78 % 1018,0 hPa 0,0 l/m 2,3 km/h (1 Bft) S-SW 196 0 min 0,000 mm 0,0 UV-I 0 W/m 6,4 C 10,1 C 4,8 km/h (1 Bft) 94,74 %
24.03.2019 22:20 10,1 C 8,3 C 8,9 C 78 % 1018,0 hPa 0,0 l/m 1,0 km/h (0 Bft) S-SW 196 0 min 0,000 mm 0,0 UV-I 0 W/m 6,4 C 10,1 C 3,2 km/h (1 Bft) 95,52 %
24.03.2019 22:22 10,1 C 8,3 C 8,9 C 78 % 1017,9 hPa 0,0 l/m 2,5 km/h (1 Bft) S-SW 196 0 min 0,000 mm 0,0 UV-I 0 W/m 6,4 C 10,1 C 3,2 km/h (1 Bft) 94,44 %
24.03.2019 22:24 10,2 C 8,3 C 8,9 C 78 % 1017,9 hPa 0,0 l/m 2,4 km/h (1 Bft) S-SW 196 0 min 0,000 mm 0,0 UV-I 0 W/m 6,5 C 10,2 C 3,2 km/h (1 Bft) 94,34 %
24.03.2019 22:26 10,2 C 8,3 C 8,9 C 77 % 1017,9 hPa 0,0 l/m 0,4 km/h (0 Bft) S-SW 196 0 min 0,000 mm 0,0 UV-I 0 W/m 6,4 C 10,2 C 1,6 km/h (1 Bft) 100,00 %
24.03.2019 22:28 10,2 C 8,3 C 8,9 C 77 % 1017,9 hPa 0,0 l/m 0,0 km/h (0 Bft) S-SW 196 0 min 0,000 mm 0,0 UV-I 0 W/m 6,4 C 10,2 C 0,0 km/h (0 Bft) 97,14 %
24.03.2019 22:30 10,3 C 8,3 C 8,9 C 77 % 1017,9 hPa 0,0 l/m 1,1 km/h (1 Bft) S-SW 196 0 min 0,000 mm 0,0 UV-I 0 W/m 6,4 C 10,3 C 3,2 km/h (1 Bft) 100,00 %
24.03.2019 22:32 10,3 C 8,3 C 8,9 C 77 % 1017,8 hPa 0,0 l/m 2,5 km/h (1 Bft) S-SW 196 0 min 0,000 mm 0,0 UV-I 0 W/m 6,4 C 10,3 C 4,8 km/h (1 Bft) 100,00 %
24.03.2019 22:34 10,3 C 8,3 C 8,9 C 77 % 1017,7 hPa 0,0 l/m 3,6 km/h (1 Bft) S-SW 195 0 min 0,000 mm 0,0 UV-I 0 W/m 6,4 C 10,3 C 4,8 km/h (1 Bft) 100,00 %
24.03.2019 22:36 10,2 C 8,3 C 8,9 C 77 % 1017,8 hPa 0,0 l/m 3,2 km/h (1 Bft) S-SW 195 0 min 0,000 mm 0,0 UV-I 0 W/m 6,4 C 10,2 C 4,8 km/h (1 Bft) 97,37 %
24.03.2019 22:38 10,1 C 8,3 C 8,9 C 78 % 1017,8 hPa 0,0 l/m 3,0 km/h (1 Bft) S-SW 195 0 min 0,000 mm 0,0 UV-I 0 W/m 6,4 C 10,1 C 4,8 km/h (1 Bft) 100,00 %
24.03.2019 22:40 10,1 C 8,3 C 8,9 C 78 % 1017,9 hPa 0,0 l/m 4,4 km/h (1 Bft) S-SW 195 0 min 0,000 mm 0,0 UV-I 0 W/m 6,4 C 10,1 C 6,4 km/h (2 Bft) 100,00 %
24.03.2019 22:42 10,1 C 8,3 C 8,9 C 78 % 1017,8 hPa 0,0 l/m 2,8 km/h (1 Bft) S-SW 195 0 min 0,000 mm 0,0 UV-I 0 W/m 6,4 C 10,1 C 4,8 km/h (1 Bft) 100,00 %
24.03.2019 22:44 10,1 C 8,3 C 8,9 C 79 % 1017,7 hPa 0,0 l/m 2,9 km/h (1 Bft) S-SW 195 0 min 0,000 mm 0,0 UV-I 0 W/m 6,6 C 10,1 C 4,8 km/h (1 Bft) 100,00 %
24.03.2019 22:46 9,9 C 8,3 C 8,9 C 80 % 1017,8 hPa 0,0 l/m 2,3 km/h (1 Bft) S-SW 195 0 min 0,000 mm 0,0 UV-I 0 W/m 6,6 C 9,9 C 3,2 km/h (1 Bft) 100,00 %
24.03.2019 22:48 9,8 C 8,3 C 8,9 C 81 % 1017,8 hPa 0,0 l/m 2,5 km/h (1 Bft) S-SW 195 0 min 0,000 mm 0,0 UV-I 0 W/m 6,7 C 9,8 C 4,8 km/h (1 Bft) 98,00 %
24.03.2019 22:50 9,8 C 8,3 C 8,9 C 81 % 1017,8 hPa 0,0 l/m 2,1 km/h (1 Bft) S-SW 195 0 min 0,000 mm 0,0 UV-I 0 W/m 6,7 C 9,8 C 3,2 km/h (1 Bft) 100,00 %
24.03.2019 22:52 9,8 C 8,3 C 8,9 C 80 % 1017,9 hPa 0,0 l/m 2,7 km/h (1 Bft) S-SW 195 0 min 0,000 mm 0,0 UV-I 0 W/m 6,5 C 9,8 C 4,8 km/h (1 Bft) 97,87 %
24.03.2019 22:54 9,8 C 8,3 C 8,9 C 80 % 1017,9 hPa 0,0 l/m 1,9 km/h (1 Bft) S-SW 195 0 min 0,000 mm 0,0 UV-I 0 W/m 6,5 C 9,8 C 3,2 km/h (1 Bft) 100,00 %
24.03.2019 22:56 9,9 C 8,3 C 8,9 C 79 % 1017,8 hPa 0,0 l/m 2,4 km/h (1 Bft) S-SW 196 0 min 0,000 mm 0,0 UV-I 0 W/m 6,4 C 9,9 C 3,2 km/h (1 Bft) 100,00 %
24.03.2019 22:58 10,0 C 8,3 C 8,9 C 79 % 1017,9 hPa 0,0 l/m 3,7 km/h (1 Bft) S-SW 211 0 min 0,000 mm 0,0 UV-I 0 W/m 6,5 C 10,0 C 6,4 km/h (2 Bft) 100,00 %
24.03.2019 23:00 10,0 C 8,3 C 8,9 C 79 % 1017,9 hPa 0,0 l/m 3,0 km/h (1 Bft) S-SW 211 0 min 0,000 mm 0,0 UV-I 0 W/m 6,5 C 10,0 C 4,8 km/h (1 Bft) 100,00 %
24.03.2019 23:02 10,0 C 8,3 C 8,9 C 79 % 1017,9 hPa 0,0 l/m 3,0 km/h (1 Bft) S-SW 211 0 min 0,000 mm 0,0 UV-I 0 W/m 6,5 C 10,0 C 4,8 km/h (1 Bft) 100,00 %
24.03.2019 23:04 9,9 C 8,3 C 8,9 C 80 % 1017,8 hPa 0,0 l/m 1,7 km/h (1 Bft) S-SW 211 0 min 0,000 mm 0,0 UV-I 0 W/m 6,6 C 9,9 C 3,2 km/h (1 Bft) 100,00 %
24.03.2019 23:06 9,9 C 8,3 C 8,9 C 80 % 1017,9 hPa 0,0 l/m 4,0 km/h (1 Bft) S-SW 211 0 min 0,000 mm 0,0 UV-I 0 W/m 6,6 C 9,9 C 6,4 km/h (2 Bft) 98,00 %
24.03.2019 23:08 9,8 C 8,3 C 8,9 C 80 % 1017,9 hPa 0,0 l/m 2,6 km/h (1 Bft) S-SW 210 0 min 0,000 mm 0,0 UV-I 0 W/m 6,5 C 9,8 C 4,8 km/h (1 Bft) 100,00 %
24.03.2019 23:10 9,8 C 8,3 C 8,9 C 81 % 1017,8 hPa 0,0 l/m 2,8 km/h (1 Bft) SW 234 0 min 0,000 mm 0,0 UV-I 0 W/m 6,7 C 9,8 C 4,8 km/h (1 Bft) 100,00 %
24.03.2019 23:12 9,8 C 8,3 C 8,3 C 82 % 1017,9 hPa 0,0 l/m 5,3 km/h (1 Bft) W-SW 254 0 min 0,000 mm 0,0 UV-I 0 W/m 6,9 C 9,8 C 9,7 km/h (2 Bft) 100,00 %
24.03.2019 23:14 9,8 C 8,3 C 8,3 C 82 % 1017,9 hPa 0,0 l/m 3,9 km/h (1 Bft) W-SW 248 0 min 0,000 mm 0,0 UV-I 0 W/m 6,9 C 9,8 C 8,0 km/h (2 Bft) 100,00 %
24.03.2019 23:16 9,8 C 8,3 C 8,3 C 82 % 1018,0 hPa 0,0 l/m 4,0 km/h (1 Bft) W-SW 240 0 min 0,000 mm 0,0 UV-I 0 W/m 6,9 C 9,8 C 6,4 km/h (2 Bft) 100,00 %
24.03.2019 23:18 9,8 C 8,3 C 8,3 C 82 % 1017,9 hPa 0,0 l/m 4,4 km/h (1 Bft) W-SW 247 0 min 0,000 mm 0,0 UV-I 0 W/m 6,9 C 9,8 C 8,0 km/h (2 Bft) 100,00 %
24.03.2019 23:20 9,9 C 8,3 C 8,3 C 81 % 1017,9 hPa 0,0 l/m 6,4 km/h (2 Bft) W-SW 249 0 min 0,000 mm 0,0 UV-I 0 W/m 6,8 C 9,9 C 11,3 km/h (2 Bft) 100,00 %
24.03.2019 23:22 10,1 C 8,3 C 8,9 C 80 % 1017,9 hPa 0,0 l/m 7,3 km/h (2 Bft) W 263 0 min 0,000 mm 0,0 UV-I 0 W/m 6,8 C 9,4 C 9,7 km/h (2 Bft) 100,00 %
24.03.2019 23:24 10,3 C 8,3 C 8,9 C 79 % 1017,8 hPa 0,0 l/m 6,8 km/h (2 Bft) W-SW 244 0 min 0,000 mm 0,0 UV-I 0 W/m 6,8 C 10,0 C 11,3 km/h (2 Bft) 97,14 %
24.03.2019 23:26 10,4 C 8,3 C 8,9 C 78 % 1017,7 hPa 0,0 l/m 5,4 km/h (1 Bft) W-SW 256 0 min 0,000 mm 0,0 UV-I 0 W/m 6,7 C 10,4 C 9,7 km/h (2 Bft) 98,00 %
24.03.2019 23:28 10,6 C 8,3 C 8,9 C 77 % 1017,7 hPa 0,0 l/m 5,7 km/h (1 Bft) W-SW 252 0 min 0,000 mm 0,0 UV-I 0 W/m 6,7 C 10,6 C 8,0 km/h (2 Bft) 96,00 %
24.03.2019 23:30 10,6 C 8,3 C 8,9 C 77 % 1017,8 hPa 0,0 l/m 5,4 km/h (1 Bft) W-SW 256 0 min 0,000 mm 0,0 UV-I 0 W/m 6,7 C 10,6 C 8,0 km/h (2 Bft) 95,45 %
24.03.2019 23:32 10,6 C 8,3 C 8,9 C 77 % 1017,8 hPa 0,0 l/m 7,3 km/h (2 Bft) W-SW 244 0 min 0,000 mm 0,0 UV-I 0 W/m 6,7 C 10,0 C 11,3 km/h (2 Bft) 93,62 %
24.03.2019 23:34 10,6 C 8,3 C 8,9 C 77 % 1017,8 hPa 0,0 l/m 6,6 km/h (2 Bft) SW 234 0 min 0,000 mm 0,0 UV-I 0 W/m 6,7 C 10,5 C 9,7 km/h (2 Bft) 96,00 %
24.03.2019 23:36 10,6 C 8,3 C 8,9 C 77 % 1017,8 hPa 0,0 l/m 5,6 km/h (1 Bft) W-SW 240 0 min 0,000 mm 0,0 UV-I 0 W/m 6,7 C 10,6 C 8,0 km/h (2 Bft) 95,83 %
24.03.2019 23:38 10,5 C 8,3 C 8,9 C 77 % 1017,8 hPa 0,0 l/m 9,1 km/h (2 Bft) W-SW 248 0 min 0,000 mm 0,0 UV-I 0 W/m 6,6 C 8,7 C 14,5 km/h (3 Bft) 95,74 %
24.03.2019 23:40 10,6 C 8,3 C 8,9 C 77 % 1017,8 hPa 0,0 l/m 8,5 km/h (2 Bft) SW 235 0 min 0,000 mm 0,0 UV-I 0 W/m 6,7 C 9,2 C 12,9 km/h (3 Bft) 94,00 %
24.03.2019 23:42 10,6 C 8,3 C 9,4 C 77 % 1017,8 hPa 0,0 l/m 6,9 km/h (2 Bft) SW 229 0 min 0,000 mm 0,0 UV-I 0 W/m 6,7 C 10,3 C 11,3 km/h (2 Bft) 95,74 %
24.03.2019 23:44 10,6 C 8,3 C 8,9 C 77 % 1017,7 hPa 0,0 l/m 6,7 km/h (2 Bft) SW 236 0 min 0,000 mm 0,0 UV-I 0 W/m 6,7 C 10,4 C 11,3 km/h (2 Bft) 95,12 %
24.03.2019 23:46 10,6 C 8,3 C 8,9 C 77 % 1017,6 hPa 0,0 l/m 9,8 km/h (2 Bft) W-SW 250 0 min 0,000 mm 0,0 UV-I 0 W/m 6,7 C 8,4 C 14,5 km/h (3 Bft) 96,00 %
24.03.2019 23:48 10,7 C 8,3 C 8,9 C 77 % 1017,7 hPa 0,0 l/m 7,5 km/h (2 Bft) W-SW 253 0 min 0,000 mm 0,0 UV-I 0 W/m 6,8 C 9,9 C 11,3 km/h (2 Bft) 95,74 %
24.03.2019 23:50 10,8 C 8,3 C 9,4 C 77 % 1017,6 hPa 0,0 l/m 9,4 km/h (2 Bft) W-NW 284 0 min 0,000 mm 0,0 UV-I 0 W/m 6,9 C 8,8 C 14,5 km/h (3 Bft) 97,87 %
24.03.2019 23:52 10,8 C 8,3 C 9,4 C 76 % 1017,6 hPa 0,0 l/m 9,2 km/h (2 Bft) W-SW 256 0 min 0,000 mm 0,0 UV-I 0 W/m 6,7 C 8,9 C 12,9 km/h (3 Bft) 95,74 %
24.03.2019 23:54 10,8 C 8,3 C 9,4 C 76 % 1017,6 hPa 0,0 l/m 12,0 km/h (2 Bft) W 267 0 min 0,000 mm 0,0 UV-I 0 W/m 6,7 C 7,4 C 20,9 km/h (4 Bft) 97,56 %
24.03.2019 23:56 10,9 C 8,3 C 9,4 C 76 % 1017,7 hPa 0,0 l/m 10,7 km/h (2 Bft) W-NW 282 0 min 0,000 mm 0,0 UV-I 0 W/m 6,8 C 8,2 C 12,9 km/h (3 Bft) 95,45 %
24.03.2019 23:58 10,9 C 8,3 C 10,0 C 76 % 1017,7 hPa 0,0 l/m 11,0 km/h (2 Bft) W-SW 252 0 min 0,000 mm 0,0 UV-I 0 W/m 6,8 C 8,1 C 12,9 km/h (3 Bft) 98,11 %
_ Min-Zeit 05:52 00:00 05:42 14:20 17:30 - 03:30 - - - - - - 06:28 05:50 03:30 22:10
Minimum _ 1,4 C 7,8 C -2,8 C 44 % 1017,4 hPa - 0,0 km/h (0 Bft) - - - - - - 0,0 C 1,5 C 0,0 km/h (0 Bft) 85,71 %
_ Max-Zeit 15:04 21:58 12:02 05:36 00:00 00:00 15:06 - - 06:10 13:00 11:58 11:56 12:30 14:54 23:54 00:00
Maximum _ 18,2 C 8,3 C 30,6 C 92 % 1024,8 hPa 0,0 l/m 13,2 km/h
SW (3 Bft)
- - 2 min 0,381 mm 3,4 UV-I 685 W/m 8,7 C 18,1 C 20,9 km/h
W-NW (4 Bft)
100,00 %
Durchschnitt _ 10,4 C 7,8 C 11,8 C 70 % 1020,7 hPa #0,0 l/m 4,1 km/h (1 Bft) S-SW - #11:48 h #2,921 mm 2,0 UV-I 382 W/m 4,7 C 10,3 C 6,6 km/h (2 Bft) 97,65 %